     2.11           OBSERVATION DATA    G (GPS)             RINEX VERSION / TYPE
teqc 2010Oct21 OPUS Account 20111028 19:54:59UTC            PGM / RUN BY / DATE
S 1527                                                      MARKER NAME
3077                                                        MARKER NUMBER
CSMIDDLETON NGS                                             OBSERVER / AGENCY
4624K01584 TRIMBLE NETR5 4.41                               REC # / TYPE / VERS
60177755 TRM41249.00 NONE                                   ANT # / TYPE
  -711601.1731 -5594394.3160  2969403.5593                  APPROX POSITION XYZ
        2.0000        0.0000        0.0000                  ANTENNA: DELTA H/E/N
     1     1                                                WAVELENGTH FACT L1/2
     5    L1    L2    C1    P1    P2                        # / TYPES OF OBSERV
    15                                                      LEAP SECONDS
  2011     8    26     0     0    0.0000000     GPS         TIME OF FIRST OBS
                                                            END OF HEADER
 11  8 26  0  0  0.0000000  0  9G17G04G10G12G05G09G02G25G30
 122145644.23217  95178554.74116  23243561.383                    23243571.973
 114714853.64418  89388308.77255  21829486.828                    21829496.332
 109688309.15918  85471628.08056  20872986.180                    20872995.680
 112477704.54918  87645089.45317  21403810.039                    21403818.664
 114606344.11117  89303740.20217  21808844.047                    21808854.230
 124992009.18817  97396499.79853  23785219.648                    23785234.793
 108532770.01618  84571136.27056  20653076.078                    20653082.664
 126373199.04317  98472746.16816  24048043.805                    24048055.824
 126801309.07816  98806346.68453  24129507.609                    24129518.012
 11  8 26  0  0 30.0000000  0  9G17G04G10G12G05G09G02G25G30
 122198342.468 7  95219618.265 6  23253589.813                    23253600.211
 114792187.546 8  89448568.94745  21844202.508                    21844212.730
 109695322.603 8  85477093.12946  20874321.070                    20874330.348
 112419846.386 8  87600005.227 7  21392799.898                    21392808.129
 114519626.645 7  89236168.254 7  21792342.148                    21792352.836
 125070217.413 6  97457441.09544  23800102.516                    23800116.770
 108534737.064 8  84572669.05146  20653450.695                    20653457.633
 126274834.344 7  98396098.410 6  24029325.391                    24029337.891
 126700400.142 6  98727716.41043  24110305.633                    24110315.324
 11  8 26  0  1  0.0000000  0  9G17G04G10G12G05G09G02G25G30
 122251204.142 7  95260809.140 6  23263648.586                    23263659.383
 114869635.807 8  89508918.23245  21858940.898                    21858950.910
 109702966.641 8  85483049.55346  20875775.461                    20875784.590
 112362430.565 8  87555265.674 7  21381873.906                    21381882.938
 114433241.872 8  89168855.556 7  21775903.742                    21775914.230
 125148564.170 7  97518490.34443  23815011.766                    23815025.988
 108536976.945 7  84574414.43446  20653876.633                    20653883.512
 126176660.557 7  98319599.416 6  24010643.773                    24010656.305
 126599726.880 6  98649269.77343  24091147.602                    24091158.285
 11  8 26  0  1 30.0000000  0  9G17G04G10G12G05G09G02G25G30
 122304229.804 7  95302127.805 6  23273739.188                    23273749.844
 114947196.766 8  89569355.33745  21873700.125                    21873709.582
 109711241.647 8  85489497.64146  20877350.086                    20877359.477
 112305459.731 8  87510872.872 7  21371032.531                    21371041.199
 114347192.346 7  89101804.083 7  21759529.109                    21759538.813
 125227046.298 7  97579645.08744  23829947.047                    23829961.168
 108539488.460 8  84576371.47546  20654355.000                    20654361.688
 126078680.347 7  98243251.278 6  23991998.531                    23992011.031
 126499292.257 6  98571009.08343  24072035.992                    24072046.012
 11  8 26  0  2  0.0000000  0  9G17G04G10G12G05G09G02G25G30
 122357419.698 7  95343574.435 6  23283860.273                    23283871.867
 115024868.514 8  89629878.76845  21888480.438                    21888490.492
 109720147.001 8  85496436.91146  20879044.789                    20879053.785
 112248936.198 8  87466828.617 7  21360276.445                    21360285.180
 114261480.949 8  89035016.074 7  21743218.656                    21743228.598
 125305660.472 7  97640902.73044  23844906.523                    23844920.656
 108542270.296 8  84578539.15446  20654884.328                    20654891.039
 125980896.393 7  98167056.052 6  23973391.273                    23973403.598
 126399098.953 6  98492936.39043  24052968.883                    24052979.289
 11  8 26  0  2 30.0000000  0  9G17G04G10G12G05G09G02G25G30
 122410774.746 7  95385149.767 6  23294014.273                    23294025.379
 115102649.075 8  89690486.98445  21903281.820                    21903291.500
 109729682.416 8  85503867.13546  20880859.133                    20880868.406
 112192862.266 8  87423134.695 7  21349605.773                    21349614.629
 114176110.441 8  88968493.700 7  21726972.711                    21726982.223
 125384403.228 6  97702260.53344  23859890.969                    23859905.633
 108545321.556 8  84580916.77346  20655465.023                    20655471.715
 125883311.399 7  98091015.877 6  23954821.242                    23954833.492
 126299149.947 6  98415054.09943  24033949.445                    24033959.902
 11  8 26  0  3  0.0000000  0  9G17G04G10G12G05G09G02G25G30
 122464295.248 7  95426854.009 6  23304198.641                    23304209.523
 115180536.632 7  89751178.58345  21918102.820                    21918112.660
 109739847.897 8  85511788.32646  20882793.781                    20882802.910
 112137240.176 8  87379792.853 7  21339021.469                    21339029.754
 114091083.532 7  88902239.048 7  21710792.695                    21710802.734
 125463271.037 7  97763715.80844  23874899.336                    23874913.629
 108548640.590 8  84583503.04246  20656096.313                    20656103.031
 125785927.829 7  98015132.656 6  23936289.461                    23936302.109
 126199447.977 6  98337364.30443  24014976.680                    24014986.953
 11  8 26  0  3 30.0000000  0  9G17G04G10G12G05G09G02G25G30
 122517981.868 7  95468687.687 6  23314415.273                    23314426.242
 115258529.187 7  89811951.97945  21932944.672                    21932954.691
 109750643.190 8  85520200.27946  20884847.781                    20884856.676
 112082071.827 8  87336804.573 7  21328523.086                    21328531.773
 114006403.172 8  88836254.452 7  21694678.563                    21694688.578
 125542260.808 7  97825266.12544  23889930.492                    23889944.820
 108552226.608 8  84586297.36046  20656778.719                    20656785.625
 125688748.277 7  97939408.413 6  23917796.063                    23917809.418
 126099995.900 6  98259869.20543  23996051.719                    23996062.016
 11  8 26  0  4  0.0000000  0  9G17G04G10G12G05G09G02G25G30
 122571835.048 7  95510651.162 6  23324662.914                    23324674.000
 115336624.640 8  89872805.57045  21947805.773                    21947815.609
 109762068.000 8  85529102.76446  20887022.148                    20887031.410
 112027359.167 8  87294171.373 7  21318111.758                    21318120.543
 113922071.773 7  88770541.767 7  21678630.875                    21678641.137
 125621368.905 7  97886908.64644  23904984.820                    23904999.094
 108556077.570 8  84589298.12046  20657511.563                    20657518.355
 125591775.184 7  97863845.074 6  23899343.195                    23899355.922
 126000796.195 6  98182570.76244  23977174.828                    23977185.461
 11  8 26  0  4 30.0000000  0  9G17G04G10G12G05G09G02G25G30
 122625855.451 7  95552744.933 6  23334942.898                    23334953.719
 115414821.664 8  89933738.29045  21962686.297                    21962695.773
 109774122.125 8  85538495.62746  20889315.500                    20889324.711
 111973104.897 8  87251895.351 7  21307787.391                    21307795.871
 113838092.323 7  88705103.326 7  21662649.688                    21662659.730
 125700592.452 7  97948641.11044  23920060.563                    23920075.297
 108560193.293 8  84592505.18546  20658294.898                    20658301.504
 125495011.683 7  97788445.008 6  23880929.594                    23880942.289
 125901852.127 6  98105471.54543  23958345.945                    23958356.660
 11  8 26  0  5  0.0000000  0  9G17G04G10G12G05G09G02G25G30
 122680043.807 7  95594969.580 6  23345254.484                    23345265.848
 115493118.360 8  89994748.68245  21977585.594                    21977595.113
 109786805.530 8  85548378.82746  20891729.273                    20891738.051
 111919311.773 8  87209978.655 7  21297550.766                    21297559.430
 113754467.820 7  88639941.478 7  21646736.641                    21646746.191
 125779928.019 6  98010460.84144  23935157.602                    23935171.941
 108564572.702 8  84595917.72646  20659128.180                    20659134.688
 125398460.469 7  97713210.361 6  23862556.508                    23862569.164
 125803166.651 6  98028573.82344  23939567.250                    23939577.379
 11  8 26  0  5 30.0000000  0  9G17G04G10G12G05G09G02G25G30
 122734400.388 7  95637325.287 6  23355598.172                    23355609.105
 115571513.015 8  90055835.40145  21992504.297                    21992513.215
 109800117.668 8  85558751.94846  20894262.336                    20894271.473
 111865981.193 8  87168422.388 7  21287402.492                    21287411.141
 113671200.905 8  88575058.250 7  21630891.219                    21630901.063
 125859372.091 7  98072365.13844  23950275.734                    23950290.008
 108569214.357 8  84599534.60946  20660011.148                    20660018.293
 125302124.044 7  97638143.102 6  23844223.922                    23844236.879
 125704742.425 6  97951879.68743  23920837.625                    23920848.117
 11  8 26  0  6  0.0000000  0  9G17G04G10G12G05G09G02G25G30
 122788925.901 7  95679812.649 6  23365973.938                    23365985.195
 115650003.506 8  90116996.79145  22007440.008                    22007449.629
 109814058.199 8  85569614.73246  20896915.578                    20896924.434
 111813114.941 8  87127227.927 7  21277342.594                    21277351.145
 113588293.878 8  88510455.464 7  21615114.742                    21615124.422
 125938921.055 7  98134351.17744  23965412.688                    23965427.594
 108574116.684 7  84603354.61246  20660943.984                    20660950.793
 125206004.892 7  97563245.115 6  23825933.344                    23825945.789
 125606582.197 6  97875391.29443  23902157.797                    23902168.855
 11  8 26  0  6 30.0000000  0  9G17G04G10G12G05G09G02G25G30
 122843620.898 7  95722432.078 6  23376382.539                    23376393.555
 115728587.969 8  90178231.41145  22022394.344                    22022403.785
 109828626.752 8  85580966.87446  20899687.539                    20899696.734
 111760715.465 8  87086397.184 7  21267371.117                    21267379.746
 113505749.849 8  88446135.518 7  21599407.203                    21599416.785
 126018571.898 7  98196416.58244  23980569.969                    23980584.578
 108579278.578 7  84607376.88246  20661926.391                    20661933.258
 125110105.789 7  97488518.585 6  23807684.789                    23807696.762
 125508688.806 6  97799110.80043  23883529.836                    23883540.254
 11  8 26  0  7  0.0000000  0  9G17G04G10G12G05G09G02G25G30
 122898485.707 7  95765183.829 6  23386822.570                    23386834.086
 115807264.862 7  90239538.04745  22037366.211                    22037375.617
 109843822.447 8  85592807.69846  20902579.453                    20902588.434
 111708784.882 8  87045931.808 7  21257489.172                    21257497.742
 113423571.349 8  88382100.417 7  21583769.086                    21583778.555
 126098321.283 7  98258558.76743  23995746.039                    23995760.813
 108584698.857 8  84611600.48646  20662957.945                    20662964.668
 125014429.238 7  97413965.469 6  23789477.781                    23789489.711
 125411064.845 6  97723040.26543  23864952.195                    23864962.512
 11  8 26  0  7 30.0000000  0  9G17G04G10G12G05G09G02G25G30
 122953520.716 7  95808068.189 6  23397295.141                    23397306.316
 115886032.703 8  90300915.54145  22052355.141                    22052365.105
 109859645.422 8  85605137.30646  20905590.375                    20905599.477
 111657325.816 8  87005833.842 7  21247696.688                    21247705.254
 113341761.205 8  88318352.332 7  21568200.945                    21568210.496
 126178166.160 7  98320775.36243  24010940.391                    24010955.129
 108590376.904 8  84616024.94846  20664038.477                    20664044.941
 124918978.395 7  97339588.220 7  23771313.719                    23771326.344
 125313713.839 6  97647182.44343  23846427.281                    23846437.074
 11  8 26  0  8  0.0000000  0  9G17G04G10G12G05G09G02G25G30
 123008726.776 7  95851085.840 6  23407800.898                    23407811.914
 115964889.307 7  90362362.20345  22067360.711                    22067370.977
 109876094.734 8  85617954.97446  20908720.258                    20908729.484
 111606340.166 8  86966104.777 7  21237994.313                    21238002.867
 113260321.888 8  88254893.219 7  21552703.500                    21552713.059
 126258102.756 6  98383063.45944  24026151.984                    24026166.434
 108596310.800 8  84620648.77446  20665167.766                    20665174.258
 124823755.576 7  97265388.661 6  23753193.414                    23753205.988
 125216638.028 6  97571539.05043  23827953.281                    23827964.438
 11  8 26  0  8 30.0000000  0  9G17G04G10G12G05G09G02G25G30
 123064104.569 7  95894237.316 6  23418338.930                    23418350.211
 116043833.023 7  90423876.73745  22082383.484                    22082393.059
 109893170.442 8  85631260.74246  20911969.578                    20911978.727
 111555829.971 8  86926746.192 7  21228382.586                    21228391.016
 113179256.758 8  88191725.647 7  21537277.227                    21537286.641
 126338128.005 6  98445420.59344  24041380.148                    24041395.348
 108602499.994 8  84625471.53746  20666345.602                    20666352.516
 124728763.646 7  97191369.011 6  23735117.133                    23735129.430
 125119840.600 7  97496112.56243  23809533.906                    23809544.559
 11  8 26  0  9  0.0000000  0  9G17G04G10G12G05G09G02G25G30
 123119654.145 7  95937522.659 6  23428909.578                    23428920.820
 116122861.929 7  90485457.66845  22097422.016                    22097432.059
 109910871.398 8  85645053.72346  20915338.031                    20915347.301
 111505796.885 8  86887759.387 7  21218861.719                    21218870.328
 113098567.626 8  88128851.081 7  21521922.328                    21521932.000
 126418238.501 6  98507844.15944  24056624.992                    24056640.508
 108608942.639 8  84630491.79646  20667571.398                    20667577.980
 124634005.023 7  97117531.164 6  23717085.359                    23717097.996
 125023323.978 6  97420904.89443  23791167.453                    23791177.398
 11  8 26  0  9 30.0000000  0  9G17G04G10G12G05G09G02G25G30
 123175376.091 7  95980942.318 6  23439513.469                    23439524.363
 116201974.423 7  90547103.71045  22112476.641                    22112486.945
 109929197.498 8  85659333.82046  20918825.602                    20918834.359
 111456243.263 8  86849146.183 7  21209432.070                    21209440.395
 113018257.530 8  88066271.861 7  21506639.883                    21506649.809
 126498430.989 6  98570331.61144  24071885.188                    24071900.508
 108615637.750 8  84635708.78746  20668845.352                    20668852.086
 124539482.537 7  97043877.338 6  23699098.273                    23699110.316
 124927091.258 7  97345918.41443  23772855.430                    23772865.488
 11  8 26  0 10  0.0000000  0  9G17G04G10G12G05G09G02G25G30
 123231271.034 7  96024496.782 6  23450149.266                    23450160.914
 116281168.851 7  90608813.61245  22127546.594                    22127557.027
 109948148.073 8  85674100.51446  20922431.711                    20922440.668
 111407171.273 8  86810908.286 7  21200094.063                    21200102.156
 112938329.013 8  88003989.970 7  21491430.328                    21491440.004
 126578702.377 7  98632880.53344  24087161.438                    24087176.137
 108622584.358 8  84641121.74046  20670167.500                    20670173.727
 124445198.950 7  96970409.662 6  23681156.469                    23681168.711
 124831145.255 6  97271155.33343  23754596.398                    23754606.871
 11  8 26  0 10 30.0000000  0  9G17G04G10G12G05G09G02G25G30
 123287339.366 7  96068186.346 6  23460819.172                    23460830.945
 116360443.332 7  90670585.88645  22142632.422                    22142642.895
 109967722.248 8  85689353.13446  20926156.305                    20926165.273
 111358582.373 8  86773046.823 7  21190847.672                    21190855.867
 112858784.623 8  87942007.402 7  21476293.164                    21476303.051
 126659048.983 6  98695488.06244  24102450.641                    24102465.750
 108629780.773 8  84646729.36447  20671537.008                    20671543.180
 124351156.698 7  96897130.073 6  23663260.445                    23663273.020
 124735488.669 7  97196617.78143  23736393.766                    23736403.758
 11  8 26  0 11  0.0000000  0  9G17G04G10G12G05G09G02G25G30
 123343581.684 6  96112011.490 6  23471521.586                    23471532.969
 116439796.238 7  90732419.27845  22157732.508                    22157742.953
 109987919.431 8  85705091.21846  20929999.883                    20930009.047
 111310479.482 8  86735564.065 7  21181693.992                    21181702.656
 112779627.518 7  87880326.610 7  21461230.078                    21461239.598
 126739467.795 6  98758151.87244  24117752.875                    24117769.082
 108637226.221 8  84652531.03746  20672953.844                    20672960.227
 124257358.666 7  96824040.784 6  23645411.742                    23645423.680
 124640124.443 7  97122308.06743  23718246.891                    23718257.129
 11  8 26  0 11 30.0000000  0  9G17G04G10G12G05G09G02G25G30
 123399998.370 7  96155972.508 6  23482257.398                    23482267.961
 116519225.911 7  90794312.47445  22172847.961                    22172857.836
 110008738.853 8  85721314.16246  20933961.586                    20933970.727
 111262863.683 8  86698460.866 7  21172632.703                    21172640.957
 112700859.696 8  87818949.151 7  21446241.094                    21446250.762
 126819955.564 6  98820869.42143  24133070.086                    24133085.219
 108644919.316 8  84658525.67846  20674417.430                    20674424.203
 124163807.341 7  96751143.736 6  23627609.539                    23627621.387
 124545055.242 6  97048228.18643  23700155.578                    23700165.953
 11  8 26  0 12  0.0000000  0  9G17G04G10G12G05G09G02G25G30
 123456589.783 7  96200069.693 6  23493026.305                    23493038.059
 116598730.614 7  90856264.15545  22187977.227                    22187986.887
 110030180.091 8  85738021.62746  20938041.578                    20938050.867
 111215737.439 8  86661739.149 7  21163665.000                    21163673.453
 112622483.722 8  87757877.036 7  21431326.625                    21431336.234
 126900509.072 6  98883638.16643  24148399.148                    24148414.711
 108652858.838 8  84664712.33846  20675928.469                    20675934.754
 124070505.604 7  96678441.186 6  23609854.273                    23609866.586
 124450284.101 6  96974380.58243  23682121.086                    23682131.527
 11  8 26  0 12 30.0000000  0  9G17G04G10G12G05G09G02G25G30
 123513356.698 6  96244303.627 6  23503828.727                    23503839.816
 116678308.526 7  90918272.87245  22203120.367                    22203130.223
 110052241.900 8  85755212.66346  20942239.867                    20942248.691
 111169102.239 8  86625400.057 7  21154790.469                    21154798.859
 112544502.381 8  87697112.421 7  21416487.016                    21416496.355
 126981124.642 6  98946455.29243  24163739.555                    24163755.023
 108661043.355 8  84671089.90546  20677485.828                    20677492.328
 123977455.789 7  96605934.951 6  23592147.672                    23592159.711
 124355813.499 6  96900767.16644  23664144.375                    23664154.180
 11  8 26  0 13  0.0000000  0  9G17G04G10G12G05G09G02G25G30
 123570299.370 7  96288674.497 6  23514665.195                    23514676.004
 116757958.392 7  90980337.65845  22218277.141                    22218287.059
 110074923.867 8  85772886.94446  20946555.773                    20946564.832
 111122960.357 8  86589445.369 7  21146010.141                    21146018.195
 112466918.336 8  87636657.386 7  21401723.359                    21401732.402
 127061799.398 6  99009318.51843  24179091.828                    24179107.496
 108669472.170 8  84677657.84146  20679089.922                    20679096.293
 123884660.841 7  96533627.308 7  23574489.383                    23574501.578
 124261646.641 6  96827390.42844  23646224.492                    23646234.984
 11  8 26  0 13 30.0000000  0  9G17G04G10G12G05G09G02G25G30
 123627418.481 6  96333182.863 6  23525534.531                    23525545.992
 116837678.250 7  91042456.98445  22233447.414                    22233457.441
 110098225.194 8  85791043.83746  20950990.273                    20950999.398
 111077314.023 8  86553876.816 7  21137324.320                    21137332.480
 112389734.365 8  87576514.098 7  21387035.734                    21387045.258
 127142529.988 6  99072225.23043  24194454.078                    24194469.840
 108678143.971 8  84684415.11146  20680739.867                    20680746.402
 123792123.599 7  96461520.470 7  23556879.820                    23556891.801
 124167786.275 6  96754252.53344  23628363.203                    23628373.664
 11  8 26  0 14  0.0000000  0  9G17G04G10G12G05G09G02G25G30
 123684714.300 6  96377828.930 6  23536437.695                    23536448.504
 116917466.510 7  91104629.62645  22248630.898                    22248640.680
 110122144.780 8  85809682.49246  20955541.633                    20955550.836
 111032165.294 8  86518696.017 7  21128732.461                    21128740.848
 112312952.975 8  87516684.519 7  21372424.852                    21372433.836
 127223313.257 7  99135172.97844  24209827.461                    24209843.035
 108687057.510 8  84691360.74946  20682436.211                    20682442.637
 123699846.505 7  96389616.364 7  23539320.102                    23539332.211
 124074235.175 6  96681355.63244  23610561.672                    23610571.262
 11  8 26  0 14 30.0000000  0  9G17G04G10G12G05G09G02G25G30
 123742187.231 7  96422613.012 6  23547374.586                    23547384.859
 116997321.750 7  91166854.46645  22263826.852                    22263836.324
 110146682.328 8  85828802.67746  20960210.953                    20960220.176
 110987515.624 8  86483904.083 7  21120236.016                    21120244.293
 112236576.300 8  87457170.286 7  21357890.523                    21357900.180
 127304145.929 7  99198159.27943  24225209.281                    24225224.711
 108696211.505 8  84698493.76046  20684178.063                    20684184.574
 123607832.355 7  96317917.123 7  23521810.063                    23521822.594
 123980996.272 6  96608701.98644  23592818.609                    23592828.816
 11  8 26  0 15  0.0000000  0  9G17G04G10G12G05G09G02G25G30
 123799837.665 7  96467535.379 6  23558344.766                    23558355.594
 117077241.977 7  91229129.94045  22279034.867                    22279044.738
 110171836.863 8  85848403.63046  20964998.047                    20965006.840
 110943366.683 8  86449502.334 7  21111834.391                    21111842.770
 112160606.996 7  87397973.496 7  21343433.867                    21343443.488
 127385024.801 6  99261181.57443  24240600.383                    24240616.051
 108705604.483 8  84705812.99646  20685965.297                    20685972.094
 123516083.703 7  96246424.771 6  23504350.938                    23504362.777
 123888072.160 6  96536293.67044  23575135.805                    23575145.625
 11  8 26  0 15 30.0000000  0  9G17G04G10G12G05G09G02G25G30
 123857666.192 7  96512596.542 6  23569349.063                    23569360.195
 117157225.652 7  91291454.86545  22294255.586                    22294265.086
 110197607.346 8  85868484.53846  20969901.797                    20969911.074
 110899720.539 8  86415492.370 7  21103528.992                    21103537.531
 112085047.820 8  87339096.280 7  21329055.398                    21329065.070
 127465946.575 6  99324237.30243  24255999.414                    24256015.262
 108715235.539 8  84713317.74046  20687798.461                    20687804.383
 123424603.235 7  96175141.371 7  23486942.383                    23486954.980
 123795465.662 6  96464132.85144  23557513.031                    23557523.336
 11  8 26  0 16  0.0000000  0  9G17G04G10G12G05G09G02G25G30
 123915673.099 7  96557796.700 6  23580387.727                    23580398.383
 117237271.220 7  91353828.02045  22309487.484                    22309497.266
 110223992.438 8  85889044.37346  20974922.766                    20974931.664
 110856578.884 8  86381875.512 7  21095319.570                    21095327.691
 112009900.917 8  87280540.326 7  21314755.461                    21314764.801
 127546908.148 7  99387324.04643  24271405.422                    24271421.570
 108725103.346 8  84721006.97246  20689675.844                    20689682.543
 123333393.628 7  96104069.032 7  23469586.078                    23469598.344
 123703179.702 6  96392221.78543  23539951.141                    23539961.699
 11  8 26  0 16 30.0000000  0  9G17G04G10G12G05G09G02G25G30
 123973858.798 7  96603136.148 6  23591460.445                    23591471.203
 117317377.099 7  91416248.15545  22324731.336                    22324741.500
 110250991.317 8  85910082.48446  20980060.406                    20980069.203
 110813943.679 8  86348653.289 7  21087206.500                    21087214.594
 111935169.163 8  87222307.852 7  21300534.414                    21300543.758
 127627906.114 6  99450439.11543  24286819.914                    24286835.340
 108735206.699 8  84728879.73646  20691598.359                    20691604.613
 123242457.609 7  96033209.886 7  23452282.141                    23452293.703
 123611217.015 6  96320562.65844  23522451.438                    23522462.047
 11  8 26  0 17  0.0000000  0  9G17G04G10G12G05G09G02G25G30
 124032223.896 7  96648615.407 6  23602567.375                    23602577.602
 117397541.815 7  91478714.14445  22339986.359                    22339996.266
 110278603.302 8  85931598.33646  20985315.164                    20985323.926
 110771817.076 8  86315827.386 7  21079190.047                    21079197.859
 111860854.857 8  87164400.658 7  21286392.602                    21286402.270
 127708937.314 6  99513580.07543  24302239.266                    24302255.176
 108745544.483 8  84736935.18146  20693565.547                    20693571.805
 123151797.904 7  95962566.026 6  23435029.477                    23435041.605
 123519580.516 6  96249157.70644  23505013.406                    23505023.684
 11  8 26  0 17 30.0000000  0  9G17G04G10G12G05G09G02G25G30
 124090768.653 6  96694234.674 6  23613706.734                    23613718.293
 117477763.542 7  91541224.56745  22355251.906                    22355261.938
 110306827.021 8  85953590.85946  20990685.742                    20990694.941
 110730200.464 8  86283398.861 7  21071270.289                    21071278.711
 111786960.482 8  87106820.700 7  21272331.000                    21272340.559
 127789998.559 6  99576744.42643  24317665.156                    24317680.594
 108756115.025 8  84745171.98846  20695576.969                    20695583.629
 123061416.993 7  95892139.402 6  23417830.453                    23417842.535
 123428272.692 7  96178008.85244  23487638.352                    23487648.176
 11  8 26  0 18  0.0000000  0  9G17G04G10G12G05G09G02G25G30
 124149493.422 7  96739994.206 6  23624882.172                    23624893.477
 117558040.869 7  91603778.31245  22370527.906                    22370538.109
 110335661.521 8  85976059.32746  20996172.758                    20996181.566
 110689095.682 8  86251369.167 7  21063448.227                    21063456.465
 111713488.325 7  87049569.741 7  21258349.695                    21258359.410
 127871086.754 6  99639929.81243  24333096.031                    24333111.289
 108766917.547 8  84753589.55746  20697632.867                    20697638.957
 122971317.694 7  95821932.200 7  23400685.422                    23400696.863
 123337296.635 7  96107118.52644  23470325.844                    23470335.910
 11  8 26  0 18 30.0000000  0  9G17G04G10G12G05G09G02G25G30
 124208398.520 7  96785894.248 6  23636091.516                    23636103.012
 117638372.332 7  91666374.22845  22385814.898                    22385824.598
 110365105.771 8  85999002.90946  21001775.461                    21001784.988
 110648504.463 8  86219739.649 7  21055723.961                    21055732.535
 111640441.160 8  86992649.936 7  21244449.445                    21244458.406
 127952198.748 6  99703133.74543  24348530.953                    24348546.516
 108777950.959 8  84762187.04646  20699732.391                    20699739.055
 122881502.729 7  95751946.559 6  23383594.109                    23383605.934
 123246655.057 7  96036488.81944  23453077.336                    23453087.762
 11  8 26  0 19  0.0000000  0  9G17G04G10G12G05G09G02G25G30
 124267484.634 6  96831935.292 6  23647335.102                    23647346.828
 117718756.300 7  91729011.07545  22401110.734                    22401121.340
 110395158.942 8  86022420.98246  21007494.695                    21007503.797
 110608428.745 8  86188511.823 7  21048097.875                    21048106.184
 111567821.501 8  86936063.248 7  21230630.180                    21230639.859
 128033331.347 6  99766353.73243  24363970.203                    24363985.945
 108789213.953 8  84770963.41846  20701875.625                    20701881.805
 122791974.716 7  95682184.523 6  23366557.273                    23366569.063
 123156350.637 6  95966121.82544  23435892.922                    23435902.813
 11  8 26  0 19 30.0000000  0  9G17G04G10G12G05G09G02G25G30
 124326752.313 7  96878117.845 6  23658613.391                    23658625.145
 117799191.310 7  91791687.68245  22416417.602                    22416427.699
 110425819.818 8  86046312.59146  21013329.391                    21013338.492
 110568870.520 8  86157687.245 7  21040570.094                    21040578.738
 111495631.295 8  86879811.204 7  21216892.703                    21216902.109
 128114481.429 6  99829587.34743  24379412.820                    24379427.996
 108800705.343 8  84779917.77746  20704062.359                    20704068.855
 122702736.425 7  95612648.224 6  23349575.969                    23349587.387
 123066386.275 7  95896019.82544  23418773.453                    23418782.918
 11  8 26  0 20  0.0000000  0  9G17G04G10G12G05G09G02G25G30
 124386201.705 6  96924441.997 6  23669926.813                    23669937.961
 117879675.817 7  91854402.85645  22431733.023                    22431742.988
 110457087.349 8  86070676.91346  21019279.016                    21019288.098
 110529831.422 8  86127267.179 7  21033141.320                    21033149.789
 111423873.497 8  86823896.102 7  21203237.672                    21203247.160
 128195645.775 6  99892832.05643  24394858.563                    24394874.363
 108812423.968 8  84789049.20346  20706292.320                    20706298.855
 122613790.508 7  95543339.766 6  23332649.867                    23332661.473
 122976764.784 7  95826184.97944  23401718.695                    23401728.738
 11  8 26  0 20 30.0000000  0  9G17G04G10G12G05G09G02G25G30
 124445833.262 6  96970908.071 6  23681274.195                    23681285.984
 117960208.122 7  91917155.27545  22447057.461                    22447068.223
 110488960.184 8  86095512.89746  21025344.586                    21025353.395
 110491312.505 8  86097252.444 7  21025811.344                    21025819.918
 111352550.013 8  86768319.431 7  21189665.266                    21189674.449
 128276821.005 6  99956085.28443  24410304.961                    24410321.383
 108824368.402 8  84798356.57246  20708565.000                    20708571.742
 122525139.449 7  95474261.077 7  23315780.250                    23315791.859
 122887488.707 7  95756619.26443  23384730.250                    23384739.328
 11  8 26  0 21  0.0000000  0  9G17G04G10G12G05G09G02G25G30
 124505647.054 6  97017516.186 6  23692656.156                    23692667.441
 118040786.847 7  91979943.86945  22462391.680                    22462401.238
 110521436.852 8  86120819.40846  21031524.414                    21031533.387
 110453315.495 8  86067644.397 7  21018580.820                    21018588.855
 111281663.245 8  86713083.050 7  21176175.781                    21176185.074
 128358004.139 6 100019344.60643  24425754.445                    24425769.988
 108836537.404 8  84807838.93046  20710880.531                    20710887.352
 122436786.039 7  95405414.294 6  23298967.297                    23298978.949
 122798560.975 7  95687325.01343  23367807.805                    23367817.188
 11  8 26  0 21 30.0000000  0  9G17G04G10G12G05G09G02G25G30
 124565643.589 6  97064266.665 6  23704072.758                    23704084.199
 118121410.553 7  92042767.51945  22477733.992                    22477743.918
 110554516.274 8  86146595.59746  21037819.289                    21037828.129
 110415842.256 8  86038444.481 7  21011449.813                    21011458.262
 111211215.677 8  86658188.899 7  21162770.164                    21162779.395
 128439192.078 6 100082607.66443  24441203.781                    24441219.941
 108848929.748 8  84817495.30746  20713239.109                    20713245.629
 122348732.842 7  95336801.457 7  23282210.734                    23282222.512
 122709984.182 6  95618304.18744  23350951.914                    23350961.895
 11  8 26  0 22  0.0000000  0  9G17G04G10G12G05G09G02G25G30
 124625823.325 6  97111159.890 6  23715524.727                    23715536.668
 118202077.568 7  92105624.90645  22493084.289                    22493093.996
 110588197.143 8  86172840.45146  21044228.844                    21044237.570
 110378894.252 8  86009653.840 7  21004418.539                    21004427.453
 111141209.505 8  86603638.705 7  21149448.391                    21149458.059
 128520381.244 6 100145871.68443  24456653.750                    24456669.723
 108861543.813 8  84827324.45646  20715639.680                    20715645.773
 122260982.413 7  95268424.531 7  23265512.563                    23265524.113
 122621761.058 7  95549558.94444  23334163.688                    23334173.645
 11  8 26  0 22 30.0000000  0  9G17G04G10G12G05G09G02G25G30
 124686186.762 6  97158196.266 6  23727012.492                    23727023.387
 118282786.815 7  92168515.20645  22508442.750                    22508452.871
 110622478.990 8  86199553.58946  21050752.266                    21050761.258
 110342474.319 8  85981274.677 7  20997488.328                    20997496.578
 111071647.814 8  86549434.848 7  21136211.086                    21136220.727
 128601569.352 6 100209134.88743  24472102.891                    24472119.820
 108874379.728 8  84837326.47646  20718082.008                    20718088.379
 122173538.039 7  95200286.104 7  23248872.414                    23248884.125
 122533894.942 6  95481091.90644  23317443.188                    23317453.023
 11  8 26  0 23  0.0000000  0  9G17G04G10G12G05G09G02G25G30
 124746733.829 6  97205375.724 6  23738532.945                    23738545.402
 118363536.486 7  92231437.00545  22523809.055                    22523818.992
 110657359.505 8  86226733.22346  21057389.539                    21057398.816
 110306582.897 8  85953307.357 7  20990658.570                    20990667.180
 111002532.008 8  86495578.439 7  21123058.773                    21123068.141
 128682752.839 6 100272394.48443  24487553.008                    24487568.914
 108887435.224 8  84847499.59846  20720566.305                    20720572.836
 122086401.861 7  95132387.824 7  23232290.859                    23232302.719
 122446388.080 6  95412904.80844  23300791.367                    23300801.371
 11  8 26  0 23 30.0000000  0  9G17G04G10G12G05G09G02G25G30
 124807465.175 6  97252698.817 6  23750090.031                    23750102.047
 118444325.309 7  92294389.31445  22539182.797                    22539192.625
 110692837.457 8  86254378.39246  21064141.156                    21064150.121
 110271221.575 8  85925753.092 7  20983929.258                    20983938.016
 110933864.674 8  86442071.473 7  21109991.969                    21110000.996
 128763928.821 6 100335648.21243  24503000.086                    24503016.387
 108900709.743 8  84857843.39046  20723092.172                    20723099.012
 121999576.599 7  95064731.820 7  23215768.617                    23215780.539
 122359243.229 7  95344999.77244  23284208.297                    23284217.789
 11  8 26  0 24  0.0000000  0  9G17G04G10G12G05G09G02G25G30
 124868381.045 6  97300165.667 6  23761681.602                    23761694.348
 118525151.524 7  92357370.76545  22554563.508                    22554573.066
 110728911.308 8  86282487.89546  21071005.711                    21071014.391
 110236391.304 8  85898612.640 7  20977301.391                    20977309.781
 110865647.977 8  86388915.667 7  21097010.523                    21097019.520
 128845093.440 6 100398893.09943  24518444.750                    24518461.859
 108914201.218 8  84868356.23846  20725659.969                    20725666.609
 121913064.687 7  94997319.972 7  23199305.398                    23199317.793
 122272462.928 6  95277378.82344  23267694.008                    23267704.328
 11  8 26  0 24 30.0000000  0  9G17G04G10G12G05G09G02G25G30
 124929481.846 6  97347776.611 6  23773309.844                    23773321.949
 118606013.953 7  92420380.42145  22569950.875                    22569960.805
 110765580.099 8  86311060.98646  21077983.297                    21077992.586
 110202094.580 8  85871887.944 7  20970774.867                    20970783.250
 110797884.272 8  86336112.830 7  21084115.828                    21084124.766
 128926244.142 6 100462127.09543  24533888.305                    24533904.668
 108927908.832 8  84879037.49546  20728267.914                    20728274.551
 121826868.965 7  94930154.508 7  23182903.656                    23182915.336
 122186050.169 6  95210044.28544  23251250.633                    23251260.672
 11  8 26  0 25  0.0000000  0  9G17G04G10G12G05G09G02G25G30
 124990767.900 6  97395531.949 6  23784971.656                    23784983.309
 118686911.082 7  92483417.11244  22585345.383                    22585354.996
 110802842.698 8  86340096.78646  21085074.305                    21085083.152
 110168332.797 8  85845580.076 7  20964350.328                    20964358.473
 110730575.846 8  86283664.760 7  21071307.063                    21071316.082
 129007377.925 6 100525347.91743  24549327.445                    24549344.320
 108941831.599 8  84889886.40546  20730917.781                    20730923.996
 121740992.180 7  94863237.575 7  23166561.195                    23166573.379
 122100007.629 7  95142998.19344  23234876.992                    23234886.945
 11  8 26  0 25 30.0000000  0  9G17G04G10G12G05G09G02G25G30
 125052239.460 6  97443431.819 6  23796669.477                    23796681.148
 118767841.344 7  92546479.63144  22600745.953                    22600755.832
 110840696.937 8  86369593.60246  21092277.602                    21092286.430
 110135107.135 8  85819689.973 7  20958027.648                    20958036.016
 110663724.505 8  86231572.869 7  21058585.344                    21058594.504
 129088491.437 6 100588552.96343  24564762.813                    24564780.066
 108955967.645 8  84900901.51046  20733607.109                    20733613.723
 121655436.538 7  94796570.859 7  23150281.008                    23150292.930
 122014337.686 7  95076242.43844  23218574.672                    23218584.531
 11  8 26  0 26  0.0000000  0  9G17G04G10G12G05G09G02G25G30
 125113896.711 6  97491476.388 6  23808402.656                    23808414.797
 118848803.964 7  92609567.35744  22616152.391                    22616162.480
 110879142.006 8  86399550.80746  21099593.586                    21099602.551
 110102419.694 8  85794219.252 7  20951807.555                    20951816.012
 110597333.214 8  86179839.444 7  21045951.984                    21045961.043
 129169581.959 6 100651740.06043  24580194.539                    24580211.203
 108970316.769 8  84912082.64746  20736338.094                    20736344.617
 121570205.332 7  94730156.939 7  23134061.906                    23134073.602
 121929043.693 7  95009779.63544  23202343.523                    23202353.867
 11  8 26  0 26 30.0000000  0  9G17G04G10G12G05G09G02G25G30
 125175740.266 6  97539666.116 6  23820171.680                    23820182.457
 118929797.102 7  92672678.86144  22631564.422                    22631575.527
 110918176.120 8  86429967.01146  21107021.289                    21107030.164
 110070271.514 8  85769168.744 7  20945689.813                    20945698.277
 110531403.930 8  86128466.038 7  21033405.914                    21033414.941
 129250646.244 6 100714906.76943  24595620.531                    24595637.770
 108984877.551 8  84923428.71846  20739108.961                    20739115.410
 121485300.869 7  94663997.643 7  23117905.336                    23117916.352
 121844128.072 7  94943611.68344  23186184.945                    23186194.406
 11  8 26  0 27  0.0000000  0  9G17G04G10G12G05G09G02G25G30
 125237769.971 6  97588000.915 6  23831974.461                    23831986.871
 119010819.483 7  92735813.15944  22646983.117                    22646993.164
 110957797.868 8  86460841.09946  21114561.203                    21114570.094
 110038663.865 8  85744539.418 7  20939674.992                    20939683.363
 110465938.808 8  86077454.299 7  21020948.078                    21020957.688
 129331681.294 6 100778050.67243  24611041.305                    24611058.316
 108999648.559 8  84934938.59846  20741919.875                    20741926.707
 121400725.904 7  94598095.084 7  23101811.156                    23101822.852
 121759593.500 7  94877740.61744  23170098.078                    23170107.887
 11  8 26  0 27 30.0000000  0  9G17G04G10G12G05G09G02G25G30
 125299986.442 6  97636481.266 6  23843815.008                    23843825.680
 119091869.498 7  92798968.97944  22662405.813                    22662416.570
 110998005.339 8  86492171.60346  21122212.203                    21122221.695
 110007598.013 8  85720332.274 7  20933763.367                    20933771.844
 110400939.742 8  86026805.734 7  21008579.094                    21008588.027
 129412683.937 6 100841169.34343  24626455.672                    24626472.121
 109014628.299 8  84946611.12746  20744770.102                    20744776.727
 121316482.674 7  94532451.027 7  23085779.609                    23085791.785
 121675442.376 7  94812168.34644  23154084.461                    23154094.539
 11  8 26  0 28  0.0000000  0  9G17G04G10G12G05G09G02G25G30
 125362389.972 6  97685107.388 6  23855689.398                    23855700.992
 119172945.781 7  92862145.27044  22677835.055                    22677844.895
 111038797.155 8  86523957.43546  21129974.977                    21129983.703
 109977075.469 8  85696548.487 7  20927955.594                    20927963.488
 110336408.888 8  85976522.010 7  20996299.242                    20996308.488
 129493651.171 6 100904260.38343  24641863.594                    24641880.621
 109029815.677 8  84958445.45146  20747659.914                    20747667.117
 121232573.881 7  94467067.598 7  23069812.625                    23069824.520
 121591677.477 7  94746897.04144  23138145.281                    23138154.848
 11  8 26  0 28 30.0000000  0  9G17G04G10G12G05G09G02G25G30
 125424980.321 6  97733879.068 6  23867600.297                    23867611.703
 119254047.259 7  92925341.19444  22693267.727                    22693278.160
 111080172.117 8  86556197.67046  21137848.109                    21137857.516
 109947097.896 8  85673189.339 7  20922250.711                    20922258.922
 110272348.552 8  85926604.922 7  20984108.797                    20984117.949
 129574580.321 6 100967321.78043  24657263.930                    24657281.117
 109045209.604 8  84970440.73246  20750589.875                    20750596.367
 121149002.370 7  94401946.975 6  23053909.344                    23053920.906
 121508301.645 7  94681928.88344  23122278.898                    23122289.059
 11  8 26  0 29  0.0000000  0  9G17G04G10G12G05G09G02G25G30
 125487758.245 6  97782796.956 6  23879546.648                    23879557.793
 119335172.639 7  92988555.74444  22708705.914                    22708715.504
 111122128.534 8  86588890.99446  21145832.320                    21145841.410
 109917666.587 8  85650255.865 7  20916649.930                    20916658.477
 110208761.040 8  85877056.271 7  20972008.734                    20972017.895
 129655467.907 6 101030350.79043  24672656.461                    24672673.402
 109060808.976 8  84982596.09446  20753557.914                    20753564.891
 121065770.795 7  94337091.237 6  23038070.922                    23038082.246
 121425317.556 7  94617265.98244  23106487.938                    23106497.066
 11  8 26  0 29 30.0000000  0  9G17G04G10G12G05G09G02G25G30
 125550724.185 6  97831861.289 6  23891528.289                    23891539.785
 119416320.400 7  93051787.72845  22724147.414                    22724157.859
 111164664.836 8  86622036.17746  21153926.531                    21153935.480
 109888783.097 8  85627749.258 7  20911153.641                    20911162.188
 110145648.258 8  85827877.530 7  20959998.898                    20960007.824
 129736311.119 6 101093345.18543  24688041.617                    24688058.066
 109076612.785 8  84994910.75946  20756565.891                    20756571.914
 120982881.742 7  94272502.423 7  23022297.984                    23022309.594
 121342727.850 7  94552910.38944  23090771.344                    23090781.246
 11  8 26  0 30  0.0000000  0  9G17G04G10G12G05G09G02G25G30
 125613878.120 6  97881072.176 6  23903547.047                    23903558.137
 119497489.497 7  93115036.34644  22739593.336                    22739603.848
 111207779.223 8  86655631.80746  21162130.750                    21162139.992
 109860448.353 8  85605670.242 7  20905761.547                    20905769.914
 110083012.533 8  85779070.537 7  20948079.250                    20948088.359
 129817106.851 6 101156302.62643  24703415.625                    24703433.504
 109092620.043 8  85007383.96046  20759611.609                    20759618.063
 120900337.878 7  94208182.582 6  23006589.523                    23006601.410
 121260535.355 7  94488864.30544  23075130.477                    23075140.473
 11  8 26  0 30 30.0000000  0  9G17G04G10G12G05G09G02G25G30
 125677220.288 6  97930429.684 6  23915599.844                    23915611.137
 119578678.418 7  93178300.40445  22755043.070                    22755053.750
 111251469.827 7  86689676.44246  21170444.938                    21170454.000
 109832663.631 8  85584019.816 7  20900474.297                    20900482.629
 110020855.803 8  85730636.769 7  20936251.609                    20936260.234
 129897852.007 6 101219220.63743  24718782.008                    24718799.539
 109108829.060 8  85020014.37046  20762696.344                    20762702.738
 120818141.658 7  94144133.635 6  22990948.891                    22990959.859
 121178742.447 7  94425129.58144  23059565.961                    23059575.363
 11  8 26  0 31  0.0000000  0  9G17G04G10G12G05G09G02G25G30
 125740750.893 7  97979934.058 6  23927689.359                    23927701.012
 119659885.938 7  93241578.95544  22770496.148                    22770506.578
 111295734.894 8  86724168.70646  21178868.469                    21178877.242
 109805430.223 8  85562798.990 8  20895291.828                    20895300.297
 109959180.061 8  85682577.810 7  20924514.883                    20924523.883
 129978543.801 6 101282097.05943  24734136.430                    24734155.059
 109125238.789 8  85032801.18246  20765818.766                    20765825.141
 120736295.655 7  94080357.604 7  22975373.820                    22975385.051
 121097351.744 7  94361708.27144  23044077.516                    23044087.609
 11  8 26  0 31 30.0000000  0  9G17G04G10G12G05G09G02G25G30
 125804470.055 7  98029585.340 6  23939814.969                    23939825.781
 119741110.708 7  93304870.93044  22785953.234                    22785963.352
 111340573.017 8  86759107.50746  21187400.906                    21187409.695
 109778749.203 8  85542008.592 7  20890214.898                    20890222.730
 109897987.135 8  85634895.055 7  20912870.000                    20912879.129
 130059179.301 6 101344929.64043  24749480.813                    24749499.551
 109141848.105 8  85045743.51946  20768979.422                    20768985.758
 120654802.488 7  94016856.519 7  22959866.398                    22959877.680
 121016366.009 7  94298602.51144  23028667.125                    23028676.559
 11  8 26  0 32  0.0000000  0  9G17G04G10G12G05G09G02G25G30
 125868378.274 6  98079383.922 6  23951975.703                    23951987.648
 119822351.623 7  93368175.51244  22801412.727                    22801423.121
 111385982.480 8  86794491.50446  21196042.102                    21196051.277
 109752622.144 8  85521649.847 7  20885243.219                    20885251.234
 109837279.259 8  85587590.270 7  20901317.344                    20901326.438
 130139755.495 6 101407715.98543  24764815.070                    24764832.797
 109158656.004 8  85058840.59246  20772178.211                    20772184.211
 120573664.776 7  93953632.413 7  22944426.188                    22944437.461
 120935787.746 7  94235814.26444  23013333.016                    23013343.141
 11  8 26  0 32 30.0000000  0  9G17G04G10G12G05G09G02G25G30
 125932475.873 6  98129330.098 6  23964173.305                    23964184.418
 119903607.259 7  93431491.55044  22816875.414                    22816885.563
 111431961.337 8  86830319.18446  21204791.484                    21204800.383
 109727050.522 8  85501723.922 7  20880376.953                    20880385.215
 109777058.380 8  85540664.968 7  20889858.352                    20889867.020
 130220269.289 6 101470453.74343  24780135.914                    24780154.289
 109175661.050 8  85072091.28246  20775413.938                    20775420.500
 120492885.042 7  93890687.246 7  22929054.438                    22929065.984
 120855619.562 7  94173345.57544  22998077.789                    22998087.148
 11  8 26  0 33  0.0000000  0  9G17G04G10G12G05G09G02G25G30
 125996762.562 6  98179423.601 6  23976406.906                    23976417.969
 119984876.404 7  93494818.12944  22832340.117                    22832350.258
 111478507.880 8  86866589.22045  21213648.539                    21213657.617
 109702034.920 8  85482231.249 7  20875616.836                    20875624.898
 109717326.600 8  85494120.777 7  20878491.484                    20878500.316
 130300718.153 6 101533140.88843  24795445.273                    24795463.203
 109192862.245 8  85085494.82146  20778687.063                    20778693.445
 120412465.959 7  93828023.109 7  22913750.477                    22913762.598
 120775864.281 7  94111198.63444  22982900.406                    22982910.195
 11  8 26  0 33 30.0000000  0  9G17G04G10G12G05G09G02G25G30
 126061238.718 6  98229664.742 6  23988676.172                    23988688.160
 120066157.893 7  93558154.30544  22847807.688                    22847817.777
 111525620.068 8  86903300.02146  21222613.984                    21222622.816
 109677576.419 8  85463172.681 7  20870962.359                    20870970.461
 109658085.946 8  85447959.285 7  20867218.477                    20867227.301
 130381098.705 6 101595774.79443  24810741.375                    24810759.605
 109210258.218 8  85099050.14046  20781997.344                    20782003.805
 120332409.810 7  93765641.779 7  22898516.477                    22898527.875
 120696524.092 7  94049375.14244  22967802.758                    22967812.402
 11  8 26  0 34  0.0000000  0  9G17G04G10G12G05G09G02G25G30
 126125904.564 6  98280053.694 6  24000981.867                    24000992.855
 120147450.238 7  93621498.94444  22863277.234                    22863287.113
 111573296.287 8  86940450.32346  21231686.578                    21231695.551
 109653676.385 8  85444549.278 7  20866414.523                    20866422.926
 109599337.807 8  85402181.562 7  20856038.492                    20856047.750
 130461408.231 6 101658353.33443  24826024.523                    24826042.867
 109227847.819 8  85112756.33346  20785344.492                    20785351.172
 120252719.268 7  93703545.330 7  22883351.695                    22883363.391
 120617601.751 7  93987877.27844  22952783.789                    22952794.078
 11  8 26  0 34 30.0000000  0  9G17G04G10G12G05G09G02G25G30
 126190760.606 6  98330590.846 6  24013323.703                    24013334.691
 120228752.540 7  93684851.33444  22878748.047                    22878758.184
 111621534.911 8  86978038.85746  21240865.742                    21240874.902
 109630335.997 8  85426361.963 7  20861972.953                    20861981.230
 109541084.756 8  85356789.629 8  20844953.820                    20844962.555
 130541643.703 6 101720874.21443  24841293.063                    24841310.941
 109245630.185 8  85126612.73246  20788728.344                    20788734.809
 120173397.037 7  93641735.883 7  22868257.125                    22868268.785
 120539099.977 7  93926707.13644  22937846.156                    22937856.137
 11  8 26  0 35  0.0000000  0  9G17G04G10G12G05G09G02G25G30
 126255806.643 6  98381276.039 6  24025701.117                    24025713.211
 120310063.481 7  93748210.47344  22894221.516                    22894231.332
 111670333.886 8  87016064.02845  21250152.031                    21250160.844
 109607556.596 8  85408611.789 7  20857638.000                    20857646.414
 109483328.422 8  85311784.748 7  20833963.219                    20833971.848
 130621802.260 5 101783335.09743  24856545.625                    24856564.816
 109263604.047 8  85140618.34946  20792148.531                    20792155.406
 120094445.675 7  93580215.416 7  22853233.516                    22853245.066
 120461021.267 7  93865866.66044  22922987.805                    22922997.508
 11  8 26  0 35 30.0000000  0  8G17G04G10G12G05G02G25G30
 126321044.323 6  98432110.551 6  24038115.375                    24038126.973
 120391383.322 7  93811576.52744  22909695.531                    22909706.027
 111719692.792 8  87054525.51345  21259544.883                    21259553.688
 109585340.069 8  85391300.212 7  20853410.234                    20853418.688
 109426071.990 8  85267169.401 7  20823067.203                    20823075.934
 109281769.290 8  85154773.09746  20795605.227                    20795611.988
 120015869.044 7  93518986.952 7  22838280.688                    22838292.426
 120383369.552 7  93805358.92044  22908211.531                    22908221.168
 11  8 26  0 36  0.0000000  0  8G17G04G10G12G05G02G25G30
 126386473.179 6  98483094.015 6  24050565.953                    24050578.277
 120472710.275 7  93874948.13344  22925172.188                    22925181.836
 111769609.001 7  87093421.25146  21269043.602                    21269052.496
 109563686.888 8  85374427.611 7  20849289.883                    20849298.035
 109369316.776 8  85222944.616 8  20812267.250                    20812276.168
 109300124.740 8  85169076.05646  20799098.438                    20799104.883
 119937668.917 7  93458051.853 7  22823399.531                    22823411.148
 120306146.626 7  93745185.28944  22893516.203                    22893525.520
 11  8 26  0 36 30.0000000  0  8G17G04G10G12G05G02G25G30
 126452092.520 6  98534225.911 6  24063053.234                    24063064.820
 120554041.748 7  93938323.27744  22940648.938                    22940659.070
 111820079.323 8  87132748.77746  21278647.656                    21278657.051
 109542597.217 8  85357994.094 8  20845276.617                    20845284.660
 109313063.752 8  85179111.143 8  20801562.453                    20801571.438
 109318668.070 8  85183525.40946  20802627.078                    20802633.547
 119859846.835 8  93397411.312 7  22808590.563                    22808602.199
 120229354.012 7  93685346.97344  22878903.117                    22878912.715
 11  8 26  0 37  0.0000000  0  8G17G04G10G12G05G02G25G30
 126517902.182 6  98585506.099 6  24075576.102                    24075588.355
 120635376.865 7  94001701.24544  22956126.742                    22956136.770
 111871101.681 7  87172506.45046  21288357.305                    21288366.043
 109522071.867 8  85342000.313 7  20841370.914                    20841379.000
 109257314.270 8  85135670.036 7  20790953.664                    20790962.641
 109337397.568 8  85198119.82946  20806191.367                    20806197.539
 119782405.018 7  93337067.067 7  22793853.789                    22793865.285
 120152993.894 7  93625845.67644  22864372.063                    22864381.773
 11  8 26  0 37 30.0000000  0  8G17G04G10G12G05G02G25G30
 126583902.432 6  98636934.803 6  24088135.258                    24088147.387
 120716714.423 7  94065081.12544  22971604.430                    22971614.867
 111922674.631 8  87212693.15546  21298171.117                    21298179.934
 109502112.229 8  85326447.351 8  20837572.617                    20837581.355
 109202070.625 8  85092623.092 8  20780441.281                    20780450.184
 109356312.483 8  85212858.72846  20809790.516                    20809797.203
 119705346.424 7  93277021.429 7  22779190.125                    22779201.441
 120077069.307 7  93566683.72844  22849923.641                    22849933.039
 11  8 26  0 38  0.0000000  0  8G17G04G10G12G05G02G25G30
 126650093.490 6  98688512.175 6  24100731.906                    24100743.902
 120798053.644 7  94128462.29344  22987082.680                    22987093.102
 111974796.313 8  87253307.44945  21308089.398                    21308098.754
 109482719.211 8  85311335.911 8  20833882.227                    20833890.527
 109147334.622 8  85049971.709 7  20770025.180                    20770034.012
 109375412.029 8  85227741.48446  20813425.141                    20813431.602
 119628673.678 7  93217276.466 7  22764599.680                    22764611.043
 120001582.775 7  93507863.13844  22835559.367                    22835569.008
 11  8 26  0 38 30.0000000  0  8G17G04G10G12G05G02G25G30
 126716475.661 6  98740238.522 6  24113363.672                    24113376.160
 120879392.799 7  94191843.41544  23002561.359                    23002571.430
 112027464.107 8  87294347.27546  21318111.844                    21318120.898
 109463892.840 8  85296666.014 7  20830299.680                    20830308.105
 109093107.562 8  85007716.904 8  20759706.289                    20759715.195
 109394694.345 8  85242766.67146  20817094.313                    20817100.723
 119552388.662 7  93157833.621 7  22750083.102                    22750094.641
 119926536.153 7  93449385.34544  22821277.961                    22821287.773
 11  8 26  0 39  0.0000000  0  8G17G04G10G12G05G02G25G30
 126783048.891 6  98792113.719 6  24126032.625                    24126044.418
 120960731.576 7  94255224.24544  23018040.234                    23018050.086
 112080676.834 8  87335811.72945  21328237.852                    21328247.027
 109445635.692 8  85282439.658 7  20826825.555                    20826833.840
 109039392.095 8  84965860.749 7  20749484.406                    20749493.352
 109414159.422 8  85257934.27646  20820798.508                    20820804.742
 119476494.833 7  93098695.594 7  22735641.023                    22735652.180
 119851932.913 7  93391253.02244  22807081.992                    22807091.148
 11  8 26  0 39 30.0000000  0  8G17G04G10G12G05G02G25G30
 126849813.286 7  98844137.889 6  24138737.234                    24138749.027
 121042068.272 7  94318603.46544  23033517.273                    23033527.504
 112134431.641 8  87377698.58845  21338467.164                    21338476.027
 109427947.383 8  85268656.567 7  20823459.781                    20823467.902
 108986189.158 8  84924403.970 8  20739360.148                    20739369.016
 109433805.410 8  85273242.83946  20824536.875                    20824543.152
 119400994.051 7  93039863.822 7  22721273.523                    22721284.941
 119777774.869 7  93333467.59344  22792969.586                    22792979.277
 11  8 26  0 40  0.0000000  0  8G17G04G10G12G05G02G25G30
 126916769.008 7  98896311.142 6  24151478.789                    24151490.039
 121123402.403 7  94381980.65944  23048994.898                    23049005.316
 112188727.248 8  87420006.84445  21348799.391                    21348807.777
 109410829.615 8  85255318.058 7  20820202.141                    20820210.742
 108933500.971 8  84883348.285 7  20729334.117                    20729342.762
 109453631.586 8  85288691.81446  20828309.836                    20828316.000
 119325889.146 7  92981340.523 7  22706981.594                    22706993.266
 119704064.859 6  93276031.27044  22778942.977                    22778952.715
 11  8 26  0 40 30.0000000  0  8G17G04G10G12G05G02G25G30
 126983916.312 7  98948633.677 6  24164256.305                    24164267.863
 121204732.354 7  94445354.61944  23064471.398                    23064481.891
 112243561.156 8  87462734.55545  21359233.602                    21359242.711
 109394282.618 8  85242424.296 7  20817053.500                    20817061.387
 108881328.963 8  84842694.825 7  20719405.938                    20719414.277
 109473636.611 8  85304280.16746  20832116.664                    20832122.785
 119251182.329 7  92923127.416 7  22692765.563                    22692776.852
 119630804.999 7  93218945.70544  22765001.805                    22765011.738
 11  8 26  0 41  0.0000000  0  8G17G04G10G12G05G02G25G30
 127051255.168 6  99001105.505 6  24177070.195                    24177082.457
 121286057.207 7  94508724.60344  23079947.148                    23079957.617
 112298931.188 8  87505880.02545  21369770.383                    21369778.879
 109378307.246 8  85229975.970 7  20814012.945                    20814021.430
 108829675.064 8  84802445.078 7  20709576.453                    20709585.109
 109493819.319 8  85320006.95446  20835957.234                    20835963.691
 119176875.994 7  92865226.384 7  22678625.414                    22678636.711
 119557997.707 7  93162212.78444  22751147.547                    22751156.844
 11  8 26  0 41 30.0000000  0  8G17G04G10G12G05G02G25G30
 127118785.666 6  99053726.642 6  24189921.070                    24189932.488
 121367375.917 7  94572089.80044  23095421.484                    23095431.977
 112354835.627 8  87549441.91646  21380408.617                    21380417.355
 109362904.638 8  85217973.942 8  20811082.383                    20811090.516
 108778540.741 8  84762600.197 8  20699845.922                    20699854.406
 109514178.702 8  85335871.42146  20839831.352                    20839837.914
 119102972.730 7  92807639.436 7  22664561.836                    22664573.660
 119485645.491 7  93105834.47644  22737379.086                    22737388.324
 11  8 26  0 42  0.0000000  0  8G17G04G10G12G05G02G25G30
 127186507.899 6  99106497.201 6  24202808.828                    24202819.746
 121448687.262 7  94635449.26144  23110894.609                    23110904.977
 112411271.852 8  87593418.18845  21391147.922                    21391157.125
 109348075.352 8  85206418.667 7  20808260.508                    20808268.512
 108727927.503 8  84723161.361 8  20690214.320                    20690223.223
 109534713.719 8  85351872.74446  20843739.211                    20843745.715
 119029474.934 8  92750368.422 7  22650575.898                    22650587.359
 119413750.852 7  93049812.71444  22723698.352                    22723707.395
 11  8 26  0 42 30.0000000  0  8G17G04G10G12G05G02G25G30
 127254421.733 6  99159417.079 6  24215731.727                    24215743.672
 121529990.451 7  94698802.38144  23126365.547                    23126376.582
 112468237.971 8  87637807.37345  21401988.633                    21401997.180
 109333819.623 8  85195310.322 7  20805547.336                    20805556.012
 108677836.952 8  84684129.815 8  20680682.227                    20680691.230
 109555423.158 8  85368009.99146  20847679.945                    20847685.977
 118956385.116 7  92693415.333 7  22636667.281                    22636678.777
 119342316.138 7  92994149.34144  22710104.234                    22710114.367
 11  8 26  0 43  0.0000000  0  8G17G04G10G12G05G02G25G30
 127322527.490 6  99212486.465 6  24228691.859                    24228703.977
 121611284.232 7  94762148.13644  23141836.234                    23141846.219
 112525731.473 7  87682607.49145  21412929.070                    21412938.039
 109320138.512 8  85184649.733 8  20802944.078                    20802952.414
 108628270.614 8  84645506.748 8  20671250.477                    20671259.027
 109576306.060 8  85384282.39246  20851653.867                    20851660.055
 118883705.531 7  92636781.909 7  22622836.852                    22622848.383
 119271343.505 7  92938846.01644  22696599.086                    22696608.129
 11  8 26  0 43 30.0000000  0  8G17G04G10G12G05G02G25G30
 127390825.016 6  99265705.297 6  24241688.453                    24241700.613
 121692567.671 6  94825485.87344  23157303.313                    23157313.832
 112583750.269 7  87727816.93645  21423969.586                    21423978.520
 109307032.863 8  85174437.553 8  20800450.211                    20800458.723
 108579230.282 8  84607293.557 8  20661918.102                    20661926.879
 109597361.048 8  85400688.89246  20855660.500                    20855666.652
 118811438.547 7  92580469.980 7  22609085.055                    22609096.617
 119200835.377 7  92883904.63844  22683181.477                    22683190.313
 11  8 26  0 44  0.0000000  0  8G17G04G10G12G05G02G25G30
 127459314.614 6  99319073.796 6  24254721.828                    24254733.047
 121773839.789 6  94888814.77944  23172769.227                    23172780.316
 112642292.439 7  87773434.20345  21435109.797                    21435119.027
 109294503.330 8  85164674.307 8  20798065.516                    20798074.098
 108530717.303 8  84569491.285 8  20652686.531                    20652695.230
 109618587.290 8  85417228.83046  20859699.492                    20859706.184
 118739586.669 7  92524481.508 7  22595411.727                    22595423.387
 119130794.165 7  92829327.09445  22669853.742                    22669862.480
 11  8 26  0 44 30.0000000  0  8G17G04G10G12G05G02G25G30
 127527996.170 6  99372591.899 6  24267790.813                    24267803.020
 121855099.737 6  94952134.20944  23188232.477                    23188242.766
 112701355.848 8  87819457.63745  21446349.367                    21446358.094
 109282550.759 8  85155360.637 7  20795791.250                    20795799.609
 108482733.662 8  84532101.486 8  20643555.367                    20643563.590
 109639983.901 8  85433901.53846  20863771.625                    20863777.863
 118668152.444 7  92468818.478 7  22581818.703                    22581830.117
 119061222.283 7  92775115.25845  22656614.125                    22656623.480
 11  8 26  0 45  0.0000000  0  8G17G04G10G12G05G02G25G30
 127596869.600 6  99426259.502 6  24280897.523                    24280908.895
 121936346.274 7  95015443.19544  23203693.711                    23203703.609
 112760937.881 8  87865885.18545  21457687.367                    21457696.176
 109271175.240 8  85146496.624 7  20793626.727                    20793635.047
 108435280.461 8  84495125.024 8  20634525.367                    20634533.738
 109661549.292 8  85450705.75046  20867874.656                    20867881.277
 118597137.931 7  92413482.522 7  22568304.750                    22568316.285
 118992121.879 7  92721270.80644  22643464.789                    22643474.484
 11  8 26  0 45 30.0000000  0  8G17G04G10G12G05G02G25G30
 127665935.085 6  99480076.743 6  24294040.359                    24294052.234
 122017578.492 7  95078741.01844  23219150.516                    23219161.578
 112821036.764 8  87912715.48045  21469123.570                    21469132.582
 109260377.466 8  85138082.799 7  20791571.953                    20791580.375
 108388359.157 8  84458563.017 8  20625596.445                    20625604.914
 109683282.887 8  85467641.04046  20872010.828                    20872017.184
 118526545.858 7  92358475.719 7  22554871.344                    22554882.863
 118923495.534 7  92667795.75145  22630405.289                    22630414.684
 11  8 26  0 46  0.0000000  0  8G17G04G10G12G05G02G25G30
 127735192.155 6  99534043.291 6  24307219.734                    24307230.844
 122098795.206 6  95142026.72544  23234606.438                    23234616.414
 112881649.229 8  87959945.97045  21480657.844                    21480666.563
 109250157.765 8  85130119.407 8  20789627.195                    20789635.691
 108341971.036 8  84422416.477 8  20616769.266                    20616777.539
 109705182.813 8  85484705.92646  20876178.367                    20876184.668
 118456377.970 7  92303799.457 7  22541519.102                    22541530.617
 118855345.008 7  92614691.43845  22617436.922                    22617446.406
 11  8 26  0 46 30.0000000  0  8G17G04G10G12G05G02G25G30
 127804641.479 6  99588159.630 6  24320435.180                    24320446.980
 122179995.830 7  95205299.93244  23250058.313                    23250068.418
 112942773.864 7  88007575.54945  21492289.734                    21492298.641
 109240517.285 8  85122607.356 7  20787792.531                    20787801.090
 108296117.790 8  84386686.731 8  20608043.133                    20608051.914
 109727248.989 8  85501900.36446  20880377.172                    20880383.742
 118386637.248 7  92249456.051 7  22528248.094                    22528259.102
 118787673.049 7  92561960.06345  22604558.930                    22604569.418
 11  8 26  0 47  0.0000000  0  8G17G04G10G12G05G02G25G30
 127874282.945 6  99642425.725 6  24333687.570                    24333699.398
 122261179.260 7  95268559.73044  23265506.297                    23265516.867
 113004408.122 7  88055602.23245  21504018.344                    21504027.250
 109231456.419 8  85115546.957 8  20786068.281                    20786076.570
 108250800.879 8  84351374.901 8  20599419.813                    20599428.449
 109749480.080 8  85519223.30646  20884607.984                    20884614.285
 118317325.756 7  92195447.127 7  22515058.320                    22515069.898
 118720481.768 7  92509603.21545  22591773.172                    22591783.012
 11  8 26  0 47 30.0000000  0  8G17G04G10G12G05G02G25G30
 127944116.169 6  99696841.246 5  24346975.742                    24346987.977
 122342344.453 7  95331805.31644  23280951.875                    23280962.117
 113066549.817 8  88104024.32845  21515843.336                    21515852.688
 109222975.185 8  85108938.206 8  20784454.391                    20784462.641
 108206021.563 8  84316481.981 8  20590898.484                    20590906.934
 109771874.785 8  85536673.72246  20888869.227                    20888875.434
 118248445.857 7  92141774.493 7  22501950.844                    22501962.129
 118653773.371 7  92457622.64345  22579079.117                    22579088.824
 11  8 26  0 48  0.0000000  0  9G17G04G10G12G05G29G02G25G30
 128014141.491 6  99751406.426 5  24360301.883                    24360313.219
 122423490.952 7  95395036.33344  23296393.836                    23296404.117
 113129196.773 8  88152840.13545  21527764.820                    21527773.723
 109215074.382 8  85102781.743 8  20782950.844                    20782959.199
 108161781.433 8  84282009.192 8  20582479.820                    20582488.527
 129599760.13316                  24662023.445
 109794432.621 8  85554251.26746  20893161.633                    20893168.195
 118180000.082 8  92088440.165 7  22488926.305                    22488937.684
 118587550.323 7  92406020.26745  22566477.000                    22566486.777
 11  8 26  0 48 30.0000000  0  9G17G04G10G12G05G29G02G25G30
 128084358.832 6  99806121.233 5  24373663.555                    24373675.082
 122504617.570 6  95458251.84844  23311831.945                    23311841.695
 113192346.464 7  88202047.68145  21539781.570                    21539790.809
 109207754.680 8  85097078.084 7  20781558.094                    20781566.762
 108118081.753 8  84247957.542 8  20574164.172                    20574172.641
 129519862.572 6 100924621.75816  24646819.266                    24646830.250
 109817152.261 8  85571954.87946  20897485.445                    20897491.621
 118111990.747 7  92035445.933 7  22475984.336                    22475994.961
 118521814.819 7  92354797.78545  22553968.258                    22553977.758
 11  8 26  0 49  0.0000000  0  9G17G04G10G12G05G29G02G25G30
 128154768.339 6  99860985.738 6  24387061.875                    24387073.879
 122585723.621 6  95521451.33644  23327265.844                    23327275.934
 113255996.568 7  88251645.16245  21551894.078                    21551902.777
 109201016.415 8  85091827.481 7  20780275.789                    20780283.801
 108074923.890 8  84214328.083 8  20565951.555                    20565960.199
 129439883.568 6 100862300.564 6  24631599.742                    24631610.113
 109840032.530 8  85589783.66946  20901839.352                    20901845.738
 118044420.038 7  91982793.479 7  22463125.953                    22463137.266
 118456569.016 7  92303956.89544  22541552.188                    22541561.781
 11  8 26  0 49 30.0000000  0  9G17G04G10G12G05G29G02G25G30
 128225369.585 6  99915999.680 6  24400497.078                    24400508.340
 122666807.795 6  95584633.75444  23342695.797                    23342705.438
 113320144.418 8  88301630.50045  21564100.859                    21564109.613
 109194859.921 8  85087030.207 7  20779104.188                    20779112.805
 108032309.046 8  84181121.754 8  20557842.055                    20557850.715
 129359823.481 6 100799916.167 6  24616365.336                    24616375.582
 109863072.473 8  85607736.86046  20906223.813                    20906230.266
 117977290.138 7  91930484.519 7  22450351.242                    22450362.996
 118391814.955 7  92253499.17744  22529230.281                    22529239.672
 11  8 26  0 50  0.0000000  0  9G17G04G10G12G05G29G02G25G30
 128296162.482 6  99971162.974 6  24413968.750                    24413980.305
 122747869.213 6  95647798.47244  23358120.797                    23358131.035
 113384787.904 8  88352002.04045  21576402.133                    21576410.926
 109189285.434 8  85082686.441 7  20778043.492                    20778051.789
 107990238.221 8  84148339.341 8  20549836.383                    20549844.773
 129279682.709 6 100737468.898 6  24601114.047                    24601125.043
 109886270.820 8  85625813.49146  20910638.242                    20910644.281
 117910603.152 7  91878520.709 7  22437661.250                    22437672.664
 118327554.748 7  92203426.29745  22517001.805                    22517011.617
 11  8 26  0 50 30.0000000  0  9G17G04G10G12G05G29G02G25G30
 128367146.991 6 100026475.551 6  24427475.938                    24427488.711
 122828906.912 6  95710944.67244  23373542.367                    23373552.367
 113449924.356 8  88402757.72645  21588796.859                    21588806.020
 109184293.040 7  85078796.248 7  20777093.422                    20777101.379
 107948712.771 8  84115981.890 8  20541934.023                    20541942.699
 129199462.018 6 100674959.345 6  24585848.875                    24585859.387
 109909626.829 7  85644012.97146  20915082.445                    20915089.215
 117844361.396 7  91826903.828 7  22425055.859                    22425067.289
 118263790.526 7  92153739.91144  22504867.555                    22504877.324
 11  8 26  0 51  0.0000000  0  9G17G04G10G12G05G29G02G25G30
 128438322.821 6 100081937.242 6  24441021.188                    24441032.508
 122909919.915 6  95774071.63944  23388958.680                    23388968.219
 113515550.939 8  88453895.32245  21601285.234                    21601294.445
 109179882.676 8  85075359.592 7  20776254.133                    20776262.660
 107907733.732 8  84084050.209 8  20534136.320                    20534144.969
 129119161.856 7 100612387.891 6  24570567.922                    24570579.105
 109933138.935 8  85662334.08146  20919557.063                    20919562.934
 117778566.777 8  91775635.367 7  22412535.320                    22412546.586
 118200524.270 7  92104441.56344  22492828.711                    22492838.230
 11  8 26  0 51 30.0000000  0  9G17G04G10G12G05G29G02G25G30
 128509690.049 7 100137548.079 6  24454601.469                    24454613.238
 122990907.626 6  95837178.89944  23404370.023                    23404380.359
 113581665.707 8  88505413.33145  21613866.586                    21613875.504
 109176055.057 8  85072377.016 7  20775525.789                    20775533.863
 107867302.612 8  84052545.488 8  20526442.078                    20526451.164
 129038782.757 6 100549754.884 6  24555272.313                    24555283.180
 109956806.509 8  85680776.34046  20924060.555                    20924066.934
 117713221.807 7  91724717.279 7  22400100.750                    22400111.977
 118137758.098 7  92055532.90144  22480884.461                    22480894.246
 11  8 26  0 52  0.0000000  0  9G17G04G10G12G05G29G02G25G30
 128581248.676 7 100193308.039 6  24468219.461                    24468231.078
 123071869.159 6  95900265.76144  23419776.391                    23419786.684
 113648266.401 8  88557309.97845  21626540.438                    21626549.258
 109172810.451 8  85069848.732 7  20774908.453                    20774916.434
 107827420.749 8  84021468.752 8  20518852.883                    20518861.938
 128958325.507 6 100487060.985 6  24539962.500                    24539971.996
 109980628.763 8  85699339.12046  20928593.828                    20928599.672
 117648328.835 7  91674151.406 7  22387752.094                    22387763.469
 118075494.457 7  92007015.80745  22469036.086                    22469045.336
 11  8 26  0 52 30.0000000  0  9G17G04G10G12G05G29G02G25G30
 128652998.495 7 100249216.964 6  24481872.695                    24481884.250
 123152803.629 6  95963331.54044  23435177.719                    23435188.023
 113715350.019 8  88609582.93745  21639305.875                    21639315.270
 109170148.958 7  85067774.832 7  20774401.984                    20774410.238
 107788088.926 8  83990820.620 8  20511368.164                    20511376.949
 128877790.654 6 100424306.625 6  24524636.328                    24524647.234
 110004604.337 7  85718021.36746  20933156.250                    20933162.664
 117583889.797 7  91623939.244 7  22375489.641                    22375500.715
 118013735.059 7  91958891.65745  22457283.883                    22457293.477
 11  8 26  0 53  0.0000000  0  9G17G04G10G12G05G29G02G25G30
 128724939.240 6 100305274.713 6  24495561.469                    24495573.750
 123233710.315 6  96026375.64344  23450573.734                    23450584.383
 113782914.248 7  88662230.39845  21652162.969                    21652171.652
 109168071.110 8  85066155.717 8  20774006.625                    20774014.848
 107749308.420 8  83960602.075 8  20503988.133                    20503997.234
 128797179.053 6 100361492.475 6  24509296.750                    24509307.012
 110028732.397 7  85736822.43746  20937747.672                    20937753.930
 117519907.024 7  91574082.612 7  22363313.750                    22363325.051
 117952482.097 7  91911162.14045  22445627.430                    22445637.020
 11  8 26  0 53 30.0000000  0  8G04G10G12G05G29G02G25G30
 123314589.425 6  96089398.28744  23465964.266                    23465975.238
 113850957.711 7  88715251.28045  21665111.523                    21665120.609
 109166577.772 8  85064992.066 7  20773722.375                    20773730.633
 107711081.251 8  83930814.707 8  20496714.211                    20496722.609
 128716492.300 6 100298619.732 5  24493942.047                    24493952.508
 110053013.102 8  85755742.45846  20942368.273                    20942374.359
 117456383.687 7  91524583.982 7  22351225.578                    22351237.082
 117891738.801 7  91863829.76245  22434068.078                    22434077.855
 11  8 26  0 54  0.0000000  0  8G04G10G12G05G29G02G25G30
 123395439.418 6  96152398.23744  23481349.875                    23481360.461
 113919476.920 8  88768642.88145  21678149.945                    21678159.262
 109165668.752 8  85064283.727 7  20773549.320                    20773557.793
 107673407.795 8  83901458.810 8  20489545.031                    20489553.813
 128635730.254 6 100235688.358 5  24478573.969                    24478583.629
 110077444.583 8  85774779.97446  20947017.117                    20947023.980
 117393321.175 7  91475444.409 7  22339225.328                    22339236.516
 117831506.272 7  91816895.39745  22422606.852                    22422615.773
 11  8 26  0 54 30.0000000  0  8G04G10G12G05G29G02G25G30
 123476259.018 6  96215374.48744  23496728.891                    23496740.234
 113988469.378 8  88822403.24245  21691278.727                    21691287.980
 109165343.497 8  85064030.271 7  20773487.523                    20773495.762
 107636288.823 8  83872534.967 8  20482481.672                    20482490.410
 128554893.502 6 100172698.763 5  24463191.695                    24463201.285
 110102025.759 8  85793934.12546  20951695.023                    20951701.074
 117330721.451 7  91426665.455 7  22327312.883                    22327323.945
 117771786.351 7  91770360.46445  22411241.891                    22411251.527
 11  8 26  0 55  0.0000000  0  8G04G10G12G05G29G02G25G30
 123557046.907 6  96278326.06544  23512102.836                    23512113.332
 114057931.818 7  88876529.81845  21704496.766                    21704505.965
 109165601.324 8  85064231.172 7  20773536.414                    20773544.754
 107599724.851 8  83844043.599 8  20475523.477                    20475532.082
 128473981.718 6 100109650.696 6  24447793.336                    24447804.500
 110126754.477 8  85813203.25146  20956400.750                    20956407.059
 117268585.766 7  91378248.085 7  22315488.758                    22315500.289
 117712580.143 7  91724225.82645  22399975.484                    22399985.176
 11  8 26  0 55 30.0000000  0  8G04G10G12G05G29G02G25G30
 123637802.843 6  96341252.74444  23527469.867                    23527480.523
 114127862.223 8  88931021.05845  21717804.492                    21717813.180
 109166442.999 8  85064887.023 7  20773696.891                    20773705.234
 107563717.176 8  83815985.708 8  20468671.578                    20468680.012
 128392996.191 6 100046545.180 6  24432382.719                    24432392.914
 110151630.613 8  85832587.24546  20961134.734                    20961140.824
 117206916.827 7  91330194.398 7  22303753.414                    22303765.059
 117653890.261 7  91678493.52245  22388807.320                    22388816.422
 11  8 26  0 56  0.0000000  0  8G04G10G12G05G29G02G25G30
 123718526.125 7  96404153.97144  23542831.211                    23542841.699
 114198257.937 8  88985874.87745  21731200.773                    21731209.344
 109167868.502 8  85065997.812 7  20773967.977                    20773976.609
 107528267.074 8  83788362.296 8  20461925.852                    20461934.258
 128311937.818 6  99983382.928 6  24416957.922                    24416968.090
 110176653.450 8  85852085.56046  20965896.234                    20965902.590
 117145716.898 7  91282506.165 7  22292107.398                    22292118.512
 117595718.678 7  91633165.08345  22377737.188                    22377746.617
 11  8 26  0 56 30.0000000  0  8G04G10G12G05G29G02G25G30
 123799216.154 7  96467029.31243  23558186.266                    23558196.594
 114269116.801 7  89041089.58445  21744684.250                    21744692.895
 109169878.488 8  85067564.038 8  20774350.414                    20774358.949
 107493375.699 8  83761174.251 8  20455286.094                    20455294.414
 128230807.413 6  99920164.546 5  24401518.570                    24401529.555
 110201822.215 8  85871697.58346  20970685.734                    20970692.074
 117084988.254 8  91235185.168 7  22280551.500                    22280562.602
 117538067.626 7  91588242.24945  22366766.828                    22366775.992
 11  8 26  0 57  0.0000000  0  8G04G10G12G05G29G02G25G30
 123879871.973 7  96529877.98844  23573534.539                    23573545.051
 114340435.861 7  89096662.88345  21758255.852                    21758264.848
 109172472.514 8  85069585.362 7  20774844.281                    20774852.563
 107459043.568 8  83734421.977 8  20448753.000                    20448761.215
 128149605.504 6  99856890.419 6  24386066.930                    24386077.031
 110227135.503 8  85891422.21746  20975502.492                    20975508.973
 117024732.623 7  91188232.741 7  22269085.273                    22269096.480
 117480938.743 7  91543726.29845  22355895.609                    22355904.938
 11  8 26  0 57 30.0000000  0  8G04G10G12G05G29G02G25G30
 123960492.891 7  96592699.46944  23588876.148                    23588886.953
 114412212.673 7  89152592.87445  21771914.602                    21771923.211
 109175650.514 8  85072061.732 7  20775448.891                    20775457.445
 107425271.897 8  83708106.429 8  20442326.164                    20442334.336
 128068332.956 6  99793561.278 6  24370601.297                    24370611.445
 110252592.680 8  85911258.98546  20980347.250                    20980353.039
 116964952.336 8  91141650.698 7  22257709.289                    22257720.598
 117424334.102 7  91499618.83545  22345124.172                    22345133.145
 11  8 26  0 58  0.0000000  0  8G04G10G12G05G29G02G25G30
 124041077.847 7  96655492.92743  23604211.078                    23604222.066
 114484444.260 7  89208877.22645  21785659.563                    21785668.566
 109179411.868 8  85074992.668 8  20776164.727                    20776172.930
 107392060.865 8  83682227.743 8  20436006.500                    20436014.777
 127986990.170 6  99730177.369 6  24355121.781                    24355132.215
 110278192.020 8  85931206.53246  20985218.258                    20985224.762
 116905648.793 8  91095440.153 7  22246424.484                    22246435.828
 117368254.895 7  91455920.80045  22334452.313                    22334461.684
 11  8 26  0 58 30.0000000  0  8G04G10G12G05G29G02G25G30
 124121626.613 7  96718258.17943  23619539.109                    23619549.375
 114557128.462 7  89265514.27045  21799491.344                    21799499.938
 109183756.959 8  85078378.457 8  20776991.430                    20777000.188
 107359411.972 8  83656787.088 8  20429793.617                    20429801.746
 127905578.234 6  99666739.603 6  24339629.570                    24339639.617
 110303933.433 8  85951264.78446  20990116.938                    20990123.023
 116846824.616 8  91049603.133 7  22235230.852                    22235241.160
 117312703.699 7  91412634.19445  22323881.492                    22323891.133
 11  8 26  0 59  0.0000000  0  8G04G10G12G05G29G02G25G30
 124202138.458 7  96780994.68144  23634859.680                    23634870.273
 114630262.614 7  89322501.92045  21813408.133                    21813416.813
 109188686.196 8  85082219.429 8  20777929.273                    20777937.898
 107327326.347 8  83631785.344 8  20423687.898                    20423696.094
 127824097.831 6  99603248.472 6  24324124.555                    24324134.879
 110329816.084 8  85971433.09946  20995042.234                    20995048.328
 116788481.983 7  91004141.347 7  22224128.375                    22224139.266
 117257682.389 7  91369760.48545  22313411.250                    22313420.574
 11  8 26  0 59 30.0000000  0  8G04G10G12G05G29G02G25G30
 124282611.949 7  96843701.25844  23650173.289                    23650184.070
 114703843.478 7  89379837.64845  21827409.719                    21827418.977
 109194198.261 8  85086514.548 8  20778978.602                    20778987.270
 107295803.978 8  83607222.497 8  20417689.219                    20417697.375
 127742548.965 6  99539703.977 6  24308605.969                    24308615.895
 110355837.845 8  85991709.81146  20999993.813                    20999999.863
 116730621.978 8  90959055.636 7  22213118.031                    22213129.012
 117203191.934 7  91327300.39545  22303042.055                    22303050.883
 11  8 26  1  0  0.0000000  0  8G04G10G12G05G29G02G25G30
 124363047.352 7  96906378.18143  23665479.617                    23665489.871
 114777869.355 7  89437520.15745  21841496.906                    21841505.746
 109200293.947 8  85091264.442 7  20780138.477                    20780146.410
 107264846.403 8  83583099.754 8  20411798.102                    20411806.211
 127660933.633 6  99476107.718 6  24293074.609                    24293085.457
 110381999.315 8  86012095.38346  21004971.727                    21004978.891
 116673247.594 7  90914348.334 7  22202199.930                    22202211.047
 117149235.137 7  91285256.17145  22292774.156                    22292783.777
 11  8 26  1  0 30.0000000  0  8G04G10G12G05G29G02G25G30
 124443443.335 7  96969024.38643  23680778.633                    23680789.012
 114852336.824 8  89495546.75845  21855667.313                    21855676.184
 109206972.773 8  85096468.729 8  20781409.281                    20781417.965
 107234453.991 8  83559417.397 8  20406014.563                    20406022.797
 127579252.073 6  99412459.827 6  24277531.875                    24277541.938
 110408298.722 8  86032588.43946  21009976.391                    21009982.855
 116616360.220 8  90870020.525 7  22191374.703                    22191385.719
 117095813.258 7  91243628.74345  22282608.188                    22282617.480
 11  8 26  1  1  0.0000000  0  8G04G10G12G05G29G02G25G30
 124523799.422 7  97031639.48743  23696069.703                    23696080.465
 114927243.142 7  89553915.30745  21869921.492                    21869930.742
 109214234.653 8  85102127.337 8  20782791.133                    20782799.871
 107204627.303 8  83536175.855 8  20400338.859                    20400347.051
 127497505.020 6  99348760.905 6  24261975.500                    24261985.836
 110434735.185 8  86053188.29646  21015007.508                    21015013.699
 116559961.764 7  90826073.702 7  22180642.125                    22180653.469
 117042927.987 7  91202419.46045  22272544.906                    22272553.539
 11  8 26  1  1 30.0000000  0  8G04G10G12G05G29G02G25G30
 124604115.064 7  97094223.06943  23711353.305                    23711363.332
 115002586.207 7  89612624.17945  21884258.813                    21884267.930
 109222078.686 8  85108239.579 7  20784283.492                    20784292.152
 107175367.419 8  83513375.988 8  20394770.711                    20394779.367
 127415693.530 7  99285011.777 6  24246408.313                    24246417.781
 110461308.129 8  86073894.50646  21020064.086                    21020070.281
 116504054.500 7  90782509.622 7  22170003.305                    22170014.949
 116990581.345 7  91161629.88745  22262583.273                    22262592.746
 11  8 26  1  2  0.0000000  0  8G04G10G12G05G29G02G25G30
 124684389.829 7  97156774.80743  23726629.211                    23726639.586
 115078363.309 8  89671671.26145  21898678.914                    21898687.305
 109230505.226 8  85114805.717 7  20785887.211                    20785895.859
 107146675.135 8  83491018.396 8  20389310.836                    20389319.020
 127333818.451 7  99221213.129 6  24230826.977                    24230837.320
 110488016.904 8  86094706.56446  21025146.531                    21025152.793
 116448640.355 7  90739329.810 7  22159458.234                    22159469.961
 116938775.172 7  91121261.44945  22252725.195                    22252734.121
 11  8 26  1  2 30.0000000  0  8G04G10G12G05G29G02G25G30
 124764622.732 7  97219293.91943  23741896.734                    23741908.078
 115154571.532 7  89731054.27845  21913180.656                    21913189.613
 109239513.996 8  85121825.537 7  20787601.641                    20787610.477
 107118550.830 8  83469103.390 8  20383958.883                    20383966.758
 127251880.326 6  99157365.337 6  24215234.766                    24215244.730
 110514860.116 8  86115623.36646  21030254.656                    21030260.770
 116393721.025 8  90696535.566 7  22149007.625                    22149018.727
 116887510.956 7  91081315.32845  22242969.453                    22242979.066
 11  8 26  1  3  0.0000000  0  8G04G10G12G05G29G02G25G30
 124844812.965 6  97281779.75143  23757156.586                    23757167.645
 115231207.802 7  89790770.84245  21927763.992                    21927773.168
 109249104.269 8  85129298.475 7  20789426.633                    20789435.020
 107090995.167 8  83447631.483 8  20378715.266                    20378723.402
 127169880.124 6  99093469.166 6  24199631.055                    24199640.637
 110541836.832 8  86136644.20346  21035387.938                    21035394.035
 116339298.272 7  90654128.272 7  22138651.195                    22138662.441
 116836790.163 7  91041792.65345  22233318.195                    22233326.914
 11  8 26  1  3 30.0000000  0  8G04G10G12G05G29G02G25G30
 124924959.952 7  97344231.91844  23772408.461                    23772419.391
 115308269.411 7  89850818.83645  21942428.289                    21942437.320
 109259275.609 8  85137224.193 8  20791362.195                    20791370.641
 107064008.747 8  83426603.139 8  20373579.914                    20373587.797
 127087817.880 6  99029524.667 6  24184014.328                    24184024.754
 110568945.846 8  86157768.13546  21040546.445                    21040552.828
 116285373.700 8  90612109.169 7  22128389.953                    22128400.676
 116786614.276 7  91002694.58345  22223770.109                    22223778.711
 11  8 26  1  4  0.0000000  0  8G04G10G12G05G29G02G25G30
 125005063.645 6  97406650.35843  23787651.133                    23787662.176
 115385754.435 8  89911196.76945  21957173.188                    21957182.035
 109270028.616 8  85145603.153 8  20793408.547                    20793417.164
 107037592.322 8  83406018.941 8  20368552.703                    20368561.094
 127005696.100 6  98965533.749 6  24168387.219                    24168397.379
 110596187.622 8  86178995.50546  21045730.813                    21045736.766
 116231949.967 8  90570480.338 7  22118223.148                    22118234.621
 116736985.742 7  90964023.01945  22214325.352                    22214334.844
 11  8 26  1  4 30.0000000  0  8G04G10G12G05G29G02G25G30
 125085122.768 7  97469034.03143  23802886.445                    23802897.109
 115463659.606 7  89971902.07545  21971998.086                    21972006.742
 109281361.700 8  85154434.126 7  20795565.000                    20795573.723
 107011746.092 8  83385879.059 8  20363634.570                    20363642.258
 126923514.514 6  98901496.248 6  24152748.781                    24152758.945
 110623559.982 8  86200324.64446  21050939.297                    21050945.777
 116179028.247 7  90529242.692 7  22108153.023                    22108163.898
 116687905.424 7  90925778.64545  22204985.969                    22204995.242
 11  8 26  1  5  0.0000000  0  8G04G10G12G05G29G02G25G30
 125165137.467 7  97531383.11443  23818112.688                    23818123.086
 115541982.619 8  90032932.98845  21986902.461                    21986911.531
 109293275.000 8  85163717.210 8  20797832.070                    20797840.695
 106986471.287 8  83366184.443 8  20358824.883                    20358832.973
 126841274.549 6  98837413.240 6  24137098.961                    24137108.617
 110651063.190 8  86221755.73746  21056173.078                    21056179.348
 116126610.907 8  90488398.059 7  22098177.617                    22098188.961
 116639375.587 7  90887963.20045  22195751.297                    22195759.840
 11  8 26  1  5 30.0000000  0  8G04G10G12G05G29G02G25G30
 125245106.498 6  97593696.60543  23833330.578                    23833340.914
 115620720.220 7  90094286.94645  22001885.867                    22001894.805
 109305768.219 8  85173452.174 8  20800209.281                    20800217.988
 106961767.679 8  83346934.911 8  20354123.688                    20354131.789
 126758976.584 6  98773285.030 6  24121437.797                    24121448.188
 110678695.507 8  86243287.43246  21061431.422                    21061437.664
 116074699.136 7  90447947.370 7  22088299.414                    22088310.945
 116591397.149 7  90850577.42145  22186621.188                    22186630.223
 11  8 26  1  6  0.0000000  0  8G04G10G12G05G29G02G25G30
 125325029.371 7  97655974.13544  23848539.266                    23848549.668
 115699869.256 7  90155961.50045  22016947.609                    22016956.707
 109318840.257 8  85183638.163 8  20802696.742                    20802705.480
 106937635.789 8  83328130.876 8  20349531.352                    20349539.934
 126676621.528 6  98709112.339 6  24105766.188                    24105776.094
 110706456.032 8  86264919.01446  21066714.305                    21066720.332
 116023294.669 7  90407891.972 7  22078517.398                    22078528.492
 116543971.679 7  90813622.54145  22177596.398                    22177605.191
 11  8 26  1  6 30.0000000  0  8G04G10G12G05G29G02G25G30
 125404905.935 7  97718215.57444  23863739.531                    23863749.910
 115779428.241 7  90217955.51545  22032087.031                    22032095.813
 109332490.948 8  85194275.058 8  20805294.461                    20805302.941
 106914076.889 8  83309773.322 8  20345048.383                    20345056.508
 126594210.618 6  98644896.113 6  24090084.438                    24090093.535
 110734344.763 8  86286650.50646  21072021.180                    21072027.371
 115972399.950 7  90368233.797 7  22068832.398                    22068843.621
 116497101.368 7  90777100.25045  22168677.313                    22168685.996
 11  8 26  1  7  0.0000000  0  8G04G10G12G05G29G02G25G30
 125484735.194 7  97780420.16243  23878930.523                    23878940.801
 115859393.284 7  90280265.92245  22047303.867                    22047312.867
 109346719.743 8  85205362.417 7  20808002.297                    20808010.660
 106891090.581 8  83291861.948 8  20340674.281                    20340682.422
 126511744.427 6  98580636.793 6  24074390.813                    24074400.656
 110762360.049 8  86308480.60846  21077352.258                    21077358.672
 115922016.019 8  90328973.634 7  22059244.750                    22059255.406
 116450786.976 7  90741011.15645  22159863.477                    22159872.457
 11  8 26  1  7 30.0000000  0  8G04G10G12G05G29G02G25G30
 125564516.666 6  97842587.53243  23894112.141                    23894122.734
 115939762.130 7  90342890.98545  22062597.375                    22062606.699
 109361525.815 8  85216899.615 8  20810819.750                    20810828.238
 106868677.737 8  83274397.427 8  20336409.266                    20336417.523
 126429224.259 6  98516335.408 6  24058687.461                    24058697.020
 110790501.524 8  86330409.03846  21082707.273                    21082713.379
 115872144.899 8  90290113.055 7  22049754.828                    22049765.336
 116405030.377 7  90705356.70545  22151156.367                    22151165.688
 11  8 26  1  8  0.0000000  0  8G04G10G12G05G29G02G25G30
 125644249.860 7  97904717.27143  23909284.195                    23909295.484
 116020531.775 7  90405828.37245  22077967.680                    22077976.363
 109376908.937 8  85228886.450 8  20813747.336                    20813755.688
 106846838.365 8  83257379.771 8  20332253.156                    20332261.777
 126346650.852 6  98451992.544 6  24042974.039                    24042984.051
 110818768.119 8  86352434.97646  21088086.211                    21088092.512
 115822788.199 8  90251653.316 7  22040362.414                    22040373.297
 116359832.800 7  90670137.85345  22142555.367                    22142564.297
 11  8 26  1  8 30.0000000  0  8G04G10G12G05G29G02G25G30
 125723934.062 6  97966808.82643  23924448.727                    23924459.152
 116101698.937 7  90469075.49545  22093413.164                    22093422.273
 109392868.591 8  85241322.536 8  20816784.008                    20816792.648
 106825573.023 8  83240809.413 8  20328206.805                    20328215.148
 126264025.004 6  98387608.782 6  24027251.891                    24027261.121
 110847159.049 8  86374557.78346  21093489.203                    21093495.066
 115773947.379 8  90213595.570 7  22031068.305                    22031079.512
 116315195.578 7  90635355.63545  22134061.234                    22134070.555
 11  8 26  1  9  0.0000000  0  8G04G10G12G05G29G02G25G30
 125803569.089 6  98028862.08043  23939602.156                    23939613.172
 116183261.775 7  90532630.94245  22108933.789                    22108943.012
 109409403.681 8  85254207.015 7  20819930.477                    20819939.395
 106804882.082 8  83224686.631 8  20324269.109                    20324277.590
 126181348.059 6  98323185.223 6  24011518.828                    24011527.801
 110875673.768 8  86396777.04846  21098915.289                    21098921.355
 115725624.526 8  90175941.431 7  22021872.742                    22021883.645
 116271120.485 7  90601011.44045  22125674.445                    22125683.191
 11  8 26  1  9 30.0000000  0  8G04G10G12G05G29G02G25G30
 125883154.122 6  98090876.36843  23954747.000                    23954757.727
 116265216.987 7  90596492.13245  22124529.555                    22124538.680
 109426513.573 8  85267539.390 7  20823186.398                    20823195.340
 106784765.659 8  83209011.535 8  20320441.203                    20320449.484
 126098620.923 6  98258722.544 6  23995775.789                    23995785.809
 110904311.172 8  86419091.91446  21104364.461                    21104370.746
 115677820.931 8  90138691.884 7  22012775.781                    22012786.711
 116227608.601 7  90567106.10145  22117394.219                    22117403.074
 11  8 26  1 10  0.0000000  0  8G04G10G12G05G29G02G25G30
 125962688.373 6  98152851.10843  23969881.461                    23969892.102
 116347561.387 7  90660656.58145  22140199.297                    22140208.324
 109444197.805 8  85281319.308 8  20826551.969                    20826560.406
 106765223.810 8  83193784.155 8  20316722.469                    20316730.875
 126015844.169 7  98194221.196 6  23980023.859                    23980033.781
 110933070.140 8  86441501.49646  21109837.250                    21109843.500
 115630537.950 8  90101848.027 7  22003778.336                    22003789.180
 116184660.996 7  90533640.47945  22109221.836                    22109230.543
 11  8 26  1 10 30.0000000  0  8G04G10G12G05G29G02G25G30
 126042172.454 6  98214786.73443  23985007.063                    23985017.441
 116430292.942 7  90725122.70445  22155942.594                    22155951.594
 109462455.809 8  85295546.314 7  20830026.273                    20830034.285
 106746257.870 8  83179005.531 8  20313113.445                    20313121.656
 125933019.319 7  98129682.351 6  23964263.336                    23964273.027
 110961951.232 8  86464006.23846  21115333.180                    21115339.320
 115583778.115 8  90065411.813 7  21994880.070                    21994891.070
 116142279.941 7  90500616.31245  22101156.383                    22101165.527
 11  8 26  1 11  0.0000000  0  8G04G10G12G05G29G02G25G30
 126121604.980 6  98276682.18843  24000122.797                    24000133.359
 116513408.560 7  90789888.10845  22171758.867                    22171767.797
 109481286.427 8  85310219.526 7  20833609.633                    20833617.707
 106727867.316 8  83164675.260 8  20309613.750                    20309621.723
 125850146.887 7  98065106.449 6  23948492.703                    23948502.676
 110990952.472 8  86486604.60846  21120851.820                    21120858.559
 115537542.360 8  90029383.975 7  21986081.719                    21986092.887
 116100466.099 7  90468034.12445  22093199.352                    22093209.484
 11  8 26  1 11 30.0000000  0  8G04G10G12G05G29G02G25G30
 126200986.116 6  98338537.54543  24015228.852                    24015239.109
 116596905.675 7  90854950.77345  22187648.008                    22187656.840
 109500689.398 8  85325338.714 7  20837301.813                    20837310.281
 106710052.625 8  83150793.722 8  20306223.820                    20306231.934
 125767228.414 7  98000494.671 6  23932714.117                    23932723.703
 111020074.046 8  86509296.74446  21126393.523                    21126399.566
 115491832.813 8  89993766.166 7  21977383.531                    21977394.551
 116059221.368 8  90435895.39445  22085351.281                    22085360.141
 11  8 26  1 12  0.0000000  0  8G04G10G12G05G29G02G25G30
 126280314.807 6  98400352.11243  24030324.063                    24030334.855
 116680780.747 7  90920307.95045  22203608.984                    22203617.703
 109520663.265 8  85340902.764 7  20841102.414                    20841111.379
 106692813.494 8  83137360.660 8  20302943.047                    20302951.457
 125684264.518 7  97935847.499 6  23916926.242                    23916936.789
 111049314.245 8  86532081.30946  21131957.594                    21131964.156
 115446650.328 8  89958559.052 7  21968785.570                    21968796.355
 116018546.284 7  90404200.54845  22077610.594                    22077619.188
 11  8 26  1 12 30.0000000  0  8G04G10G12G05G29G02G25G30
 126359590.516 6  98462125.38143  24045409.305                    24045420.199
 116765031.263 7  90985957.67945  22219641.305                    22219650.422
 109541207.443 8  85356911.203 7  20845012.172                    20845020.980
 106676150.337 8  83124376.412 8  20299772.203                    20299780.688
 125601256.089 7  97871165.643 6  23901130.797                    23901141.070
 111078672.385 8  86554957.78246  21137544.672                    21137551.305
 115401996.461 8  89923763.855 7  21960288.031                    21960299.012
 115978442.139 7  90372950.58245  22069978.828                    22069988.180
 11  8 26  1 13  0.0000000  0  8G04G10G12G05G29G02G25G30
 126438812.864 6  98523857.03643  24060485.516                    24060496.117
 116849654.024 7  91051897.47945  22235744.203                    22235753.328
 109562321.042 8  85373363.352 7  20849029.898                    20849038.367
 106660062.995 8  83111840.860 8  20296710.742                    20296719.512
 125518204.204 7  97806449.931 6  23885326.234                    23885336.195
 111108147.704 8  86577925.55446  21143153.391                    21143159.719
 115357872.618 8  89889381.660 7  21951891.586                    21951902.379
 115938909.999 7  90342146.33645  22062456.313                    22062465.531
 11  8 26  1 13 30.0000000  0  8G04G10G12G05G29G02G25G30
 126517981.742 6  98585547.06743  24075550.641                    24075561.355
 116934646.916 7  91118125.67644  22251918.148                    22251927.188
 109584003.461 8  85390258.734 7  20853156.234                    20853164.656
 106644552.324 8  83099754.650 8  20293759.250                    20293767.949
 125435110.463 7  97741701.617 6  23869513.516                    23869523.625
 111137740.084 8  86600984.54846  21148784.875                    21148790.793
 115314280.795 8  89855414.034 7  21943596.313                    21943607.066
 115899951.736 7  90311789.27145  22055042.938                    22055052.383
 11  8 26  1 14  0.0000000  0  8G04G10G12G05G29G02G25G30
 126597096.656 6  98647194.99643  24090605.813                    24090615.969
 117020006.899 7  91184639.92145  22268161.594                    22268170.414
 109606253.672 8  85407596.553 7  20857390.289                    20857398.613
 106629617.987 8  83088117.530 8  20290917.102                    20290925.598
 125351975.473 7  97676921.164 6  23853694.313                    23853704.215
 111167448.567 8  86624133.99946  21154438.180                    21154443.965
 115271222.242 8  89821861.932 7  21935402.570                    21935413.574
 115861568.211 7  90281880.03845  22047738.797                    22047747.754
 11  8 26  1 14 30.0000000  0  8G04G10G12G05G29G02G25G30
 126676156.742 6  98708800.21043  24105650.820                    24105661.293
 117105730.508 7  91251437.52045  22284474.195                    22284482.875
 109629070.602 8  85425375.975 7  20861731.922                    20861740.828
 106615259.569 8  83076929.183 8  20288184.766                    20288193.480
 125268800.273 7  97612109.401 6  23837866.305                    23837875.809
 111197271.883 8  86647372.94846  21160113.320                    21160119.281
 115228698.005 8  89788726.189 7  21927310.539                    21927321.297
 115823760.150 7  90252419.22445  22040544.000                    22040552.984
 11  8 26  1 15  0.0000000  0  8G04G10G12G05G29G02G25G30
 126755162.440 6  98770363.05543  24120685.078                    24120695.688
 117191815.850 7  91318516.97645  22300855.773                    22300864.730
 109652453.818 8  85443596.659 7  20866181.641                    20866189.750
 106601477.936 8  83066190.278 8  20285562.422                    20285570.766
 125185586.666 7  97547267.728 6  23822031.180                    23822040.824
 111227210.680 8  86670701.87846  21165810.336                    21165816.633
 115186710.482 8  89756008.661 7  21919320.727                    21919331.570
 115786529.725 7  90223408.50945  22033459.852                    22033468.449
 11  8 26  1 15 30.0000000  0  8G04G10G12G05G29G02G25G30
 126834112.593 6  98831882.59643  24135708.781                    24135719.566
 117278259.619 7  91385875.73745  22317304.922                    22317314.133
 109676401.517 8  85462257.194 7  20870738.789                    20870747.262
 106588272.423 8  83055900.299 8  20283049.367                    20283057.727
 125102334.731 7  97482396.197 6  23806188.547                    23806198.543
 111257262.739 8  86694119.05946  21171529.289                    21171535.289
 115145260.067 8  89723709.657 7  21911432.672                    21911443.910
 115749876.978 7  90194847.94545  22026484.406                    22026493.379
 11  8 26  1 16  0.0000000  0  8G04G10G12G05G29G02G25G30
 126913006.875 6  98893358.62443  24150721.406                    24150732.414
 117365058.881 7  91453511.50345  22333822.320                    22333831.863
 109700913.107 8  85481357.128 7  20875403.164                    20875411.555
 106575643.275 8  83046059.441 8  20280646.258                    20280654.352
 125019045.995 7  97417496.004 6  23790339.156                    23790348.945
 111287427.929 8  86717624.39746  21177269.250                    21177276.031
 115104348.455 8  89691830.501 7  21903647.266                    21903658.410
 115713803.435 7  90166738.71445  22019620.250                    22019629.535
 11  8 26  1 16 30.0000000  0  9G26G04G10G12G05G29G02G25G30
 130634995.81116                  24859025.531
 126991845.438 6  98954791.24843  24165724.555                    24165735.090
 117452210.886 7  91521422.13745  22350407.445                    22350416.199
 109725987.529 8  85500895.630 7  20880174.531                    20880183.180
 106563590.771 8  83036667.912 8  20278352.805                    20278360.887
 124935721.613 7  97352568.028 6  23774483.008                    23774492.574
 111317705.892 8  86741217.60446  21183030.828                    21183037.012
 115063977.241 8  89660372.440 7  21895965.031                    21895976.238
 115678310.286 7  90139081.74945  22012866.164                    22012874.973
 11  8 26  1 17  0.0000000  0  9G26G04G10G12G05G29G02G25G30
 130543758.370 5 101722513.38752  24841663.773                    24841676.957
 127070627.480 6  99016179.84243  24180715.773                    24180726.734
 117539712.736 7  91589605.36645  22367058.539                    22367067.898
 109751623.997 8  85520872.090 7  20885052.711                    20885061.527
 106552114.554 8  83027725.434 8  20276168.781                    20276177.016
 124852362.894 7  97287613.315 6  23758620.266                    23758630.176
 111348095.828 8  86764898.07046  21188814.148                    21188820.133
 115024147.739 8  89629336.488 7  21888385.539                    21888396.656
 115643398.511 7  90111877.79945  22006222.523                    22006231.254
 11  8 26  1 17 30.0000000  0  9G26G04G10G12G05G29G02G25G30
 130452375.508 5 101651306.26643  24824273.406                    24824287.902
 127149352.400 6  99077523.89043  24195696.641                    24195707.629
 117627560.909 7  91658058.46145  22383775.188                    22383784.488
 109777820.917 8  85541285.267 7  20890038.344                    20890046.676
 106541214.054 8  83019231.572 8  20274094.453                    20274102.559
 124768970.579 7  97222632.397 6  23742751.125                    23742760.387
 111378596.103 8  86788664.51846  21194618.055                    21194624.289
 114984860.675 8  89598723.218 7  21880909.883                    21880920.563
 115609068.558 7  90085127.22645  21999689.828                    21999698.461
 11  8 26  1 18  0.0000000  0  9G26G04G10G12G05G29G02G25G30
 130360850.614 5 101579988.41642  24806856.625                    24806870.570
 127228020.290 6  99138823.49743  24210667.258                    24210677.512
 117715753.076 6  91726779.60444  22400557.367                    22400566.977
 109804577.573 8  85562134.601 7  20895129.852                    20895138.121
 106530889.772 8  83011186.705 8  20272129.766                    20272138.152
 124685545.882 7  97157626.260 6  23726876.453                    23726885.527
 111409207.254 8  86812517.35846  21200443.398                    21200449.371
 114946117.834 8  89568534.013 7  21873537.203                    21873547.551
 115575321.940 7  90058831.18945  21993267.781                    21993276.879
 11  8 26  1 18 30.0000000  0  9G26G04G10G12G05G29G02G25G30
 130269186.313 6 101508562.05742  24789413.211                    24789427.566
 127306630.788 6  99200078.40843  24225626.055                    24225636.484
 117804286.394 7  91795766.57845  22417405.313                    22417414.344
 109831893.389 7  85583419.647 7  20900327.977                    20900336.055
 106521141.533 8  83003590.702 8  20270274.922                    20270282.891
 124602090.003 7  97092595.820 6  23710995.039                    23711004.617
 111439928.356 7  86836455.88046  21206289.156                    21206295.473
 114907920.545 8  89538769.912 7  21866268.398                    21866278.719
 115542159.618 7  90032990.45745  21986957.391                    21986966.535
 11  8 26  1 19  0.0000000  0  9G26G04G10G12G05G29G02G25G30
 130177385.107 6 101437028.90643  24771944.164                    24771957.645
 127385183.323 6  99261288.14443  24240573.938                    24240584.613
 117893158.044 7  91865017.17545  22434316.539                    22434326.141
 109859766.097 7  85605138.637 7  20905632.172                    20905640.152
 106511968.895 8  82996443.215 8  20268529.500                    20268537.719
 124518604.300 7  97027542.115 6  23695108.219                    23695117.484
 111470758.512 7  86860479.38346  21212156.211                    21212162.418
 114870269.787 8  89509431.668 7  21859103.695                    21859114.391
 115509582.185 7  90007605.47945  21980757.828                    21980766.797
 11  8 26  1 19 30.0000000  0  9G26G04G10G12G05G29G02G25G30
 130085449.874 6 101365391.36243  24754449.656                    24754462.246
 127463677.522 6  99322452.45543  24255511.070                    24255521.742
 117982364.838 7  91934528.94645  22451292.555                    22451301.309
 109888194.643 8  85627290.738 7  20911041.852                    20911050.152
 106503371.586 8  82989744.039 8  20266893.477                    20266901.375
 124435089.827 7  96962466.000 6  23679215.500                    23679225.102
 111501697.000 8  86884587.29846  21218043.375                    21218049.445
 114833166.735 8  89480520.222 7  21852042.992                    21852053.934
 115477590.618 7  89982677.01245  21974670.055                    21974679.109
 11  8 26  1 20  0.0000000  0  9G26G04G10G12G05G29G02G25G30
 129993383.635 6 101293651.70443  24736929.531                    24736942.926
 127542113.216 6  99383571.13443  24270436.977                    24270447.992
 118071904.402 7  92004300.00244  22468330.906                    22468339.910
 109917178.320 7  85649875.408 7  20916557.086                    20916565.820
 106495349.890 8  82983493.391 8  20265366.922                    20265375.371
 124351547.637 7  96897368.275 6  23663317.797                    23663327.527
 111532743.310 7  86908779.21946  21223951.211                    21223957.691
 114796612.831 8  89452036.664 7  21845087.156                    21845098.047
 115446185.979 7  89958205.89245  21968694.141                    21968702.582
 11  8 26  1 20 30.0000000  0  9G26G04G10G12G05G29G02G25G30
 129901189.074 6 101221812.05643  24719385.219                    24719398.449
 127620490.001 6  99444643.91343  24285351.625                    24285362.219
 118161773.435 7  92074327.79844  22485432.914                    22485442.207
 109946715.434 7  85672891.339 7  20922177.852                    20922186.047
 106487902.933 8  82977690.596 8  20263949.695                    20263957.793
 124267978.943 7  96832249.900 6  23647415.258                    23647424.582
 111563896.633 7  86933054.54946  21229879.336                    21229885.586
 114760608.921 8  89423981.670 7  21838236.023                    21838246.664
 115415368.712 7  89934192.46845  21962829.797                    21962838.695
 11  8 26  1 21  0.0000000  0  9G26G04G10G12G05G29G02G25G30
 129808869.116 6 101149874.68243  24701817.758                    24701830.359
 127698807.564 7  99505670.56943  24300255.063                    24300265.828
 118251969.267 7  92144610.24545  22502596.328                    22502605.109
 109976805.040 8  85696337.777 7  20927903.703                    20927911.824
 106481030.932 8  82972335.820 8  20262641.766                    20262649.914
 124184385.300 7  96767112.069 6  23631507.836                    23631517.531
 111595156.884 8  86957413.17746  21235828.266                    21235834.168
 114725156.553 8  89396356.440 7  21831489.375                    21831500.336
 115385140.181 7  89910637.78545  21957077.266                    21957086.344
 11  8 26  1 21 30.0000000  0  9G26G04G10G12G05G29G02G25G30
 129716426.648 6 101077841.86243  24684226.141                    24684239.230
 127777065.469 7  99566650.74343  24315146.992                    24315157.531
 118342488.755 7  92215144.89645  22519821.523                    22519830.262
 110007445.831 8  85720213.710 7  20933734.492                    20933742.855
 106474733.391 8  82967428.672 8  20261443.266                    20261451.676
 124100767.466 7  96701955.373 6  23615595.992                    23615605.039
 111626522.841 8  86981854.19046  21241796.859                    21241803.211
 114690256.493 8  89369161.590 7  21824848.398                    21824859.133
 115355500.768 7  89887542.15645  21951437.258                    21951446.195
 11  8 26  1 22  0.0000000  0  9G26G04G10G12G05G29G02G25G30
 129623864.480 6 101005715.75043  24666611.688                    24666624.766
 127855263.561 6  99627584.31343  24330027.367                    24330038.863
 118433328.861 7  92285929.36445  22537107.961                    22537117.254
 110038636.713 8  85744518.272 7  20939669.789                    20939678.164
 106469009.826 8  82962968.771 8  20260354.477                    20260362.352
 124017126.909 7  96636780.980 6  23599679.867                    23599688.891
 111657993.983 8  87006377.16446  21247786.078                    21247791.664
 114655910.025 8  89342398.104 7  21818312.242                    21818323.270
 115326451.254 7  89864906.17745  21945909.273                    21945918.441
 11  8 26  1 22 30.0000000  0  9G26G04G10G12G05G29G02G25G30
 129531185.411 6 100933498.57343  24648975.273                    24648988.211
 127933401.751 6  99688471.18243  24344896.852                    24344907.641
 118524486.803 7  92356961.51344  22554454.688                    22554463.594
 110070376.334 8  85769250.430 7  20945709.727                    20945717.789
 106463860.143 8  82958956.057 8  20259374.219                    20259382.422
 123933464.959 7  96571589.885 6  23583759.156                    23583768.848
 111689569.895 8  87030981.77746  21253794.453                    21253800.801
 114622118.203 8  89316066.799 7  21811882.094                    21811893.016
 115297992.472 7  89842730.51545  21940493.563                    21940502.738
 11  8 26  1 23  0.0000000  0  9G26G04G10G12G05G29G02G25G30
 129438392.568 6 100861192.73543  24631317.344                    24631329.367
 128011479.403 6  99749310.89943  24359754.609                    24359765.336
 118615959.936 7  92428239.25544  22571861.508                    22571870.656
 110102662.911 8  85794408.795 7  20951853.445                    20951862.074
 106459283.923 8  82955390.201 8  20258503.594                    20258511.457
 123849782.470 7  96506382.822 6  23567834.313                    23567844.406
 111721249.722 8  87055667.35246  21259823.000                    21259828.777
 114588882.148 8  89290168.554 7  21805557.500                    21805568.293
 115270125.180 7  89821015.73945  21935190.766                    21935199.570
 11  8 26  1 23 30.0000000  0  9G26G04G10G12G05G29G02G25G30
 129345488.522 6 100788800.28743  24613638.172                    24613651.332
 128089496.384 6  99810103.35043  24374600.820                    24374611.535
 118707745.199 7  92499760.21444  22589327.859                    22589336.539
 110135495.105 7  85819992.311 7  20958101.445                    20958109.699
 106455280.464 8  82952270.648 8  20257741.875                    20257749.578
 123766080.844 7  96441160.824 6  23551907.328                    23551916.277
 111753032.989 7  87080433.55346  21265870.930                    21265876.848
 114556202.641 8  89264703.991 7  21799338.844                    21799349.688
 115242849.868 7  89799762.25445  21930000.484                    21930009.348
 11  8 26  1 24  0.0000000  0  9G26G04G10G12G05G29G02G25G30
 129252476.453 6 100716323.66342  24595937.313                    24595950.777
 128167452.588 6  99870848.45943  24389435.094                    24389445.949
 118799839.705 7  92571522.13744  22606852.477                    22606862.031
 110168872.080 7  85846000.328 7  20964452.883                    20964461.020
 106451849.717 8  82949597.367 8  20257088.805                    20257096.273
 123682361.438 6  96375924.968 6  23535976.070                    23535984.859
 111784919.560 7  87105280.24346  21271938.648                    21271945.371
 114524081.087 8  89239674.190 7  21793226.391                    21793236.953
 115216167.537 7  89778970.80845  21924923.023                    21924931.660
 11  8 26  1 24 30.0000000  0  9G26G04G10G12G05G29G02G25G30
 129159359.217 5 100643765.04642  24578218.367                    24578230.535
 128245347.696 6  99931545.93643  24404257.930                    24404269.152
 118892240.606 7  92643522.82344  22624435.867                    22624445.145
 110202792.143 8  85872431.543 7  20970907.836                    20970916.121
 106448991.207 8  82947369.986 8  20256544.930                    20256552.477
 123598625.878 6  96310676.522 6  23520041.344                    23520050.516
 111816908.594 7  87130206.76746  21278026.227                    21278032.324
 114492518.361 8  89215079.843 7  21787220.250                    21787230.848
 115190078.631 7  89758641.77945  21919958.289                    21919967.316
 11  8 26  1 25  0.0000000  0  9G26G04G10G12G05G29G02G25G30
 129066139.858 6 100571126.81142  24560479.234                    24560491.406
 128323181.395 6  99992195.57742  24419068.891                    24419080.055
 118984945.080 7  92715760.04444  22642077.102                    22642086.594
 110237254.101 8  85899285.007 7  20977465.594                    20977473.750
 106446704.580 8  82945588.224 8  20256109.648                    20256117.809
 123514875.037 7  96245416.179 6  23504103.703                    23504113.285
 111848999.431 7  87155212.63246  21284132.586                    21284138.996
 114461515.422 8  89190921.694 7  21781320.523                    21781331.336
 115164583.800 7  89738775.67145  21915106.922                    21915115.699
 11  8 26  1 25 30.0000000  0  9G26G04G10G12G05G29G02G25G30
 128972820.999 6 100498411.12342  24542720.906                    24542733.316
 128400953.378 6 100052797.10542  24433868.586                    24433879.789
 119077949.906 6  92788231.30944  22659775.352                    22659784.590
 110272255.771 7  85926559.028 7  20984126.102                    20984134.016
 106444988.847 8  82944251.319 8  20255783.078                    20255791.547
 123431110.312 7  96180144.997 6  23488163.328                    23488173.313
 111881191.375 7  87180297.27446  21290258.516                    21290265.070
 114431072.898 8  89167200.241 7  21775527.391                    21775538.258
 115139683.331 7  89719372.69245  21910368.602                    21910377.473
 11  8 26  1 26  0.0000000  0  9G26G04G10G12G05G29G02G25G30
 128879405.790 6 100425620.16042  24524943.961                    24524956.109
 128478663.441 6 100113350.39242  24448656.672                    24448667.551
 119171252.475 7  92860934.59245  22677530.531                    22677539.656
 110307796.086 8  85954252.765 7  20990889.031                    20990897.594
 106443844.009 8  82943359.260 8  20255565.102                    20255573.336
 123347333.015 7  96114864.048 6  23472221.609                    23472231.223
 111913483.956 7  87205460.33346  21296403.414                    21296410.250
 114401192.031 8  89143916.442 7  21769841.406                    21769852.168
 115115378.060 7  89700433.50945  21905743.313                    21905752.102
 11  8 26  1 26 30.0000000  0  9G26G04G10G12G05G29G02G25G30
 128785897.302 6 100352756.68743  24507149.727                    24507161.766
 128556311.282 6 100173855.24242  24463431.828                    24463443.316
 119264849.806 7  92933867.55845  22695341.531                    22695350.441
 110343873.595 8  85982365.105 7  20997754.508                    20997762.785
 106443269.144 7  82942911.333 8  20255455.469                    20255464.070
 123263544.383 7  96049574.237 6  23456277.203                    23456286.191
 111945876.659 7  87230701.40846  21302567.945                    21302574.441
 114371873.660 7  89121070.962 7  21764261.898                    21764273.289
 115091668.478 7  89681958.50345  21901231.633                    21901240.367
 11  8 26  1 27  0.0000000  0  9G26G04G10G12G05G29G02G25G30
 128692298.369 6 100279822.64643  24489338.773                    24489350.625
 128633896.597 6 100234311.29342  24478196.008                    24478207.941
 119358738.651 7  93007027.67144  22713208.031                    22713217.145
 110380486.455 8  86010894.596 7  21004722.078                    21004729.988
 106443263.552 8  82942907.005 8  20255454.648                    20255462.824
 123179745.601 7  95984276.536 6  23440331.078                    23440339.809
 111978368.475 8  87256019.71746  21308750.781                    21308756.848
 114343118.270 8  89098664.167 7  21758790.375                    21758801.477
 115068554.772 7  89663947.81745  21896833.125                    21896841.910
 11  8 26  1 27 30.0000000  0  9G26G04G10G12G05G29G02G25G30
 128598611.856 6 100206820.43643  24471510.844                    24471522.805
 128711419.274 6 100294718.63142  24492948.406                    24492959.734
 119452916.270 6  93080412.81444  22731129.633                    22731138.293
 110417633.325 8  86039840.201 7  21011790.680                    21011798.652
 106443826.624 8  82943345.791 8  20255561.813                    20255569.949
 123095938.282 7  95918972.156 6  23424383.172                    23424391.930
 112010959.464 7  87281415.30446  21314952.813                    21314959.020
 114314927.020 8  89076696.978 7  21753425.820                    21753436.684
 115046037.651 8  89646401.98945  21892548.414                    21892557.262
 11  8 26  1 28  0.0000000  0  9G26G04G10G12G05G29G02G25G30
 128504840.835 6 100133752.31743  24453666.148                    24453678.492
 128788879.095 6 100355076.91843  24507688.352                    24507699.207
 119547379.867 6  93154020.80044  22749105.258                    22749114.152
 110455312.427 8  86069200.530 7  21018961.109                    21018968.688
 106444957.965 8  82944227.385 8  20255776.945                    20255785.148
 123012123.844 6  95853662.251 6  23408433.438                    23408443.090
 112043648.816 8  87306887.53746  21321173.211                    21321178.902
 114287300.738 8  89055170.014 7  21748168.570                    21748179.418
 115024117.525 7  89629321.35845  21888377.383                    21888386.168
 11  8 26  1 28 30.0000000  0  9G26G04G10G12G05G29G02G25G30
 128410988.474 7 100060620.84743  24435806.453                    24435819.387
 128866275.998 6 100415386.22043  24522417.258                    24522427.086
 119642126.493 6  93227849.32444  22767134.492                    22767143.891
 110493522.773 8  86098974.820 7  21026231.953                    21026240.297
 106446656.918 8  82945551.266 8  20256100.281                    20256108.457
 122928303.339 7  95788347.618 6  23392482.984                    23392492.039
 112076436.287 7  87332436.24246  21327412.242                    21327418.734
 114260240.103 8  89034083.815 7  21743018.875                    21743029.816
 115002794.788 7  89612706.23845  21884319.180                    21884328.176
 11  8 26  1 29  0.0000000  0  9G26G04G10G12G05G29G02G25G30
 128317057.720 6  99987428.31343  24417932.180                    24417944.242
 128943609.728 6 100475646.28843  24537132.547                    24537143.383
 119737153.434 6  93301896.27544  22785217.844                    22785227.281
 110532262.099 8  86129161.299 7  21033603.984                    21033612.094
 106448922.975 8  82947317.050 8  20256531.492                    20256539.648
 122844478.343 6  95723029.478 6  23376531.836                    23376540.477
 112109321.210 7  87358060.85646  21333670.039                    21333676.516
 114233746.143 8  89013439.199 7  21737977.586                    21737988.012
 114982070.004 8  89596557.04445  21880375.414                    21880384.637
 11  8 26  1 29 30.0000000  0  9G26G04G10G12G05G29G02G25G30
 128223051.749 6  99914177.14643  24400043.266                    24400055.047
 129020880.223 6 100535857.04543  24551836.906                    24551847.957
 119832457.859 6  93376159.44544  22803353.563                    22803362.215
 110571528.912 8  86159758.805 7  21041076.172                    21041083.691
 106451755.412 8  82949524.169 8  20257070.383                    20257078.586
 122760650.207 7  95657708.888 6  23360579.633                    23360589.000
 112142303.109 8  87383761.04946  21339946.359                    21339952.641
 114207819.467 8  88993236.622 7  21733043.836                    21733054.246
 114961943.441 8  89580874.00845  21876546.117                    21876554.246
 11  8 26  1 30  0.0000000  0  9G26G04G10G12G05G29G02G25G30
 128128973.416 6  99840869.59943  24382140.445                    24382152.266
 129098087.120 6 100596018.27443  24566529.227                    24566539.582
 119928036.473 6  93450636.27744  22821541.641                    22821550.695
 110611321.505 8  86190766.008 7  21048648.039                    21048656.504
 106455153.140 8  82952171.765 8  20257717.016                    20257725.320
 122676820.267 6  95592386.909 6  23344627.313                    23344636.270
 112175381.392 7  87409536.34246  21346241.078                    21346247.215
 114182460.634 8  88973476.509 7  21728217.828                    21728228.605
 114942415.249 8  89565657.23545  21872829.727                    21872837.934
 11  8 26  1 30 30.0000000  0  9G26G04G10G12G05G29G02G25G30
 128034825.744 6  99767508.05343  24364224.797                    24364236.348
 129175230.354 6 100656129.90343  24581209.063                    24581219.266
 120023886.542 6  93525324.61544  22839781.359                    22839790.367
 110651638.333 8  86222181.713 7  21056320.352                    21056328.656
 106459115.618 8  82955259.438 8  20258471.289                    20258479.332
 122592989.811 6  95527064.521 6  23328674.977                    23328683.801
 112208555.536 7  87435386.32646  21352553.953                    21352560.242
 114157670.484 8  88954159.523 7  21723500.688                    21723511.363
 114923485.943 8  89550907.13245  21869227.289                    21869236.473
 11  8 26  1 31  0.0000000  0  9G26G04G10G12G05G29G02G25G30
 127940612.171 6  99694095.16743  24346296.453                    24346307.590
 129252310.024 7 100716191.97143  24595876.664                    24595887.691
 120120005.635 7  93600222.59044  22858072.602                    22858081.598
 110692478.101 8  86254004.888 7  21064091.953                    21064099.941
 106463642.841 8  82958787.162 8  20259332.773                    20259340.977
 122509160.725 7  95461743.207 6  23312722.742                    23312731.148
 112241825.712 7  87461311.14546  21358884.961                    21358891.168
 114133450.049 7  88935286.481 7  21718891.836                    21718902.723
 114905156.086 8  89536624.12745  21865739.625                    21865748.367
 11  8 26  1 31 30.0000000  0  9G26G04G10G12G05G29G02G25G30
 127846335.443 6  99620632.95342  24328355.703                    24328367.156
 129329325.569 6 100776204.05743  24610532.328                    24610543.273
 120216390.302 7  93675327.51344  22876414.055                    22876422.586
 110733838.691 8  86286233.913 7  21071962.953                    21071970.715
 106468733.073 8  82962753.600 8  20260301.297                    20260309.492
 122425334.024 7  95396423.768 6  23296770.656                    23296779.844
 112275190.939 7  87487310.03946  21365234.180                    21365240.473
 114109799.462 8  88916857.472 7  21714391.016                    21714401.883
 114887425.430 8  89522808.03645  21862365.391                    21862374.285
 11  8 26  1 32  0.0000000  0  9G26G04G10G12G05G29G02G25G30
 127751998.730 6  99547124.05142  24310403.977                    24310415.109
 129406276.786 6 100836166.03443  24625175.547                    24625185.793
 120313037.747 7  93750637.21044  22894804.969                    22894814.355
 110775718.110 8  86318867.216 7  21079931.789                    21079939.988
 106474385.757 8  82967158.307 8  20261376.859                    20261384.949
 122341511.449 7  95331107.528 6  23280819.672                    23280828.645
 112308650.492 8  87513382.42846  21371601.531                    21371607.875
 114086719.397 8  88898873.021 7  21709999.227                    21710009.859
 114870294.184 8  89509459.01745  21859105.422                    21859114.293
 11  8 26  1 32 30.0000000  0  9G26G04G10G12G05G29G02G25G30
 127657605.223 6  99473570.83242  24292440.445                    24292452.590
 129483163.850 6 100896078.02743  24639806.414                    24639817.555
 120409944.982 7  93826149.32544  22913245.938                    22913254.816
 110818114.579 8  86351903.404 7  21087999.680                    21088008.027
 106480600.195 8  82972000.746 8  20262559.594                    20262567.273
 122257694.376 7  95265795.580 6  23264869.609                    23264878.813
 112342204.274 7  87539528.23846  21377986.523                    21377992.848
 114064210.599 8  88881333.713 7  21705715.609                    21705726.637
 114853762.869 8  89496577.47345  21855959.727                    21855968.410
 11  8 26  1 33  0.0000000  0  9G26G04G10G12G05G29G02G25G30
 127563158.035 6  99399975.80042  24274467.516                    24274480.023
 129559986.445 6 100955939.77843  24654425.227                    24654436.672
 120507109.392 7  93901861.81844  22931735.711                    22931744.848
 110861026.550 8  86385341.291 7  21096165.539                    21096173.652
 106487375.339 8  82977280.096 8  20263848.641                    20263856.477
 122173883.971 7  95200488.847 6  23248921.234                    23248930.512
 112375851.671 7  87565746.99146  21384389.453                    21384395.766
 114042273.574 8  88864239.954 7  21701541.195                    21701552.242
 114837831.434 8  89484163.37445  21852927.891                    21852936.887
 11  8 26  1 33 30.0000000  0  9G26G04G10G12G05G29G02G25G30
 127468659.961 6  99326341.14142  24256485.164                    24256497.789
 129636744.596 6 101015751.30443  24669032.109                    24669042.723
 120604527.986 7  93977772.39244  22950273.578                    22950282.688
 110904452.042 8  86419179.315 7  21104429.406                    21104437.363
 106494710.099 8  82982995.509 8  20265244.695                    20265252.543
 122090081.982 6  95135188.670 6  23232974.086                    23232983.121
 112409592.270 8  87592038.37446  21390809.930                    21390816.102
 114020908.839 8  88847592.123 7  21697475.445                    21697486.168
 114822499.969 8  89472216.78745  21850010.477                    21850019.406
 11  8 26  1 34  0.0000000  0  8G26G10G12G05G29G02G25G30
 127374115.245 6  99252670.07342  24238494.953                    24238505.750
 120702198.381 7  94053879.16444  22968859.453                    22968869.113
 110948390.179 8  86453416.808 7  21112790.594                    21112798.863
 106502604.748 8  82989147.197 8  20266746.852                    20266754.473
 122006290.345 6  95069896.560 6  23217028.664                    23217038.293
 112443426.361 8  87618402.61046  21397248.586                    21397254.715
 114000117.627 8  88831391.189 7  21693519.266                    21693529.969
 114807769.436 8  89460738.45045  21847207.258                    21847216.578
 11  8 26  1 34 30.0000000  0  8G26G10G12G05G29G02G25G30
 127279526.099 6  99178964.44643  24220494.859                    24220506.238
 120800117.199 7  94130179.52544  22987493.734                    22987502.391
 110992838.170 8  86488051.585 7  21121248.828                    21121257.113
 106511057.556 8  82995733.817 8  20268355.555                    20268363.699
 121922510.048 7  95004613.284 6  23201086.367                    23201095.504
 112477352.882 8  87644838.87046  21403704.516                    21403710.789
 113979899.676 8  88815636.948 7  21689672.023                    21689682.375
 114793639.091 8  89449727.80045  21844518.336                    21844527.691
 11  8 26  1 35  0.0000000  0  8G26G10G12G05G29G02G25G30
 127184895.455 6  99105226.48042  24202486.461                    24202498.094
 120898281.379 7  94206671.05644  23006173.477                    23006182.613
 111037794.163 8  86523082.215 7  21129803.625                    21129812.215
 106520066.973 8  83002754.162 8  20270070.164                    20270077.832
 121838742.185 7  94939339.704 6  23185146.047                    23185154.953
 112511371.133 8  87671346.59746  21410177.820                    21410184.223
 113960255.283 8  88800329.653 7  21685933.586                    21685944.223
 114780108.832 8  89439184.75445  21841944.000                    21841952.754
 11  8 26  1 35 30.0000000  0  8G26G10G12G05G29G02G25G30
 127090226.614 6  99031458.77443  24184472.227                    24184482.676
 120996688.016 6  94283351.52544  23024899.508                    23024908.840
 111083256.145 8  86558507.123 7  21138454.719                    21138462.719
 106529632.321 8  83010207.692 8  20271889.836                    20271897.883
 121754988.347 7  94874077.022 6  23169207.797                    23169216.746
 112545480.711 8  87697925.49946  21416668.930                    21416674.770
 113941185.001 8  88785469.699 7  21682304.883                    21682315.434
 114767178.750 8  89429109.39345  21839483.266                    21839492.449
 11  8 26  1 36  0.0000000  0  8G26G10G12G05G29G02G25G30
 126995522.821 6  98957663.75843  24166449.828                    24166461.598
 121095334.357 6  94360218.76644  23043671.023                    23043680.754
 111129221.793 8  86594324.491 7  21147201.305                    21147210.227
 106539752.511 8  83018093.579 8  20273815.727                    20273823.703
 121671250.059 7  94808826.481 6  23153273.094                    23153281.477
 112579681.163 8  87724575.20846  21423176.680                    21423182.730
 113922689.099 8  88771057.321 7  21678785.047                    21678795.738
 114754848.716 8  89419501.58445  21837136.781                    21837145.863
 11  8 26  1 36 30.0000000  0  8G26G10G12G05G29G02G25G30
 126900787.304 6  98883844.10143  24148421.719                    24148433.699
 121194217.859 6  94437270.80044  23062487.766                    23062497.926
 111175689.806 8  86630533.323 7  21156044.031                    21156052.547
 106550427.310 8  83026411.626 8  20275847.086                    20275854.859
 121587529.370 7  94743589.635 6  23137341.688                    23137350.285
 112613972.583 8  87751295.79746  21429702.422                    21429708.574
 113904768.422 8  88757093.165 7  21675374.547                    21675385.566
 114743119.172 8  89410361.70945  21834904.789                    21834913.465
 11  8 26  1 37  0.0000000  0  8G26G10G12G05G29G02G25G30
 126806023.451 6  98810002.32343  24130388.922                    24130400.699
 121293335.341 6  94514505.17444  23081349.648                    23081359.332
 111222658.315 8  86667132.147 7  21164981.977                    21164990.082
 106561655.230 8  83035160.673 8  20277983.938                    20277991.836
 121503827.445 7  94678367.422 6  23121413.086                    23121422.754
 112648354.427 8  87778086.85346  21436244.953                    21436250.828
 113887423.291 8  88743577.495 7  21672074.305                    21672084.906
 114731989.940 8  89401689.59645  21832786.844                    21832796.070
 11  8 26  1 37 30.0000000  0  8G26G10G12G05G29G02G25G30
 126711234.235 6  98736140.82343  24112350.703                    24112362.500
 121392683.909 6  94591919.60044  23100255.039                    23100264.176
 111270125.322 8  86704119.415 7  21174014.656                    21174023.109
 106573434.949 8  83044339.694 8  20280225.352                    20280233.516
 121420145.899 7  94613161.071 6  23105489.500                    23105498.195
 112682826.245 8  87804948.02046  21442804.867                    21442810.867
 113870653.742 8  88730510.322 7  21668882.680                    21668893.520
 114721460.779 8  89393485.06345  21830783.328                    21830792.043
 11  8 26  1 38  0.0000000  0  8G26G10G12G05G29G02G25G30
 126616423.011 6  98662262.11242  24094308.586                    24094319.875
 121492261.062 6  94669512.14544  23119204.039                    23119213.273
 111318088.963 8  86741493.671 7  21183142.016                    21183150.207
 106585765.945 8  83053948.284 8  20282571.789                    20282579.813
 121336486.317 7  94547971.830 6  23089569.727                    23089578.258
 112717387.802 8  87831879.10946  21449381.148                    21449387.984
 113854460.476 8  88717892.187 7  21665801.234                    21665812.215
 114711531.794 7  89385748.20645  21828893.664                    21828902.430
 11  8 26  1 38 30.0000000  0  8G26G10G12G05G29G02G25G30
 126521592.769 6  98588368.63443  24076263.234                    24076274.930
 121592063.444 6  94747280.19744  23138195.898                    23138204.672
 111366546.642 8  86779252.889 7  21192363.336                    21192371.648
 106598646.359 8  83063984.988 8  20285022.867                    20285030.871
 121252850.129 7  94482800.801 6  23073653.773                    23073663.063
 112752038.309 8  87858879.50046  21455974.898                    21455981.676
 113838843.255 8  88705722.921 7  21662829.594                    21662840.379
 114702202.439 8  89378478.60245  21827118.625                    21827127.387
 11  8 26  1 39  0.0000000  0  8G26G10G12G05G29G02G25G30
 126426747.022 6  98514463.02143  24058214.633                    24058225.156
 121692088.494 7  94825221.77244  23157229.773                    23157239.445
 111415496.452 8  86817395.581 7  21201678.047                    21201686.355
 106612075.803 8  83074449.513 8  20287578.211                    20287586.055
 121169239.155 7  94417649.435 6  23057743.078                    23057752.047
 112786777.905 8  87885949.31746  21462585.703                    21462592.227
 113823802.767 8  88694003.055 7  21659967.648                    21659978.383
 114693472.940 8  89371676.41245  21825457.648                    21825466.492
 11  8 26  1 39 30.0000000  0  8G26G10G12G05G29G02G25G30
 126331888.850 6  98440547.74943  24040164.063                    24040175.191
 121792333.172 7  94903334.47544  23176306.156                    23176315.504
 111464936.401 8  86855920.205 7  21211086.141                    21211094.371
 106626052.816 8  83085340.718 8  20290238.117                    20290245.711
 121085654.895 7  94352518.862 6  23041837.414                    23041846.195
 112821606.035 8  87913088.12146  21469213.266                    21469219.246
 113809339.083 8  88682732.646 7  21657215.141                    21657226.199
 114685342.912 8  89365341.33745  21823910.273                    21823919.250
 11  8 26  1 40  0.0000000  0  8G26G10G12G05G29G02G25G30
 126237021.400 6  98366625.22343  24022111.383                    24022121.324
 121892794.877 7  94981616.30944  23195423.063                    23195432.637
 111514864.370 8  86894825.111 7  21220586.969                    21220595.625
 106640576.092 8  83096657.578 8  20293001.867                    20293009.770
 121002098.855 7  94287410.267 6  23025937.492                    23025946.543
 112856522.483 8  87940295.75546  21475857.922                    21475864.207
 113795452.381 8  88671911.833 7  21654572.305                    21654583.445
 114677812.141 8  89359473.21445  21822477.211                    21822486.113
 11  8 26  1 40 30.0000000  0  8G26G10G12G05G29G02G25G30
 126142148.135 6  98292698.15642  24004057.297                    24004067.973
 121993470.597 7  95060064.89244  23214581.336                    23214590.262
 111565278.613 8  86934108.922 7  21230180.594                    21230189.031
 106655644.537 8  83108399.248 8  20295869.289                    20295877.215
 120918572.512 7  94222324.825 6  23010043.000                    23010051.895
 112891526.781 8  87967571.83246  21482518.922                    21482525.133
 113782142.799 8  88661540.718 7  21652039.867                    21652050.668
 114670880.300 7  89354071.79845  21821158.180                    21821166.855
 11  8 26  1 41  0.0000000  0  8G26G10G12G05G29G02G25G30
 126047272.248 6  98218769.05443  23986002.648                    23986013.293
 122094357.784 7  95138678.25544  23233779.242                    23233788.344
 111616176.769 8  86973769.824 7  21239866.477                    21239874.391
 106671256.992 8  83120564.814 8  20298839.773                    20298847.910
 120835077.637 7  94157263.874 6  22994154.227                    22994162.504
 112926618.670 8  87994916.15746  21489196.586                    21489202.941
 113769410.746 8  88651619.624 7  21649617.195                    21649627.934
 114664547.332 7  89349137.01946  21819952.977                    21819962.113
 11  8 26  1 41 30.0000000  0  8G26G10G12G05G29G02G25G30
 125952397.023 6  98144840.45842  23967948.984                    23967958.691
 122195453.236 7  95217453.91144  23253017.719                    23253026.758
 111667556.608 8  87013806.045 7  21249643.305                    21249651.898
 106687412.057 8  83133153.195 8  20301913.992                    20301922.238
 120751615.796 7  94092228.675 6  22978271.711                    22978280.871
 112961797.670 8  88022328.37746  21495891.039                    21495897.293
 113757256.073 8  88642148.444 7  21647304.234                    21647315.020
 114658812.629 7  89344668.41645  21818861.656                    21818870.738
 11  8 26  1 42  0.0000000  0  8G26G10G12G05G29G02G25G30
 125857525.631 5  98070914.90142  23949894.648                    23949905.527
 122296754.282 7  95296389.75944  23272293.758                    23272303.590
 111719415.854 8  87054215.843 7  21259511.766                    21259520.250
 106704108.402 8  83146163.353 8  20305091.406                    20305099.367
 120668188.603 7  94027220.469 6  22962396.516                    22962404.895
 112997063.446 8  88049808.20146  21502602.070                    21502608.074
 113745678.906 8  88633127.268 7  21645101.258                    21645112.020
 114653675.966 7  89340665.81745  21817884.609                    21817893.445
 11  8 26  1 42 30.0000000  0  8G26G10G12G05G29G02G25G30
 125762661.785 6  97996995.19742  23931841.719                    23931853.441
 122398258.118 7  95375483.61344  23291609.828                    23291619.309
 111771752.839 8  87094997.896 7  21269471.188                    21269479.523
 106721345.332 8  83159594.743 8  20308371.570                    20308379.059
 120584798.098 7  93962240.845 6  22946528.047                    22946536.668
 113032415.932 8  88077355.59546  21509329.461                    21509335.449
 113734679.564 8  88624556.346 7  21643008.039                    21643018.668
 114649137.132 8  89337129.06245  21817020.555                    21817029.574
 11  8 26  1 43  0.0000000  0  8G26G10G12G05G29G02G25G30
 125667808.499 6  97923083.71542  23913792.500                    23913803.875
 122499961.920 7  95454733.30443  23310963.398                    23310972.582
 111824565.385 8  87136150.514 7  21279521.508                    21279529.750
 106739121.192 8  83173446.075 8  20311754.188                    20311761.992
 120501445.552 7  93897290.816 6  22930666.141                    22930675.148
 113067854.567 8  88104970.10846  21516073.094                    21516079.270
 113724257.982 8  88616435.623 7  21641025.094                    21641035.402
 114645195.627 7  89334057.74946  21816270.484                    21816279.641
 11  8 26  1 43 30.0000000  0  8G26G10G12G05G29G02G25G30
 125572969.293 6  97849183.17442  23895745.016                    23895755.832
 122601863.288 7  95534136.92244  23330354.531                    23330363.621
 111877850.925 8  87177671.698 7  21289661.125                    21289669.730
 106757435.171 8  83187716.726 8  20315239.023                    20315247.242
 120418132.933 7  93832371.892 6  22914812.734                    22914821.266
 113103379.706 8  88132652.04146  21522833.406                    21522839.473
 113714414.429 8  88608765.319 7  21639151.758                    21639162.266
 114641851.285 7  89331451.74845  21815634.117                    21815642.738
 11  8 26  1 44  0.0000000  0  8G26G10G12G05G29G02G25G30
 125478146.983 6  97775295.79943  23877701.078                    23877711.676
 122703959.032 7  95613692.03543  23349782.703                    23349792.641
 111931606.970 7  87219559.507 7  21299890.570                    21299898.902
 106776284.996 8  83202404.914 8  20318826.078                    20318833.887
 120334861.545 7  93767485.103 7  22898966.242                    22898975.574
 113138990.389 8  88160400.62946  21529609.844                    21529615.656
 113705148.414 7  88601545.043 7  21637388.469                    21637398.949
 114639103.214 8  89329310.38445  21815111.328                    21815120.090
 11  8 26  1 44 30.0000000  0  8G26G10G12G05G29G02G25G30
 125383345.231 6  97701424.46443  23859660.523                    23859671.129
 122806246.198 7  95693396.28444  23369247.398                    23369257.082
 111985832.017 8  87261812.773 7  21310209.180                    21310217.684
 106795669.605 8  83217509.816 8  20322514.930                    20322522.648
 120251633.218 7  93702631.866 7  22883128.695                    22883137.508
 113174686.508 8  88188215.77546  21536402.563                    21536408.484
 113696460.097 8  88594774.926 7  21635734.891                    21635745.742
 114636951.023 8  89327633.34845  21814701.430                    21814710.387
 11  8 26  1 45  0.0000000  0  8G26G10G12G05G29G02G25G30
 125288567.552 6  97627571.85043  23841624.969                    23841635.352
 122908721.863 7  95773247.40443  23388747.789                    23388757.395
 112040523.291 8  87304429.336 7  21320616.648                    21320625.168
 106815587.867 8  83233030.551 8  20326305.047                    20326312.969
 120168449.893 7  93637813.711 7  22867299.453                    22867308.285
 113210468.003 8  88216097.46346  21543211.430                    21543217.570
 113688349.506 8  88588454.985 7  21634191.625                    21634202.598
 114635394.444 8  89326420.42745  21814405.398                    21814414.324
 11  8 26  1 45 30.0000000  0  8G26G10G12G05G29G02G25G30
 125193817.160 6  97553740.51543  23823594.813                    23823604.848
 123011383.572 7  95853243.51944  23408283.375                    23408292.766
 112095678.518 8  87347407.416 7  21331112.086                    21331120.711
 106836038.242 8  83248965.916 8  20330196.875                    20330204.605
 120085313.015 7  93573031.759 7  22851478.969                    22851487.863
 113246334.330 8  88244045.25246  21550036.445                    21550042.781
 113680816.543 8  88582585.146 7  21632758.219                    21632768.965
 114634432.711 7  89325671.01945  21814222.484                    21814231.391
 11  8 26  1 46  0.0000000  0  8G26G10G12G05G29G02G25G30
 125099097.071 6  97479932.80343  23805569.531                    23805579.738
 123114228.579 7  95933382.45743  23427854.391                    23427864.016
 112151295.305 8  87390745.151 7  21341696.102                    21341704.395
 106857019.050 8  83265314.612 8  20334189.234                    20334197.422
 120002224.229 7  93508287.281 7  22835667.492                    22835676.324
 113282285.196 8  88272058.91346  21556877.930                    21556883.898
 113673860.856 8  88577165.131 7  21631434.398                    21631445.359
 114634065.248 8  89325384.68245  21814152.461                    21814161.902
 11  8 26  1 46 30.0000000  0  8G26G10G12G05G29G02G25G30
 125004411.257 6  97406151.78943  23787552.000                    23787561.766
 123217254.024 7  96013662.00643  23447460.055                    23447469.031
 112207371.635 8  87434440.977 7  21352367.000                    21352375.523
 106878529.302 8  83282075.855 8  20338282.695                    20338290.336
 119919185.300 7  93443581.669 6  22819866.031                    22819874.855
 113318320.774 8  88300138.58346  21563735.148                    21563742.063
 113667482.658 8  88572195.108 7  21630220.688                    21630231.441
 114634291.687 8  89325561.11545  21814195.445                    21814204.438
 11  8 26  1 47  0.0000000  0  8G26G10G12G05G29G02G25G30
 124909762.931 6  97332399.98043  23769540.320                    23769550.828
 123320457.541 7  96094080.28344  23467098.969                    23467107.973
 112263905.576 7  87478493.365 7  21363125.102                    21363133.301
 106900567.879 8  83299248.779 8  20342476.594                    20342484.254
 119836198.275 7  93378916.512 7  22804073.969                    22804082.617
 113354440.793 8  88328284.04546  21570608.820                    21570614.711
 113661681.890 8  88567675.033 7  21629116.719                    21629127.672
 114635111.529 8  89326199.94345  21814351.539                    21814360.715
 11  8 26  1 47 30.0000000  0  8G26G10G12G05G29G02G25G30
 124815155.380 6  97258679.93443  23751536.898                    23751547.746
 123423835.880 7  96174634.83243  23486770.586                    23486780.434
 112320894.711 8  87522900.467 7  21373969.477                    21373978.016
 106923132.855 8  83316831.881 8  20346770.289                    20346777.871
 119753264.877 7  93314293.136 6  22788291.953                    22788300.547
 113390644.685 8  88356494.87346  21577497.898                    21577504.219
 113656458.153 8  88563604.579 7  21628122.789                    21628133.738
 114636523.902 8  89327300.47745  21814620.336                    21814629.504
 11  8 26  1 48  0.0000000  0  9G26G15G10G12G05G29G02G25G30
 124720591.875 6  97184994.19144  23733541.891                    23733551.805
 129507368.76016                  24644440.719
 123527386.123 7  96255323.29043  23506475.805                    23506485.074
 112378336.150 7  87567660.009 7  21384900.477                    21384908.867
 106946222.308 8  83334823.673 8  20351164.078                    20351171.859
 119670386.490 7  93249712.622 6  22772520.695                    22772529.625
 113426932.301 8  88384770.93646  21584403.117                    21584409.371
 113651811.130 8  88559983.511 7  21627238.703                    21627249.438
 114638528.099 7  89328862.17645  21815001.586                    21815010.723
 11  8 26  1 48 30.0000000  0  9G26G15G10G12G05G29G02G25G30
 124626075.723 6  97111345.36444  23715556.125                    23715566.617
 129414681.053 6 100842679.76715  24626802.133                    24626815.367
 123631105.499 7  96336143.57643  23526212.977                    23526222.383
 112436226.920 7  87612769.670 7  21395916.742                    21395924.961
 106969834.747 8  83353222.989 8  20355657.563                    20355665.008
 119587564.626 7  93185176.160 7  22756759.859                    22756769.293
 113463303.365 8  88413112.02946  21591324.453                    21591330.980
 113647740.381 8  88556811.493 7  21626464.031                    21626474.703
 114641123.139 7  89330884.27245  21815495.852                    21815504.734
 11  8 26  1 49  0.0000000  0  9G26G15G10G12G05G29G02G25G30
 124531610.187 6  97037735.99443  23697580.023                    23697590.121
 129321856.732 5 100770349.483 5  24609138.320                    24609151.277
 123734991.474 7  96417093.66543  23545982.188                    23545992.004
 112494565.422 7  87658228.221 7  21407018.586                    21407026.746
 106993969.048 8  83372028.940 8  20360250.031                    20360257.820
 119504801.326 7  93120685.336 6  22741010.680                    22741019.680
 113499757.792 8  88441518.07846  21598261.414                    21598267.906
 113644245.732 8  88554088.395 7  21625798.914                    21625809.793
 114644308.485 7  89333366.34745  21816101.367                    21816110.645
 11  8 26  1 49 30.0000000  0  9G26G15G10G12G05G29G02G25G30
 124437199.252 7  96964169.16344  23679614.117                    23679624.234
 129228898.31215 100697914.72915  24591448.625                    24591461.625
 123839041.480 7  96498171.56943  23565781.969                    23565791.766
 112553349.199 7  87704033.745 7  21418204.258                    21418212.523
 107018623.663 8  83391240.335 8  20364941.727                    20364949.523
 119422098.740 7  93056241.811 6  22725272.766                    22725282.039
 113536295.381 8  88469988.93346  21605214.367                    21605220.418
 113641327.115 8  88551814.152 7  21625243.914                    21625253.961
 114648083.548 7  89336307.94245  21816820.000                    21816829.273
 11  8 26  1 50  0.0000000  0  9G26G15G10G12G05G29G02G25G30
 124342846.307 6  96890647.50744  23661658.914                    23661668.980
 129135808.506 5 100625377.652 6  24573733.711                    24573745.711
 123943252.757 6  96579375.13143  23585613.063                    23585622.199
 112612575.908 8  87750184.401 7  21429474.852                    21429483.016
 107043797.088 8  83410855.997 8  20369731.953                    20369739.738
 119339458.596 7  92991846.939 7  22709546.961                    22709555.648
 113572916.017 7  88498524.50246  21612183.211                    21612189.371
 113638984.281 8  88549988.557 7  21624797.898                    21624808.352
 114652447.597 7  89339708.48245  21817650.680                    21817659.805
 11  8 26  1 50 30.0000000  0  9G26G15G10G12G05G29G02G25G30
 124248555.001 6  96817173.87344  23643715.828                    23643726.555
 129042590.024 5 100552740.265 6  24555993.531                    24556006.762
 124047622.658 6  96660702.30543  23605473.094                    23605483.008
 112672243.548 7  87796678.649 7  21440829.078                    21440837.504
 107069488.117 8  83430874.983 8  20374620.781                    20374628.500
 119256882.794 7  92927502.212 6  22693833.695                    22693842.121
 113609619.918 8  88527124.95146  21619167.906                    21619174.027
 113637217.136 7  88548611.541 7  21624461.359                    21624472.203
 114657400.055 7  89343567.51945  21818593.102                    21818601.992
 11  8 26  1 51  0.0000000  0  9G26G15G10G12G05G29G02G25G30
 124154328.162 6  96743750.50343  23625785.273                    23625794.605
 128949244.884 6 100480004.179 6  24538231.758                    24538243.754
 124152148.150 6  96742150.72443  23625364.125                    23625373.844
 112732348.975 8  87843514.026 7  21452266.891                    21452275.184
 107095694.363 8  83451295.442 8  20379607.305                    20379615.094
 119174373.014 7  92863208.915 7  22678132.281                    22678141.121
 113646406.257 8  88555789.64746  21626167.797                    21626173.695
 113636024.884 8  88547682.506 7  21624234.453                    21624245.348
 114662939.751 7  89347884.15145  21819647.594                    21819656.109
 11  8 26  1 51 30.0000000  0  9G26G15G10G12G05G29G02G25G30
 124060169.541 6  96670380.25843  23607866.719                    23607876.758
 128855775.801 6 100407171.506 6  24520444.891                    24520457.191
 124256826.891 6  96823718.53743  23645283.703                    23645293.395
 112792890.289 8  87890689.054 7  21463787.781                    21463796.145
 107122414.447 8  83472116.300 8  20384692.383                    20384700.012
 119091930.871 7  92798968.325 7  22662444.383                    22662452.766
 113683275.147 8  88584518.65646  21633183.852                    21633189.777
 113635407.210 8  88547201.211 7  21624117.148                    21624127.832
 114669065.893 7  89352657.75845  21820812.914                    21820821.848
 11  8 26  1 52  0.0000000  0  9G26G15G10G12G05G29G02G25G30
 123966082.696 6  96597065.95544  23589962.922                    23589973.195
 128762185.197 6 100334244.123 6  24502634.570                    24502646.965
 124361655.824 6  96905403.39043  23665232.180                    23665242.000
 112853864.755 7  87938201.604 7  21475390.500                    21475399.719
 107149646.915 7  83493336.412 8  20389874.531                    20389882.145
 119009558.311 7  92734781.964 7  22646768.805                    22646777.875
 113720226.369 8  88613311.82046  21640215.000                    21640221.645
 113635363.716 8  88547167.315 7  21624108.750                    21624119.605
 114675777.534 8  89357887.58045  21822090.313                    21822098.605
 11  8 26  1 52 30.0000000  0  9G26G15G10G12G05G29G02G25G30
 123872071.302 6  96523810.43244  23572073.047                    23572082.570
 128668475.771 6 100261224.161 6  24484802.172                    24484814.313
 124466632.492 6  96987203.38343  23685208.586                    23685218.668
 112915269.708 8  87986049.594 7  21487075.539                    21487084.063
 107177390.574 8  83514954.860 8  20395154.258                    20395161.887
 118927257.559 7  92670651.544 7  22631107.711                    22631116.254
 113757260.334 8  88642169.45946  21647262.711                    21647268.949
 113635894.330 8  88547580.787 7  21624209.617                    21624220.316
 114683074.148 8  89363573.23245  21823478.359                    21823487.852
 11  8 26  1 53  0.0000000  0  9G26G15G10G12G05G29G02G25G30
 123778138.449 6  96450616.07144  23554198.633                    23554207.652
 128574649.884 6 100188113.444 6  24466947.563                    24466959.523
 124571754.140 6  97069116.29943  23705212.680                    23705222.379
 112977102.959 8  88034231.338 7  21498842.086                    21498850.754
 107205643.221 8  83536969.915 8  20400530.047                    20400537.961
 118845030.097 7  92606578.234 7  22615460.586                    22615468.777
 113794376.482 8  88671091.14146  21654325.609                    21654331.422
 113636998.175 8  88548440.921 7  21624419.789                    21624430.750
 114690954.452 7  89369713.70745  21824978.398                    21824987.270
 11  8 26  1 53 30.0000000  0  9G26G15G10G12G05G29G02G25G30
 123684287.296 6  96377485.41744  23536338.656                    23536349.012
 128480710.007 6 100114913.884 6  24449071.164                    24449082.363
 124677017.897 7  97151139.97843  23725244.070                    23725253.621
 113039361.423 8  88082744.414 7  21510689.539                    21510697.672
 107234402.582 8  83559379.817 8  20406002.898                    20406010.102
 118762877.393 7  92542563.184 7  22599826.953                    22599835.770
 113831574.022 8  88700076.24746  21661403.750                    21661410.195
 113638674.375 8  88549747.050 7  21624738.781                    21624749.691
 114699417.100 8  89376307.96745  21826588.953                    21826597.551
 11  8 26  1 54  0.0000000  0  9G26G15G10G12G05G29G02G25G30
 123590521.996 7  96304421.66344  23518495.953                    23518505.637
 128386658.570 6 100041627.400 6  24431173.859                    24431184.789
 124782421.527 7  97233272.66143  23745301.672                    23745310.980
 113102043.089 7  88131587.259 7  21522617.531                    21522626.145
 107263667.905 8  83582183.976 8  20411572.016                    20411579.508
 118680801.874 7  92478608.278 7  22584208.672                    22584217.129
 113868853.572 8  88729125.25346  21668498.313                    21668503.910
 113640923.072 8  88551499.277 7  21625166.586                    21625177.211
 114708461.722 8  89383355.71145  21828309.578                    21828318.832
 11  8 26  1 54 30.0000000  0  9G26G15G10G12G05G29G02G25G30
 123496845.852 7  96231427.36144  23500669.289                    23500679.461
 128292498.125 6  99968255.959 6  24413254.367                    24413266.164
 124887962.150 7  97315512.09544  23765385.125                    23765394.348
 113165145.775 7  88180758.169 7  21534625.430                    21534634.160
 107293437.063 7  83605380.741 8  20417236.703                    20417244.270
 118598805.282 7  92414714.866 7  22568605.617                    22568613.977
 113906214.881 7  88758237.97946  21675607.461                    21675613.645
 113643743.471 8  88553697.002 7  21625703.414                    21625713.816
 114718087.120 7  89390856.02245  21830141.328                    21830150.660
 11  8 26  1 55  0.0000000  0  9G26G15G10G12G05G29G02G25G30
 123403262.368 7  96158505.27844  23482861.133                    23482871.449
 128198231.184 6  99894801.534 6  24395315.953                    24395327.867
 124993637.058 7  97397856.15843  23785494.711                    23785504.027
 113228665.956 8  88230254.401 7  21546713.125                    21546721.672
 107323708.257 8  83628968.690 8  20422997.305                    20423004.844
 118516889.505 7  92350884.424 7  22553017.250                    22553025.973
 113943657.930 7  88787414.37946  21682732.867                    21682739.078
 113647134.987 8  88556339.751 7  21626348.758                    21626359.801
 114728292.244 8  89398808.08045  21832083.625                    21832092.297
 11  8 26  1 55 30.0000000  0  9G26G15G10G12G05G29G02G25G30
 123309775.066 7  96085658.13744  23465071.211                    23465080.867
 128103860.287 6  99821266.129 6  24377358.469                    24377368.816
 125099443.709 7  97480302.87743  23805628.805                    23805638.316
 113292601.497 7  88280074.288 7  21558879.477                    21558888.090
 107354479.837 7  83652946.563 8  20428852.992                    20428860.320
 118435056.401 7  92287118.407 7  22537444.695                    22537453.453
 113981182.356 7  88816654.19145  21689873.477                    21689879.613
 113651097.046 8  88559427.079 7  21627103.070                    21627113.031
 114739076.015 8  89407211.03445  21834135.367                    21834144.516
 11  8 26  1 56  0.0000000  0  9G26G15G10G12G05G29G02G25G30
 123216387.239 7  96012888.47443  23447299.703                    23447310.008
 128009388.195 6  99747651.846 5  24359380.297                    24359390.945
 125205379.220 7  97562850.01443  23825788.133                    23825797.379
 113356949.558 8  88330215.624 7  21571124.773                    21571133.641
 107385749.991 8  83677312.932 8  20434803.328                    20434811.063
 118353307.861 7  92223418.303 7  22521888.570                    22521897.254
 114018788.100 7  88845957.37445  21697029.375                    21697035.711
 113655628.854 8  88562958.367 7  21627965.266                    21627976.191
 114750437.141 8  89416063.87145  21836297.313                    21836306.250
 11  8 26  1 56 30.0000000  0  9G26G15G10G12G05G29G02G25G30
 123123102.720 7  95940199.35044  23429548.703                    23429558.363
 127914817.817 6  99673960.943 5  24341382.813                    24341394.762
 125311441.004 7  97645495.54943  23845971.125                    23845980.074
 113421708.325 7  88380676.986 7  21583447.758                    21583456.207
 107417517.151 8  83702066.574 8  20440848.477                    20440855.852
 118271646.125 7  92159785.836 7  22506348.883                    22506357.637
 114056475.128 7  88875323.88945  21704201.219                    21704207.309
 113660729.945 8  88566933.247 7  21628936.047                    21628946.813
 114762374.793 8  89425365.95445  21838569.039                    21838578.301
 11  8 26  1 57  0.0000000  0  9G26G15G10G12G05G29G02G25G30
 123029924.896 7  95867593.34444  23411817.602                    23411826.543
 127820151.242 6  99600195.052 5  24323368.602                    24323379.543
 125417626.319 6  97728237.33543  23866176.930                    23866186.660
 113486874.653 7  88431455.936 7  21595848.336                    21595857.598
 107449779.149 8  83727205.808 8  20446987.344                    20446995.555
 118190072.670 7  92096222.148 7  22490825.695                    22490834.590
 114094243.336 7  88904753.67045  21711387.953                    21711394.512
 113666399.489 8  88571351.080 7  21630014.594                    21630025.730
 114774887.601 8  89435116.20645  21840950.180                    21840959.309
 11  8 26  1 57 30.0000000  0  9G26G15G10G12G05G29G02G25G30
 122936857.034 7  95795073.02944  23394107.242                    23394116.527
 127725391.109 6  99526356.269 5  24305336.398                    24305347.246
 125523932.724 6  97811073.47143  23886406.961                    23886415.934
 113552445.415 7  88482550.029 7  21608326.492                    21608335.004
 107482534.279 8  83752729.309 8  20453220.758                    20453228.629
 118108589.793 7  92032729.053 7  22475320.188                    22475328.418
 114132092.775 7  88934246.73245  21718590.703                    21718596.617
 113672636.788 8  88576211.312 7  21631201.555                    21631212.246
 114787974.314 8  89445313.65545  21843440.336                    21843449.223
 11  8 26  1 58  0.0000000  0  9G26G15G10G12G05G29G02G25G30
 122843902.986 7  95722641.36444  23376418.320                    23376428.000
 127630539.900 7  99452446.507 5  24287287.156                    24287297.234
 125630357.561 6  97894001.90143  23906657.977                    23906667.719
 113618418.539 7  88533957.651 7  21620880.703                    21620889.125
 107515780.612 8  83778635.548 8  20459547.266                    20459554.898
 118027199.017 7  91969307.718 7  22459831.742                    22459840.516
 114170023.288 7  88963802.97845  21725808.742                    21725814.684
 113679441.115 8  88581513.379 7  21632496.492                    21632507.320
 114801633.785 8  89455957.41045  21846039.609                    21846048.750
 11  8 26  1 58 30.0000000  0  9G26G15G10G12G05G29G02G25G30
 122751066.306 7  95650301.18644  23358752.148                    23358762.031
 127535600.558 7  99378468.072 6  24269220.328                    24269230.301
 125736898.211 6  97977020.56743  23926932.594                    23926941.598
 113684791.337 7  88585676.691 7  21633510.828                    21633519.492
 107549516.421 8  83804923.206 8  20465966.766                    20465974.551
 117945902.382 7  91905959.734 7  22444361.703                    22444370.559
 114208034.760 8  88993422.30745  21733042.172                    21733048.504
 113686811.764 8  88587256.737 7  21633899.195                    21633909.801
 114815864.887 8  89467046.58945  21848747.742                    21848756.898
 11  8 26  1 59  0.0000000  0  9G26G15G10G12G05G29G02G25G30
 122658350.319 7  95578055.04244  23341108.891                    23341118.000
 127440575.681 7  99304422.938 6  24251137.695                    24251148.113
 125843552.170 6  98060127.52543  23947228.242                    23947237.547
 113751561.537 7  88637705.398 7  21646217.031                    21646225.570
 107583739.842 8  83831590.822 8  20472479.398                    20472486.898
 117864702.048 7  91842686.794 7  22428910.102                    22428918.172
 114246126.909 8  89023104.50745  21740290.789                    21740296.621
 113694747.914 8  88593440.747 7  21635409.102                    21635419.977
 114830666.313 8  89478580.17245  21851564.688                    21851573.504
 11  8 26  1 59 30.0000000  0  9G26G15G10G12G05G29G02G25G30
 122565759.022 6  95505906.09544  23323488.930                    23323499.016
 127345466.46017  99230312.87116  24233039.320                    24233049.465
 125950316.94416  98143320.85653  23967544.555                    23967554.207
 113818725.768 7  88690041.155 7  21658997.586                    21659005.813
 107618449.153 8  83858637.046 8  20479084.484                    20479092.305
 117783600.023 7  91779490.451 7  22413476.227                    22413484.867
 114284300.291 8  89052849.99945  21747554.828                    21747561.082
 113703248.856 8  88600064.848 7  21637026.813                    21637037.578
 114846036.880 8  89490557.24645  21854489.406                    21854498.266
 11  8 26  2  0  0.0000000  0  9G26G15G10G12G05G29G02G25G30
 122473295.569 7  95433856.72144  23305893.633                    23305903.551
 127250277.465 7  99156139.859 6  24214924.891                    24214935.477
 126057189.471 6  98226598.14743  23987882.250                    23987891.605
 113886281.290 7  88742681.811 7  21671853.367                    21671861.961
 107653641.836 8  83886059.932 8  20485781.438                    20485789.512
 117702597.913 7  91716371.960 7  22398062.180                    22398070.504
 114322554.462 8  89082658.44745  21754834.508                    21754840.961
 113712313.368 8  88607128.099 7  21638751.813                    21638762.516
 114861974.910 8  89502976.49045  21857522.445                    21857530.770
 11  8 26  2  0 30.0000000  0  9G26G15G10G12G05G29G02G25G30
 122380963.480 7  95361909.71544  23288323.539                    23288333.133
 127155010.771 6  99081906.270 6  24196795.961                    24196806.402
 126164167.547 6  98309957.64143  24008239.031                    24008248.492
 113954225.801 7  88795625.563 7  21684782.609                    21684791.309
 107689316.492 8  83913858.374 8  20492569.930                    20492578.012
 117621697.995 7  91653333.092 7  22382667.945                    22382676.047
 114360889.521 7  89112529.92045  21762129.367                    21762135.609
 113721940.887 8  88614630.056 7  21640583.891                    21640594.699
 114878479.423 8  89515837.15245  21860663.180                    21860671.832
 11  8 26  2  1  0.0000000  0  9G26G15G10G12G05G29G02G25G30
 122288766.733 7  95290068.18544  23270778.852                    23270789.102
 127059669.184 6  99007614.331 6  24178653.117                    24178663.316
 126271248.579 6  98393397.38743  24028616.031                    24028625.691
 114022556.686 7  88848870.399 7  21697785.523                    21697793.895
 107725471.426 8  83942031.066 8  20499449.883                    20499457.609
 117540902.343 7  91590375.469 7  22367292.805                    22367301.195
 114399305.493 8  89142464.44545  21769439.344                    21769445.563
 113732130.677 8  88622570.139 7  21642522.891                    21642533.828
 114895549.084 8  89529138.16745  21863911.328                    21863919.938
 11  8 26  2  1 30.0000000  0  9G26G15G10G12G05G29G02G25G30
 122196708.660 6  95218334.69444  23253260.789                    23253270.199
 126964255.167 6  98933265.948 6  24160495.859                    24160506.090
 126378429.926 6  98476915.27643  24049012.492                    24049021.438
 114091270.857 8  88902413.893 7  21710861.477                    21710870.063
 107762104.154 8  83970576.061 8  20506421.133                    20506428.672
 117460212.690 7  91527500.433 7  22351937.828                    22351946.344
 114437802.038 7  89172461.75045  21776765.242                    21776771.438
 113742881.513 8  88630947.396 7  21644568.750                    21644579.391
 114913182.221 8  89542878.25845  21867266.852                    21867276.168
 11  8 26  2  2  0.0000000  0  9G26G15G10G12G05G29G02G25G30
 122104792.960 7  95146712.14844  23235769.789                    23235779.531
 126868771.323 6  98858863.158 6  24142326.031                    24142336.531
 126485709.180 6  98560509.49443  24069426.047                    24069436.109
 114160366.010 7  88956254.265 7  21724009.688                    21724018.500
 107799213.050 8  83999492.083 8  20513482.766                    20513490.625
 117379631.047 7  91464709.561 7  22336603.656                    22336611.871
 114476379.422 7  89202522.05545  21784106.008                    21784112.375
 113754192.717 8  88639761.313 7  21646721.398                    21646732.461
 114931377.700 8  89557056.54145  21870729.281                    21870738.043
 11  8 26  2  2 30.0000000  0  9G26G15G10G12G05G29G02G25G30
 122013023.163 7  95075203.29844  23218306.930                    23218316.434
 126773220.520 6  98784408.190 6  24124142.938                    24124153.254
 126593083.590 6  98644177.83043  24089859.258                    24089869.000
 114229839.003 7  89010389.044 7  21737230.398                    21737238.617
 107836796.139 8  84028777.621 8  20520634.570                    20520642.230
 117299159.807 7  91402004.707 7  22321290.391                    22321298.809
 114515037.557 7  89232645.27545  21791462.836                    21791468.465
 113766063.119 8  88649010.975 7  21648980.266                    21648990.551
 114950134.027 8  89571671.85045  21874298.477                    21874307.625
 11  8 26  2  3  0.0000000  0  9G26G15G10G12G05G29G02G25G30
 121921402.993 7  95003811.00944  23200872.297                    23200881.730
 126677605.399 6  98709903.079 6  24105947.805                    24105957.977
 126700550.700 6  98727918.41843  24110309.359                    24110319.227
 114299687.161 7  89064816.166 7  21750521.734                    21750530.254
 107874851.408 8  84058431.085 8  20527875.758                    20527883.848
 117218800.777 7  91339387.304 7  22305998.539                    22306006.695
 114553776.445 8  89262831.42045  21798834.773                    21798840.785
 113778491.816 8  88658695.669 7  21651345.242                    21651356.285
 114969449.674 8  89586722.98445  21877974.281                    21877983.527
 11  8 26  2  3 30.0000000  0  9G26G15G10G12G05G29G02G25G30
 121829935.952 7  94932538.06944  23183466.203                    23183475.715
 126581928.735 6  98635350.018 6  24087740.836                    24087751.266
 126808108.258 6  98811729.47243  24130776.813                    24130786.492
 114369908.312 7  89119533.939 7  21763884.383                    21763892.836
 107913377.063 8  84088451.087 8  20535207.102                    20535214.867
 117138555.907 7  91276858.848 7  22290728.773                    22290737.191
 114592596.429 8  89293080.75645  21806221.750                    21806227.707
 113791477.903 8  88668814.679 7  21653816.531                    21653827.289
 114989323.315 8  89602208.93245  21881756.219                    21881765.262
 11  8 26  2  4  0.0000000  0  9G26G15G10G12G05G29G02G25G30
 121738625.495 7  94861387.12244  23166090.359                    23166099.551
 126486192.912 6  98560750.812 6  24069523.578                    24069532.836
 126915753.451 6  98895608.81743  24151261.719                    24151271.117
 114440498.748 7  89174539.466 7  21777317.070                    21777325.793
 107952370.666 8  84118835.718 8  20542627.453                    20542635.301
 117058427.297 7  91214420.986 7  22275480.445                    22275489.375
 114631497.071 7  89323392.94845  21813624.016                    21813630.043
 113805020.068 8  88679367.022 7  21656393.469                    21656404.063
 115009753.188 8  89618128.30145  21885643.781                    21885652.492
 11  8 26  2  4 30.0000000  0  9G26G15G10G12G05G29G02G25G30
 121647475.373 7  94790361.13144  23148745.234                    23148754.211
 126390400.762 7  98486107.733 6  24051295.180                    24051304.383
 127023483.381 6  98979554.19943  24171761.664                    24171771.410
 114511455.858 7  89229830.709 7  21790819.797                    21790828.559
 107991830.015 8  84149583.279 8  20550136.305                    20550144.160
 116978416.894 7  91152075.231 7  22260255.039                    22260263.625
 114670478.224 7  89353767.86445  21821042.148                    21821048.402
 113819117.148 8  88690351.750 7  21659076.070                    21659086.820
 115030737.627 8  89634479.80245  21889636.711                    21889645.727
 11  8 26  2  5  0.0000000  0  9G26G15G10G12G05G29G02G25G30
 121556488.920 7  94719462.64944  23131430.898                    23131440.398
 126294554.862 7  98411422.794 6  24033055.281                    24033065.660
 127131296.000 6  99063564.00343  24192277.953                    24192287.480
 114582776.836 7  89285405.487 7  21804391.906                    21804400.559
 108031753.085 8  84180692.169 8  20557733.242                    20557741.031
 116898526.750 7  91089823.179 7  22245052.469                    22245061.371
 114709539.939 7  89384205.57045  21828475.273                    21828481.465
 113833768.130 8  88701768.101 7  21661863.992                    21661874.566
 115052275.200 8  89651262.31845  21893735.008                    21893744.680
 11  8 26  2  5 30.0000000  0  9G26G15G10G12G05G29G02G25G30
 121465669.821 7  94648694.61744  23114148.344                    23114158.438
 126198657.992 7  98336698.122 6  24014806.555                    24014816.801
 127239188.975 6  99147636.42543  24212808.789                    24212818.520
 114654459.149 7  89341261.827 7  21818032.578                    21818040.875
 108072138.334 8  84212161.196 8  20565418.563                    20565426.082
 116818759.406 7  91027666.826 7  22229873.359                    22229881.961
 114748682.593 7  89414706.32645  21835923.797                    21835929.945
 113848971.890 8  88713615.185 7  21664757.203                    21664768.027
 115074364.338 8  89668474.62045  21897938.664                    21897947.762
 11  8 26  2  6  0.0000000  0  9G26G15G10G12G05G29G02G25G30
 121375022.031 7  94578060.03844  23096899.016                    23096908.211
 126102713.410 7  98261936.289 6  23996549.430                    23996558.953
 127347159.633 6  99231769.39643  24233355.086                    24233364.750
 114726500.027 7  89397397.576 7  21831741.422                    21831750.406
 108112983.727 8  84243988.782 8  20573191.164                    20573199.066
 116739116.487 7  90965607.421 7  22214717.516                    22214726.250
 114787906.485 7  89445270.39545  21843388.078                    21843394.164
 113864727.689 8  88725892.429 7  21667755.477                    21667766.375
 115097003.769 8  89686115.73745  21902247.102                    21902256.207
 11  8 26  2  6 30.0000000  0  9G26G15G10G12G05G29G02G25G30
 121284549.075 7  94507561.69344  23079682.117                    23079691.766
 126006723.523 7  98187139.155 6  23978282.930                    23978292.535
 127455205.479 6  99315960.91843  24253915.398                    24253925.316
 114798896.672 7  89453810.543 7  21845518.141                    21845526.727
 108154286.892 8  84276173.080 8  20581050.828                    20581058.555
 116659600.156 7  90903646.657 7  22199586.086                    22199594.641
 114827211.212 7  89475897.45045  21850867.547                    21850873.820
 113881034.082 8  88738598.700 7  21670858.234                    21670868.820
 115120191.612 8  89704184.17745  21906659.523                    21906668.367
 11  8 26  2  7  0.0000000  0  9G26G15G10G12G05G29G02G25G30
 121194254.635 7  94437202.44944  23062499.781                    23062509.371
 125910690.798 6  98112308.623 6  23960007.578                    23960018.465
 127563324.012 6  99400209.10243  24274490.477                    24274499.613
 114871645.959 7  89510498.294 7  21859362.047                    21859370.438
 108196045.547 8  84308712.290 8  20588997.328                    20589005.129
 116580212.121 7  90841785.877 7  22184479.523                    22184487.715
 114866596.669 7  89506587.40745  21858362.195                    21858368.508
 113897889.743 8  88751732.973 7  21674066.039                    21674076.578
 115143926.087 8  89722678.57145  21911176.250                    21911185.027
 11  8 26  2  7 30.0000000  0  9G26G15G10G12G05G29G02G25G30
 121104142.372 7  94366985.20344  23045351.398                    23045361.645
 125814618.456 6  98037447.218 6  23941725.773                    23941735.965
 127671513.073 6  99484512.27642  24295077.430                    24295087.434
 114944745.552 7  89567459.014 7  21873271.992                    21873280.668
 108238258.214 8  84341605.287 8  20597029.906                    20597037.867
 116500955.067 7  90780027.169 7  22169396.914                    22169405.309
 114906063.500 7  89537340.77445  21865872.578                    21865878.895
 113915293.808 8  88765294.577 7  21677378.148                    21677388.355
 115168205.813 8  89741597.83845  21915796.359                    21915805.488
 11  8 26  2  8  0.0000000  0  9G26G15G10G12G05G29G02G25G30
 121014215.727 7  94296912.56544  23028239.016                    23028248.727
 125718508.926 6  97962556.834 6  23923436.844                    23923446.906
 127779769.758 6  99568868.08443  24315678.164                    24315687.660
 115018191.927 7  89624689.952 7  21887248.359                    21887257.117
 108280922.074 8  84374849.863 8  20605148.570                    20605156.258
 116421830.849 7  90718371.962 7  22154340.141                    22154348.863
 114945611.121 7  89568157.07745  21873398.500                    21873404.555
 113933244.569 8  88779282.178 7  21680793.711                    21680804.371
 115193028.726 8  89760940.36545  21920519.914                    21920528.938
 11  8 26  2  8 30.0000000  0  9G26G15G10G12G05G29G02G25G30
 120924478.275 7  94226987.33344  23011162.680                    23011171.941
 125622365.120 6  97887639.733 6  23905140.914                    23905151.035
 127888091.802 6  99653274.87742  24336290.883                    24336301.000
 115091982.523 7  89682189.120 7  21901290.383                    21901298.934
 108324035.202 8  84408444.529 8  20613352.930                    20613360.395
 116342841.546 7  90656821.885 7  22139308.625                    22139317.219
 114985240.068 7  89599036.76345  21880939.070                    21880945.574
 113951740.936 8  88793694.928 7  21684313.266                    21684324.176
 115218393.170 8  89780704.86145  21925346.414                    21925355.262
 11  8 26  2  9  0.0000000  0  9G26G15G10G12G05G29G02G25G30
 120834934.097 7  94157212.71044  22994123.602                    22994132.125
 125526189.799 6  97812698.053 6  23886839.242                    23886849.359
 127996476.919 6  99737730.82543  24356916.672                    24356926.273
 115166114.573 7  89739954.349 7  21915397.164                    21915405.797
 108367595.931 8  84442387.955 8  20621642.289                    20621649.852
 116263989.664 7  90595378.899 7  22124303.664                    22124312.234
 115024950.614 7  89629980.02445  21888495.992                    21888502.344
 113970781.893 8  88808532.029 7  21687936.805                    21687947.691
 115244297.831 7  89800890.31045  21930275.906                    21930284.738
 11  8 26  2  9 30.0000000  0  9G26G15G10G12G05G29G02G25G30
 120745586.400 7  94087591.20244  22977120.422                    22977129.754
 125429985.989 7  97737734.173 6  23868532.695                    23868542.129
 128104922.782 6  99822234.04542  24377552.594                    24377562.176
 115240585.156 8  89797983.376 7  21929568.828                    21929577.262
 108411602.003 8  84476678.416 7  20630016.234                    20630024.254
 116185277.006 7  90534044.383 7  22109325.375                    22109333.754
 115064742.457 8  89660986.64845  21896068.078                    21896074.566
 113990365.940 8  88823792.326 7  21691663.875                    21691674.414
 115270740.566 7  89821495.02845  21935308.109                    21935317.086
 11  8 26  2 10  0.0000000  0  9G26G15G10G12G05G29G02G25G30
 120656439.355 7  94018126.06744  22960156.656                    22960166.012
 125333756.405 7  97662750.195 6  23850220.531                    23850229.977
 128213426.892 6  99906782.73143  24398200.805                    24398209.617
 115315391.603 8  89856274.099 7  21943803.656                    21943812.359
 108456051.256 8  84511314.208 8  20638474.516                    20638482.488
 116106705.693 7  90472820.021 7  22094373.695                    22094382.473
 115104615.930 7  89692056.87945  21903655.891                    21903662.145
 114010491.798 8  88839474.823 7  21695493.398                    21695503.902
 115297719.718 7  89842517.74445  21940442.031                    21940451.105
 11  8 26  2 10 30.0000000  0  9G26G15G10G12G05G29G02G25G30
 120567496.058 7  93948819.65744  22943231.148                    22943240.500
 125237503.807 6  97587748.268 6  23831903.695                    23831913.188
 128321986.663 6  99991374.74343  24418858.961                    24418868.105
 115390530.794 8  89914824.123 7  21958102.484                    21958110.645
 108500941.132 8  84546293.340 8  20647017.008                    20647024.891
 116028277.849 7  90411707.448 7  22079449.305                    22079457.668
 115144570.866 8  89723190.57345  21911259.086                    21911264.996
 114031157.967 8  88855578.337 7  21699425.859                    21699436.797
 115325233.357 7  89863956.95045  21945677.750                    21945686.457
 11  8 26  2 11  0.0000000  0  9G26G15G10G12G05G29G02G25G30
 120478759.908 7  93879674.68544  22926345.125                    22926354.211
 125141230.454 6  97512730.171 6  23813583.648                    23813593.313
 128430599.688 6 100076008.25543  24439526.555                    24439536.395
 115465999.280 8  89973630.738 7  21972463.781                    21972472.063
 108546268.996 8  84581613.775 7  20655642.461                    20655649.973
 115949995.441 7  90350708.207 7  22064552.500                    22064561.375
 115184607.089 8  89754387.60545  21918877.219                    21918883.613
 114052362.672 8  88872101.486 7  21703461.359                    21703472.063
 115353279.242 7  89885810.88645  21951014.852                    21951023.484
 11  8 26  2 11 30.0000000  0  9G26G15G10G12G05G29G02G25G30
 120390235.328 7  93810694.55744  22909499.508                    22909509.059
 125044940.082 6  97437698.835 6  23795260.781                    23795269.688
 128539263.879 6 100160681.64743  24460205.820                    24460214.500
 115541794.845 8  90032692.211 7  21986887.484                    21986895.613
 108592033.988 8  84617274.822 8  20664351.500                    20664358.758
 115871861.227 7  90289824.445 7  22049684.039                    22049692.629
 115224725.447 8  89785648.64345  21926512.273                    21926518.043
 114074105.353 8  88889043.842 7  21707598.797                    21707609.496
 115381856.355 8  89908078.77645  21956452.969                    21956461.695
 11  8 26  2 12  0.0000000  0  9G26G15G10G12G05G29G02G25G30
 120301925.741 7  93741881.95244  22892694.570                    22892703.641
 124948635.457 6  97362656.385 6  23776934.133                    23776943.551
 128647976.673 6 100245392.90143  24480892.680                    24480901.953
 115617914.704 8  90092006.377 7  22001372.203                    22001380.809
 108638233.414 8  84653274.389 8  20673142.813                    20673150.469
 115793877.098 8  90229057.630 7  22034844.070                    22034852.617
 115264925.849 8  89816973.61745  21934162.016                    21934167.852
 114096384.299 8  88906404.065 7  21711838.031                    21711848.734
 115410962.524 8  89930758.90945  21961991.234                    21962000.477
 11  8 26  2 12 30.0000000  0  9G26G15G10G12G05G29G02G25G30
 120213834.874 7  93673239.77344  22875931.414                    22875940.352
 124852318.796 7  97287604.567 6  23758605.547                    23758615.145
 128756735.970 6 100330140.39643  24501589.211                    24501597.809
 115694355.673 8  90151570.777 7  22015918.297                    22015926.730
 108684864.955 8  84689610.662 7  20682016.539                    20682024.066
 115716045.051 7  90168409.315 7  22020033.055                    22020041.527
 115305208.585 8  89848362.75045  21941827.539                    21941833.688
 114119197.885 8  88924180.894 7  21716179.617                    21716190.395
 115440595.714 8  89953849.71845  21967630.313                    21967639.555
 11  8 26  2 13  0.0000000  0  9G26G15G10G12G05G29G02G25G30
 120125966.157 7  93604770.71344  22859210.328                    22859219.621
 124755993.318 7  97212545.887 6  23740275.969                    23740285.090
 128865539.051 6 100414922.00643  24522293.625                    24522302.906
 115771114.687 8  90211382.989 7  22030525.406                    22030533.512
 108731926.146 8  84726281.749 7  20690971.922                    20690979.059
 115638367.298 8  90107881.231 7  22005252.141                    22005260.344
 115345573.433 7  89879815.86345  21949508.688                    21949514.781
 114142544.612 8  88942373.164 7  21720622.133                    21720632.789
 115470753.949 7  89977349.65745  21973369.133                    21973377.996
 11  8 26  2 13 30.0000000  0  9G26G15G10G12G05G29G02G25G30
 120038323.446 7  93536477.75544  22842532.898                    22842542.270
 124659661.704 6  97137482.424 6  23721944.086                    23721953.973
 128974383.810 6 100499736.08143  24543005.641                    24543015.637
 115848188.752 8  90271440.684 7  22045191.766                    22045200.531
 108779415.043 8  84763286.096 7  20700008.703                    20700016.313
 115560846.192 7  90047475.208 7  21990499.898                    21990508.211
 115386020.330 8  89911332.91945  21957205.641                    21957211.848
 114166423.032 8  88960979.738 7  21725166.070                    21725176.695
 115501435.332 7  90001257.23345  21979207.898                    21979216.578
 11  8 26  2 14  0.0000000  0  9G26G15G10G12G05G29G02G25G30
 119950910.425 7  93468363.77744  22825898.469                    22825907.547
 124563327.303 7  97062416.781 6  23703611.375                    23703621.664
 129083267.866 6 100584580.80543  24563725.086                    24563735.328
 115925575.172 8  90331741.793 7  22059918.195                    22059926.289
 108827329.480 8  84800622.034 8  20709126.570                    20709133.957
 115483483.866 8  89987192.918 7  21975778.563                    21975786.805
 115426549.909 7  89942914.40345  21964918.148                    21964924.219
 114190831.785 8  88979999.556 7  21729811.055                    21729821.641
 115532638.020 7  90025571.03745  21985145.344                    21985154.320
 11  8 26  2 14 30.0000000  0  8G26G15G12G05G29G02G25G30
 119863731.362 7  93400432.09144  22809308.711                    22809317.574
 124466993.210 7  96987351.363 6  23685280.336                    23685289.516
 116003271.577 7  90392284.440 7  22074702.797                    22074711.895
 108875667.795 8  84838288.269 8  20718325.016                    20718332.367
 115406283.185 8  89927036.577 7  21961087.625                    21961096.086
 115467162.806 8  89974560.80945  21972646.523                    21972652.430
 114215769.841 8  88999431.806 7  21734556.445                    21734567.145
 115564360.581 7  90050289.90745  21991181.836                    21991190.559
 11  8 26  2 15  0.0000000  0  8G26G15G12G05G29G02G25G30
 119776791.447 7  93332686.75644  22792764.617                    22792773.633
 124370664.035 7  96912289.784 6  23666949.094                    23666958.113
 116081276.896 7  90453067.793 7  22089547.016                    22089555.328
 108924429.313 8  84876284.278 7  20727603.953                    20727611.688
 115329248.070 8  89867009.257 7  21946428.297                    21946436.836
 115507860.757 7  90006273.50145  21980390.813                    21980397.051
 114241237.293 8  89019276.584 7  21739402.938                    21739413.766
 115596602.697 7  90075413.63445  21997317.656                    21997326.484
 11  8 26  2 15 30.0000000  0  8G26G15G12G05G29G02G25G30
 119690091.509 7  93265128.41444  22776266.008                    22776275.164
 124274339.964 7  96837232.177 6  23648618.898                    23648628.766
 116159585.067 7  90514087.155 7  22104448.539                    22104456.930
 108973608.672 8  84914605.865 7  20736962.414                    20736970.008
 115252377.483 8  89807110.133 7  21931800.031                    21931808.750
 115548641.255 8  90038050.52145  21988150.977                    21988157.758
 114267229.570 8  89039530.310 7  21744348.820                    21744359.672
 115629359.256 7  90100938.22245  22003551.305                    22003560.035
 11  8 26  2 16  0.0000000  0  9G26G15G21G12G05G29G02G25G30
 119603635.624 7  93197760.24544  22759814.531                    22759823.195
 124178023.809 6  96762180.729 6  23630290.586                    23630299.668
 132353930.58616                  25186124.305
 116238193.517 7  90575340.481 7  22119407.352                    22119415.855
 109023204.069 8  84953251.644 8  20746399.961                    20746408.000
 115175674.151 8  89747341.343 7  21917204.344                    21917212.492
 115589504.657 7  90069892.13745  21995927.484                    21995933.473
 114293745.390 8  89060191.990 7  21749394.797                    21749405.477
 115662628.580 8  90126862.36245  22009881.742                    22009890.688
 11  8 26  2 16 30.0000000  0  9G26G15G21G12G05G29G02G25G30
 119517427.304 7  93130584.96644  22743409.125                    22743417.938
 124081718.600 6  96687137.812 6  23611964.555                    23611973.938
 132298438.503 6 103089764.43453  25175564.672                    25175574.770
 116317098.809 8  90636825.128 7  22134422.516                    22134431.168
 109073213.572 8  84992220.101 7  20755916.563                    20755924.027
 115099140.444 8  89687704.732 7  21902640.195                    21902648.547
 115630451.122 8  90101798.49745  22003719.078                    22003725.105
 114320783.186 8  89081260.406 7  21754539.938                    21754551.090
 115696408.710 7  90153184.53445  22016310.250                    22016318.746
 11  8 26  2 17  0.0000000  0  9G26G15G21G12G05G29G02G25G30
 119431470.281 7  93063605.51544  22727052.266                    22727061.418
 123985427.040 6  96612105.532 6  23593640.555                    23593650.066
 132242948.159 6 103046525.35042  25165004.758                    25165015.145
 116396298.445 7  90698539.136 7  22149493.648                    22149502.633
 109123634.267 8  85031508.974 7  20765511.125                    20765518.922
 115022778.298 7  89628201.809 7  21888108.703                    21888117.367
 115671480.586 8  90133769.51145  22011527.094                    22011533.406
 114348341.022 8  89102734.040 7  21759784.055                    21759794.563
 115730697.247 8  90179902.87045  22022834.930                    22022843.633
 11  8 26  2 17 30.0000000  0  9G26G15G21G12G05G29G02G25G30
 119345768.377 7  92996824.86444  22710743.172                    22710752.055
 123889152.548 6  96537086.549 6  23575320.344                    23575329.191
 132187459.162 6 103003287.27642  25154445.352                    25154455.504
 116475789.139 7  90760479.934 7  22164620.266                    22164628.563
 109174464.364 8  85071116.855 8  20775184.305                    20775191.566
 114946590.372 8  89568834.639 7  21873610.523                    21873618.832
 115712593.652 7  90165805.68445  22019350.516                    22019356.145
 114376417.607 8  89124611.893 7  21765126.523                    21765137.395
 115765492.512 8  90207016.05645  22029456.188                    22029465.094
 11  8 26  2 18  0.0000000  0  9G26G15G21G12G05G29G02G25G30
 119260325.280 7  92930245.88844  22694483.930                    22694493.430
 123792897.923 7  96462083.059 6  23557003.117                    23557012.711
 132131971.165 6 102960049.99942  25143886.750                    25143896.609
 116555568.038 7  90822645.306 7  22179801.813                    22179810.516
 109225701.529 8  85111041.930 7  20784934.117                    20784941.582
 114870578.946 8  89509605.000 7  21859145.992                    21859154.961
 115753790.213 7  90197906.92445  22027189.633                    22027195.430
 114405011.221 8  89146892.632 7  21770567.734                    21770578.598
 115800792.332 8  90234522.41745  22036173.688                    22036182.871
 11  8 26  2 18 30.0000000  0  9G26G15G21G12G05G29G02G25G30
 119175144.744 7  92863871.50345  22678274.773                    22678283.918
 123696666.566 7  96387097.672 6  23538691.117                    23538699.941
 132076483.581 6 102916812.97942  25133327.711                    25133337.129
 116635632.644 7  90885033.311 7  22195037.375                    22195045.859
 109277343.644 8  85151282.557 7  20794761.211                    20794769.090
 114794746.121 8  89450514.531 7  21844715.453                    21844723.898
 115795070.898 7  90230073.71345  22035044.758                    22035051.230
 114434120.350 8  89169575.074 7  21776107.234                    21776118.102
 115836594.731 8  90262420.39245  22042986.320                    22042995.273
 11  8 26  2 19  0.0000000  0  9G26G15G21G12G05G29G02G25G30
 119090229.971 7  92797704.21044  22662116.195                    22662125.074
 123600460.149 7  96312131.709 6  23520383.578                    23520392.930
 132020995.261 6 102873575.50342  25122767.977                    25122777.867
 116715978.925 7  90947640.802 7  22210326.672                    22210335.508
 109329387.171 8  85191835.969 7  20804664.703                    20804672.348
 114719093.596 8  89391564.550 7  21830319.211                    21830327.465
 115836435.342 8  90262305.76345  22042916.453                    22042922.605
 114463742.328 8  89192657.136 7  21781744.117                    21781754.613
 115872896.596 8  90290707.56845  22049894.711                    22049903.652
 11  8 26  2 19 30.0000000  0  9G26G15G21G12G05G29G02G25G30
 119005585.291 7  92731747.36745  22646008.313                    22646017.707
 123504282.494 7  96237188.179 6  23502081.289                    23502090.398
 131965506.395 5 102830337.50342  25112209.117                    25112218.652
 116796604.986 7  91010466.307 7  22225669.898                    22225678.074
 109381831.241 8  85232701.490 8  20814644.930                    20814652.355
 114643624.400 8  89332757.429 7  21815957.875                    21815966.281
 115877884.514 7  90294603.84645  22050803.641                    22050810.539
 114493876.371 8  89216138.217 7  21787478.367                    21787489.098
 115909696.753 8  90319383.01045  22056897.109                    22056906.113
 11  8 26  2 20  0.0000000  0  9G26G15G21G12G05G29G02G25G30
 118921214.485 7  92666003.94445  22629952.945                    22629962.113
 123408136.788 6  96162269.542 6  23483784.875                    23483794.461
 131910016.351 6 102787098.63642  25101648.609                    25101659.824
 116877507.808 7  91073507.479 7  22241065.008                    22241073.461
 109434673.857 8  85273877.564 7  20824700.242                    20824707.762
 114568341.061 8  89274095.122 7  21801632.141                    21801640.039
 115919418.721 7  90326968.17845  22058707.117                    22058713.895
 114524520.884 8  89240017.057 7  21793309.945                    21793320.285
 115946993.150 8  90348445.13845  22063994.836                    22064003.176
 11  8 26  2 20 30.0000000  0  9G26G15G21G12G05G29G02G25G30
 118837120.983 7  92600476.59145  22613950.742                    22613959.957
 123312025.879 7  96087378.025 6  23465496.172                    23465505.398
 131854524.466 5 102743858.37842  25091089.109                    25091100.594
 116958683.935 7  91136761.612 7  22256512.070                    22256520.430
 109487912.065 8  85315361.892 7  20834831.281                    20834838.395
 114493245.500 8  89215579.142 7  21787341.891                    21787349.922
 115961037.873 7  90359398.70745  22066627.648                    22066633.699
 114555673.646 8  89264291.944 7  21799237.859                    21799248.914
 115984783.178 7  90377891.90745  22071186.070                    22071194.789
 11  8 26  2 21  0.0000000  0  9G26G15G21G12G05G29G02G25G30
 118753308.580 7  92535168.27845  22598001.555                    22598010.840
 123215952.860 7  96012516.047 6  23447213.711                    23447223.195
 131799029.949 5 102700616.02942  25080529.125                    25080539.848
 117040130.577 7  91200226.530 7  22272010.969                    22272019.164
 109541543.643 8  85357152.749 8  20845036.648                    20845044.438
 114418340.254 8  89157211.449 7  21773088.016                    21773096.313
 116002742.033 7  90391895.47145  22074563.773                    22074569.699
 114587332.957 8  89288961.542 7  21805262.297                    21805273.551
 116023064.697 7  90407721.66145  22078470.500                    22078479.484
 11  8 26  2 21 30.0000000  0  9G26G15G21G12G05G29G02G25G30
 118669780.743 7  92470081.70044  22582107.102                    22582116.258
 123119920.222 7  95937685.497 6  23428940.125                    23428948.738
 131743531.959 6 102657370.99642  25069967.461                    25069978.613
 117121844.337 7  91263899.589 7  22287560.586                    22287568.746
 109595565.737 8  85399247.891 8  20855316.961                    20855324.363
 114343627.146 8  89098993.481 7  21758870.133                    21758878.723
 116044531.540 7  90424458.74345  22082515.727                    22082521.625
 114619496.717 8  89314024.213 7  21811383.297                    21811393.992
 116061835.280 8  90437932.50445  22085848.352                    22085857.535
 11  8 26  2 22  0.0000000  0  9G26G15G21G12G05G29G02G25G30
 118586540.967 7  92405219.59745  22566267.406                    22566275.867
 123023930.973 7  95862888.770 6  23410673.477                    23410682.406
 131688030.170 5 102614123.02742  25059405.867                    25059417.172
 117203822.615 7  91327778.763 7  22303160.414                    22303168.980
 109649975.913 8  85441645.441 8  20865670.539                    20865678.379
 114269108.447 8  89040927.006 7  21744689.563                    21744698.176
 116086406.411 8  90457088.53045  22090484.281                    22090490.367
 114652163.005 8  89339478.466 7  21817599.250                    21817610.016
 116101092.425 7  90468522.48445  22093319.008                    22093327.910
 11  8 26  2 22 30.0000000  0  9G26G15G21G12G05G29G02G25G30
 118503592.996 7  92340584.87345  22550482.758                    22550491.480
 122927988.290 7  95788128.336 6  23392416.156                    23392424.707
 131632524.090 6 102570871.74542  25048842.789                    25048853.941
 117286062.477 8  91391861.777 7  22318810.531                    22318818.473
 109704772.268 8  85484343.908 7  20876098.352                    20876105.648
 114194786.701 8  88983013.989 7  21730546.930                    21730555.133
 116128367.212 7  90489785.26845  22098469.156                    22098475.621
 114685330.191 8  89365323.035 7  21823910.641                    21823921.570
 116140834.176 7  90499490.08445  22100881.422                    22100890.383
 11  8 26  2 23  0.0000000  0  9G26G15G21G12G05G29G02G25G30
 118420940.461 7  92276180.35145  22534754.375                    22534763.238
 122832094.885 7  95713406.286 6  23374167.805                    23374176.730
 131577012.780 6 102527616.30642  25038280.133                    25038290.570
 117368560.039 7  91456145.583 7  22334508.727                    22334517.574
 109759951.964 8  85527341.079 7  20886598.281                    20886606.121
 114120663.938 8  88925256.023 7  21716441.813                    21716450.508
 116170413.931 7  90522548.94745  22106470.594                    22106476.754
 114718995.996 8  89391556.139 7  21830317.133                    21830328.156
 116181057.830 8  90530833.19145  22108536.070                    22108544.207
 11  8 26  2 23 30.0000000  0  9G26G15G21G12G05G29G02G25G30
 118338587.245 7  92212009.07745  22519083.094                    22519091.539
 122736254.117 7  95638725.244 6  23355929.797                    23355938.820
 131521495.900 6 102484356.54243  25027714.742                    25027725.531
 117451313.154 7  91520628.537 7  22350256.141                    22350264.594
 109815513.215 8  85570635.566 7  20897171.570                    20897179.211
 114046742.680 8  88867655.078 7  21702375.094                    21702383.395
 116212547.195 7  90555380.06945  22114488.336                    22114494.039
 114753158.786 8  89418176.512 7  21836817.742                    21836828.680
 116221761.341 7  90562550.21245  22116281.078                    22116289.934
 11  8 26  2 24  0.0000000  0  9G26G15G21G12G05G29G02G25G30
 118256536.902 7  92148073.78445  22503469.055                    22503478.016
 122640468.705 7  95564087.329 6  23337702.625                    23337711.867
 131465972.896 6 102441092.02443  25017149.016                    25017159.656
 117534318.264 7  91585307.829 7  22366051.727                    22366060.699
 109871453.392 8  85614225.312 7  20907816.445                    20907824.121
 113973025.125 8  88810212.866 7  21688346.906                    21688355.230
 116254766.868 8  90588278.50845  22122522.211                    22122528.313
 114787816.461 8  89445182.503 7  21843413.398                    21843424.105
 116262942.237 7  90594639.22345  22124117.453                    22124126.672
 11  8 26  2 24 30.0000000  0  9G26G15G21G12G05G29G02G25G30
 118174793.252 7  92084377.48845  22487913.805                    22487922.691
 122544741.834 7  95489495.029 6  23319486.336                    23319495.691
 131410442.962 6 102397822.09743  25006582.961                    25006592.430
 117617572.362 7  91650181.141 7  22381894.297                    22381903.152
 109927770.215 8  85658108.548 7  20918533.109                    20918540.586
 113899514.075 8  88752931.556 7  21674358.391                    21674366.645
 116297073.699 7  90621244.85945  22130572.703                    22130579.289
 114822967.324 8  89472572.795 7  21850102.523                    21850113.086
 116304598.322 7  90627098.50545  22132044.242                    22132053.410
 11  8 26  2 25  0.0000000  0  9G26G15G21G12G05G29G02G25G30
 118093359.906 7  92020922.97645  22472417.523                    22472426.117
 122449076.492 7  95414950.704 6  23301281.586                    23301291.090
 131354905.672 6 102354546.42143  24996014.281                    24996024.266
 117701072.795 7  91715246.405 7  22397783.977                    22397792.563
 109984461.248 8  85702283.387 7  20929321.289                    20929328.914
 113826211.400 8  88695812.617 7  21660409.289                    21660417.555
 116339467.665 7  90654279.11345  22138640.320                    22138646.531
 114858609.322 8  89500345.797 7  21856884.742                    21856895.301
 116346727.203 8  90659926.21245  22140061.250                    22140070.438
 11  8 26  2 25 30.0000000  0  9G26G15G21G12G05G29G02G25G30
 118012240.356 7  91957712.97845  22456981.109                    22456989.336
 122353475.597 7  95340456.602 6  23283088.602                    23283098.340
 131299360.367 6 102311264.51443  24985444.000                    24985453.516
 117784815.957 7  91780500.802 7  22413720.156                    22413728.672
 110041523.939 8  85746747.827 7  20940179.852                    20940187.586
 113753119.257 8  88638857.746 7  21646500.328                    21646508.527
 116381949.013 7  90687381.44445  22146724.398                    22146730.941
 114894740.145 8  89528499.691 7  21863759.953                    21863770.801
 116389326.211 8  90693120.25545  22148167.688                    22148176.000
 11  8 26  2 26  0.0000000  0  9G26G15G21G12G05G29G02G25G30
 117931438.467 7  91894750.52045  22441604.938                    22441613.867
 122257942.139 7  95266015.033 6  23264909.883                    23264918.520
 131243806.809 6 102267976.16643  24974872.680                    24974882.523
 117868799.429 7  91845942.454 7  22429701.297                    22429709.754
 110098956.167 8  85791500.215 7  20951108.844                    20951116.387
 113680240.246 8  88582068.940 7  21632631.781                    21632639.848
 116424518.143 7  90720552.18445  22154825.000                    22154831.043
 114931358.068 8  89557033.159 7  21870728.078                    21870739.160
 116432393.127 8  90726678.89145  22156362.828                    22156372.211
 11  8 26  2 26 30.0000000  0  9G26G15G21G12G05G29G02G25G30
 117850957.430 7  91832038.05645  22426289.930                    22426298.637
 122162478.911 7  95191628.177 6  23246743.414                    23246752.785
 131188243.889 6 102224680.52743  24964299.445                    24964308.848
 117953019.558 7  91911568.524 7  22445727.961                    22445736.375
 110156754.925 8  85836538.216 7  20962107.805                    20962115.160
 113607576.664 8  88525448.006 7  21618804.180                    21618811.980
 116467175.114 7  90753791.36745  22162942.211                    22162948.031
 114968460.688 8  89585944.300 7  21877788.820                    21877799.363
 116475925.239 7  90760600.03045  22164647.156                    22164656.129
 11  8 26  2 27  0.0000000  0  9G26G15G21G12G05G29G02G25G30
 117770801.411 7  91769578.86145  22411036.344                    22411045.410
 122067089.487 7  95117298.814 6  23228591.844                    23228600.398
 131132671.417 6 102181377.40943  24953724.070                    24953733.602
 118037473.941 7  91977377.117 7  22461798.539                    22461807.637
 110214918.662 8  85881860.618 7  20973175.742                    20973183.492
 113535130.914 8  88468996.815 7  21605018.469                    21605026.324
 116509920.600 7  90787099.52945  22171076.539                    22171082.895
 115006046.139 8  89615231.684 7  21884940.859                    21884951.805
 116519920.311 7  90794881.91445  22173018.961                    22173028.352
 11  8 26  2 27 30.0000000  0  9G26G15G21G12G05G29G02G25G30
 117690973.827 7  91707375.58445  22395845.492                    22395854.453
 121971776.827 7  95043029.274 6  23210454.078                    23210462.992
 131077088.586 7 102138066.23543  24943146.914                    24943156.363
 118122158.858 7  92043365.357 7  22477914.102                    22477922.383
 110273444.599 8  85927465.250 7  20984312.906                    20984320.367
 113462905.265 8  88412717.132 7  21591274.250                    21591282.305
 116552754.754 7  90820476.78545  22179227.258                    22179233.629
 115044112.420 8  89644893.741 7  21892184.680                    21892195.551
 116564375.837 7  90829522.59245  22181478.125                    22181487.516
 11  8 26  2 28  0.0000000  0  9G26G15G21G12G05G29G02G25G30
 117611478.404 7  91645431.13745  22380717.836                    22380726.723
 121876543.721 7  94968821.720 6  23192331.828                    23192340.621
 131021494.925 6 102094746.62343  24932567.750                    24932576.867
 118207071.727 7  92109531.225 7  22494072.508                    22494081.250
 110332330.286 8  85973350.210 7  20995518.602                    20995526.500
 113390902.082 8  88356610.801 7  21577572.523                    21577580.801
 116595677.935 7  90853923.41745  22187395.492                    22187401.832
 115082657.346 8  89674928.765 7  21899519.250                    21899530.020
 116609289.356 7  90864520.16045  22190025.242                    22190034.191
 11  8 26  2 28 30.0000000  0  9G26G15G21G12G05G29G02G25G30
 117532318.806 7  91583748.38745  22365654.711                    22365663.090
 121781393.427 7  94894678.705 6  23174225.547                    23174234.371
 130965889.973 7 102051418.20543  24921986.430                    24921995.859
 118292209.550 7  92175872.364 7  22510274.219                    22510282.703
 110391573.467 8  86019513.735 7  21006791.813                    21006799.594
 113319123.806 8  88300679.714 7  21563913.109                    21563921.730
 116638690.414 7  90887439.63245  22195580.391                    22195586.703
 115121678.918 8  89705335.197 7  21906944.977                    21906955.828
 116654658.316 7  90899872.61245  22198658.844                    22198667.625
 11  8 26  2 29  0.0000000  0  9G26G15G21G12G05G29G02G25G30
 117453498.480 7  91522329.99345  22350655.711                    22350664.523
 121686328.841 7  94820602.475 6  23156135.078                    23156143.996
 130910273.043 6 102008080.45043  24911402.328                    24911412.152
 118377568.989 7  92242386.205 7  22526516.977                    22526525.688
 110451171.250 8  86065953.578 7  21018133.219                    21018140.879
 113247572.725 8  88244925.663 7  21550297.859                    21550306.059
 116681792.228 7  90921025.46345  22203782.773                    22203788.141
 115161174.774 8  89736111.196 7  21914460.734                    21914471.734
 116700480.155 7  90935577.96345  22207378.617                    22207387.027
 11  8 26  2 29 30.0000000  0  9G26G15G21G12G05G29G02G25G30
 117375021.155 7  91461178.88645  22335721.328                    22335730.563
 121591353.028 7  94746595.422 6  23138061.586                    23138070.887
 130854643.546 6 101964732.89243  24900816.609                    24900825.574
 118463146.996 7  92309070.368 7  22542802.000                    22542810.602
 110511121.544 8  86112668.111 7  21029541.156                    21029548.980
 113176251.074 8  88189350.392 7  21536725.742                    21536733.863
 116724983.997 7  90954681.39045  22212001.648                    22212007.547
 115201142.793 8  89767255.116 7  21922066.195                    21922077.473
 116746752.250 7  90971634.16545  22216183.266                    22216192.355
 11  8 26  2 30  0.0000000  0  9G26G15G21G12G05G29G02G25G30
 117296890.114 7  91400297.60045  22320853.922                    22320862.922
 121496468.592 7  94672659.570 6  23120005.961                    23120014.520
 130799000.803 6 101921375.02143  24890228.164                    24890237.574
 118548940.148 7  92375922.167 7  22559127.875                    22559136.328
 110571421.682 8  86159655.234 7  21041016.172                    21041023.332
 113105161.017 8  88133955.579 7  21523197.250                    21523205.957
 116768265.951 7  90988407.60145  22220238.000                    22220244.605
 115241580.532 8  89798765.041 7  21929761.438                    21929772.551
 116793471.835 7  91008039.06245  22225073.820                    22225082.656
 11  8 26  2 30 30.0000000  0  9G26G15G21G12G05G29G02G25G30
 117219109.423 7  91339689.32145  22306052.906                    22306061.641
 121401679.060 7  94598797.672 6  23101968.133                    23101976.598
 130743344.471 6 101878006.54143  24879637.016                    24879646.035
 118634945.900 7  92442939.622 7  22575494.047                    22575502.684
 110632069.719 8  86206913.458 7  21052556.641                    21052564.273
 113034305.232 8  88078743.322 7  21509714.430                    21509722.141
 116811638.603 7  91022204.48045  22228491.445                    22228497.578
 115282486.179 8  89830639.573 7  21937545.555                    21937556.266
 116840636.678 7  91044790.90145  22234049.109                    22234057.832
 11  8 26  2 31  0.0000000  0  9G26G15G21G12G05G29G02G25G30
 117141682.294 7  91279356.54445  22291318.891                    22291327.836
 121306987.387 7  94525012.031 6  23083948.656                    23083958.051
 130687673.850 6 101834626.94043  24869043.313                    24869052.645
 118721160.868 7  92510120.117 7  22591900.594                    22591908.832
 110693062.719 8  86254440.478 7  21064163.477                    21064171.031
 112963686.139 8  88023715.493 7  21496275.773                    21496283.891
 116855102.151 8  91056072.19245  22236762.305                    22236768.449
 115323857.445 8  89862876.927 7  21945417.945                    21945429.070
 116888244.134 7  91081887.63145  22243108.516                    22243117.434
 11  8 26  2 31 30.0000000  0  9G26G15G21G12G05G29G02G25G30
 117064612.961 7  91219302.56245  22276653.094                    22276661.543
 121212397.112 7  94451305.401 6  23065948.766                    23065957.391
 130631988.374 6 101791235.74043  24858446.203                    24858456.418
 118807582.539 7  92577461.666 7  22608345.828                    22608354.340
 110754398.659 8  86302234.729 7  21075835.008                    21075842.793
 112893306.439 8  87968874.212 7  21482882.820                    21482890.758
 116898657.131 8  91090011.15545  22245050.445                    22245056.590
 115365692.373 8  89895475.575 7  21953379.273                    21953390.148
 116936291.986 7  91119327.52545  22252251.867                    22252260.484
 11  8 26  2 32  0.0000000  0  9G26G15G21G12G05G29G02G25G30
 116987904.410 7  91159529.71245  22262055.484                    22262064.941
 121117910.521 7  94377679.544 6  23047968.469                    23047977.457
 130576287.964 6 101747832.88143  24847847.117                    24847856.148
 118894207.536 7  92644961.660 7  22624830.461                    22624839.137
 110816074.777 8  86350294.048 7  21087571.734                    21087579.324
 112823167.838 8  87914220.783 7  21469536.063                    21469544.039
 116942303.500 8  91124021.32345  22253356.211                    22253362.211
 115407988.238 8  89928433.392 7  21961428.063                    21961438.938
 116984776.958 7  91157108.03045  22261478.031                    22261487.313
 11  8 26  2 32 30.0000000  0  9G26G15G21G12G05G29G02G25G30
 116911560.024 7  91100040.62345  22247528.008                    22247536.684
 121023530.781 7  94304136.939 6  23030008.922                    23030016.707
 130520571.166 6 101704417.31843  24837244.250                    24837253.746
 118981032.140 7  92712617.199 7  22641352.492                    22641361.000
 110878087.972 8  86398616.040 7  21099372.695                    21099379.879
 112753272.401 8  87859756.848 7  21456235.406                    21456243.238
 116986041.452 8  91158102.85645  22261678.953                    22261685.379
 115450742.462 8  89961748.363 7  21969563.953                    21969574.770
 117033696.174 7  91195226.91545  22270786.703                    22270796.207
 11  8 26  2 33  0.0000000  0  9G26G15G21G12G05G29G02G25G30
 116835584.084 7  91040838.63145  22233070.063                    22233078.555
 120929261.677 7  94230680.549 6  23012069.406                    23012078.527
 130464838.090 6 101660988.99943  24826638.773                    24826648.188
 119068054.038 7  92780426.473 7  22657912.008                    22657920.281
 110940437.202 8  86447199.860 7  21111237.250                    21111244.879
 112683623.725 8  87805485.195 7  21442981.438                    21442989.621
 117029872.102 7  91192256.61545  22270019.984                    22270026.000
 115493953.637 8  89995419.414 7  21977786.594                    21977797.434
 117083047.936 7  91233682.84445  22280178.164                    22280187.484
 11  8 26  2 33 30.0000000  0  9G26G15G21G12G05G29G02G25G30
 116759980.002 7  90981926.38445  22218683.508                    22218691.719
 120835105.779 7  94157312.375 6  22994152.430                    22994160.871
 130409088.063 6 101617547.46842  24816029.883                    24816039.105
 119155270.033 7  92848386.983 7  22674509.016                    22674517.344
 111003119.165 8  86496042.966 7  21123165.492                    21123172.613
 112614223.721 8  87751407.312 7  21429774.977                    21429783.500
 117073795.286 7  91226482.48145  22278378.406                    22278383.816
 115537619.108 8  90029444.461 7  21986095.891                    21986106.762
 117132829.172 7  91272473.42645  22289651.477                    22289660.395
 11  8 26  2 34  0.0000000  0  9G26G15G21G12G05G29G02G25G30
 116684750.773 7  90923306.24945  22204367.539                    22204376.191
 120741065.870 7  94084034.590 6  22976256.734                    22976265.504
 130353320.203 6 101574092.08043  24805416.633                    24805426.902
 119242676.622 7  92916496.003 6  22691141.375                    22691149.988
 111066131.169 8  86545143.233 7  21135156.055                    21135163.633
 112545073.982 8  87697524.442 7  21416616.367                    21416624.254
 117117811.401 7  91260780.75845  22286754.234                    22286760.031
 115581736.020 8  90063821.278 7  21994490.938                    21994501.824
 117183036.548 7  91311596.07345  22299205.531                    22299214.578
 11  8 26  2 34 30.0000000  0  9G26G15G21G12G05G29G02G25G30
 116609900.248 7  90864981.20445  22190123.578                    22190132.469
 120647145.390 7  94010849.856 6  22958384.398                    22958393.242
 130297534.397 6 101530622.71943  24794801.094                    24794811.383
 119330271.137 7  92984751.465 7  22707810.047                    22707818.777
 111129471.137 8  86594499.066 7  21147209.219                    21147216.922
 112476177.421 8  87643838.854 7  21403505.922                    21403514.148
 117161920.818 7  91295151.73845  22295148.359                    22295154.113
 115626302.453 8  90098548.364 7  22002971.563                    22002982.547
 117233667.933 7  91351049.11445  22308840.008                    22308848.891
 11  8 26  2 35  0.0000000  0 10G26G15G21G12G05G29G02G25G30G18
 116535432.313 7  90806954.26645  22175953.266                    22175961.379
 120553347.505 7  93937760.660 6  22940535.141                    22940544.109
 130241729.912 6 101487138.74942  24784181.883                    24784191.660
 119418050.362 7  93053150.860 6  22724513.930                    22724522.746
 111193136.826 8  86644108.697 7  21159324.422                    21159331.797
 112407536.425 8  87590352.415 7  21390443.570                    21390452.004
 117206124.022 7  91329595.80245  22303559.750                    22303565.266
 115671316.193 8  90133624.012 7  22011537.422                    22011548.516
 117284720.794 7  91390830.56945  22318555.047                    22318564.113
 129786077.29515                  24697475.531
 11  8 26  2 35 30.0000000  0 10G26G15G21G12G05G29G02G25G30G18
 116461349.771 7  90749227.63945  22161855.430                    22161864.199
 120459674.903 7  93864769.088 7  22922710.227                    22922718.898
 130185905.988 6 101443639.69042  24773559.102                    24773568.438
 119506010.580 7  93121691.270 6  22741252.203                    22741260.809
 111257124.964 8  86693969.600 7  21171500.711                    21171508.367
 112339153.118 8  87537066.770 7  21377430.617                    21377438.910
 117250420.830 7  91364112.80845  22311989.313                    22311995.152
 115716774.213 8  90169045.846 7  22020188.070                    22020198.863
 117336191.660 7  91430937.74245  22328350.133                    22328359.207
 129696940.425 6 101062609.93053  24680512.586                    24680523.055
 11  8 26  2 36  0.0000000  0 10G26G15G21G12G05G29G02G25G30G18
 116387655.901 7  90691803.88845  22147832.063                    22147840.750
 120366130.296 7  93791877.254 7  22904909.570                    22904918.203
 130130061.967 6 101400124.98442  24762932.336                    24762941.406
 119594148.882 7  93190370.449 6  22758024.547                    22758032.715
 111321432.900 8  86744079.687 7  21183738.148                    21183746.066
 112271029.486 8  87483983.473 7  21364467.164                    21364475.367
 117294811.540 7  91398702.99245  22320435.875                    22320442.270
 115762673.984 8  90204811.910 7  22028922.273                    22028932.910
 117388077.673 7  91471368.40745  22338223.742                    22338232.570
 129607968.534 6 100993281.48542  24663581.984                    24663592.707
 11  8 26  2 36 30.0000000  0 10G26G15G21G12G05G29G02G25G30G18
 116314354.958 7  90634686.30145  22133883.656                    22133891.988
 120272717.491 7  93719088.111 6  22887133.461                    22887141.914
 130074197.699 6 101356594.44843  24752301.672                    24752310.938
 119682462.598 7  93259186.337 7  22774830.094                    22774838.582
 111386059.111 8  86794437.781 7  21196036.117                    21196043.914
 112203168.827 8  87431105.090 7  21351553.875                    21351561.809
 117339297.003 7  91433366.99845  22328901.508                    22328907.430
 115809013.749 8  90240920.813 7  22037740.258                    22037751.543
 117440376.765 7  91512120.95045  22348175.555                    22348184.922
 129519163.947 6 100924083.35643  24646683.031                    24646693.738
 11  8 26  2 37  0.0000000  0 10G26G15G21G12G05G29G02G25G30G18
 116241450.693 7  90577877.82345  22120010.172                    22120018.590
 120179439.651 7  93646404.134 6  22869382.641                    22869391.355
 130018312.758 6 101313047.83843  24741667.086                    24741675.852
 119770948.690 7  93328136.536 7  22791668.664                    22791677.074
 111451001.165 8  86845041.981 7  21208394.492                    21208401.859
 112135573.381 8  87378433.365 7  21338690.969                    21338699.078
 117383877.816 7  91468105.30845  22337385.008                    22337390.773
 115855791.224 8  90277370.801 7  22046641.703                    22046652.406
 117493086.290 7  91553193.32045  22358205.547                    22358215.113
 129430527.729 6 100855016.46643  24629816.383                    24629826.324
 11  8 26  2 37 30.0000000  0 10G26G15G21G12G05G29G02G25G30G18
 116168946.639 7  90521381.18145  22106213.086                    22106221.582
 120086299.857 7  93573827.734 7  22851659.211                    22851667.621
 129962406.802 6 101269484.84343  24731028.070                    24731037.418
 119859604.378 7  93397218.870 6  22808539.094                    22808547.855
 111516256.729 8  86895890.485 7  21220812.148                    21220819.348
 112068245.549 8  87325970.165 7  21325878.859                    21325886.488
 117428554.448 7  91502918.27245  22345886.563                    22345892.656
 115903003.973 8  90314159.958 7  22055625.992                    22055637.238
 117546203.431 7  91594583.29745  22368313.703                    22368322.266
 129342061.084 6 100786081.69043  24612980.906                    24612991.387
 11  8 26  2 38  0.0000000  0 10G26G15G21G12G05G29G02G25G30G18
 116096846.031 7  90465198.93345  22092492.688                    22092501.055
 119993301.286 7  93501361.368 6  22833961.836                    22833970.500
 129906479.018 6 101225904.83943  24720385.313                    24720394.410
 119948426.620 7  93466430.992 6  22825441.672                    22825449.691
 111581822.867 8  86946980.993 7  21233288.734                    21233296.480
 112001187.788 8  87273717.415 7  21313117.898                    21313125.945
 117473327.171 7  91537806.11945  22354406.344                    22354412.586
 115950649.418 8  90351286.285 7  22064692.820                    22064703.621
 117599725.318 7  91636288.67045  22378498.055                    22378507.633
 129253765.384 6 100717280.10543  24596178.570                    24596189.125
 11  8 26  2 38 30.0000000  0 10G26G15G21G12G05G29G02G25G30G18
 116025152.488 7  90409333.86245  22078849.781                    22078857.891
 119900446.976 7  93429007.410 6  22816292.391                    22816300.695
 129850528.828 6 101182307.35743  24709738.539                    24709747.777
 120037412.162 7  93535770.388 6  22842375.086                    22842383.391
 111647697.130 8  86998311.588 7  21245824.422                    21245831.379
 111934402.430 8  87221676.921 7  21300408.875                    21300416.707
 117518196.353 7  91572769.12845  22362944.602                    22362950.941
 115998725.138 8  90388747.895 7  22073841.539                    22073852.020
 117653649.172 7  91678307.24645  22388759.992                    22388769.363
 129165641.921 6 100648612.69643  24579408.531                    24579419.359
 11  8 26  2 39  0.0000000  0 10G26G15G21G12G05G29G02G25G30G18
 115953868.989 7  90353788.32345  22065284.734                    22065293.020
 119807739.604 7  93356767.961 6  22798650.242                    22798659.137
 129794555.713 6 101138692.03343  24699086.734                    24699095.996
 120126557.346 7  93605234.140 6  22859338.234                    22859347.211
 111713876.744 8  87049880.131 7  21258417.828                    21258425.035
 111867891.547 8  87169850.298 7  21287752.930                    21287760.418
 117563162.327 7  91607807.56745  22371501.609                    22371507.641
 116047228.272 8  90426542.543 7  22083071.211                    22083082.121
 117707971.846 7  91720636.61045  22399097.055                    22399106.457
 129077691.356 6 100580080.00742  24562672.203                    24562682.801
 11  8 26  2 39 30.0000000  0 10G26G15G21G12G05G29G02G25G30G18
 115882999.613 7  90298565.47945  22051798.953                    22051807.086
 119715183.087 7  93284646.055 6  22781037.313                    22781046.070
 129738559.415 6 101095058.64543  24688431.609                    24688440.566
 120215859.756 7  93674820.441 6  22876332.211                    22876340.582
 111780360.005 8  87101685.277 7  21271068.906                    21271076.758
 111801657.966 8  87118239.755 7  21275148.336                    21275156.285
 117608225.500 7  91642921.73745  22380076.633                    22380082.910
 116096156.772 8  90464668.655 7  22092382.078                    22092392.863
 117762690.938 7  91763274.86545  22409509.648                    22409518.816
 128989915.879 6 100511683.77742  24545969.438                    24545979.727
 11  8 26  2 40  0.0000000  0 10G26G15G21G12G05G29G02G25G30G18
 115812547.785 7  90243667.97745  22038392.391                    22038400.875
 119622779.995 7  93212643.694 7  22763454.023                    22763462.277
 129682539.367 6 101051406.72243  24677771.266                    24677780.641
 120305316.243 7  93744526.777 6  22893355.164                    22893363.633
 111847144.100 8  87153724.843 7  21283777.531                    21283785.250
 111735704.292 8  87066847.315 7  21262598.281                    21262605.941
 117653386.467 7  91678112.12145  22388671.008                    22388676.730
 116145508.089 8  90503124.241 7  22101773.047                    22101784.156
 117817803.567 7  91806219.76745  22419997.352                    22420006.668
 128902316.305 6 100443424.63542  24529299.109                    24529309.684
 11  8 26  2 40 30.0000000  0 10G26G15G21G12G05G29G02G25G30G18
 115742516.481 7  90189098.17645  22025065.945                    22025074.617
 119530533.311 7  93140763.222 7  22745899.781                    22745908.828
 129626494.818 6 101007735.72743  24667106.641                    24667115.445
 120394923.984 7  93814350.975 6  22910406.781                    22910415.695
 111914226.394 8  87205996.773 7  21296542.938                    21296550.855
 111670032.314 8  87015674.378 7  21250101.211                    21250109.145
 117698645.257 7  91713378.71645  22397283.352                    22397289.535
 116195279.390 8  90541907.086 7  22111244.117                    22111254.941
 117873306.617 7  91849468.90145  22430559.336                    22430568.191
 128814894.045 6 100375303.54542  24512662.656                    24512673.727
 11  8 26  2 41  0.0000000  0 10G26G15G21G12G05G29G02G25G30G18
 115672909.656 7  90134859.13345  22011820.328                    22011828.375
 119438446.587 7  93069007.381 6  22728376.164                    22728384.707
 129570425.591 6 100964045.51843  24656436.195                    24656445.309
 120484679.220 7  93884290.113 6  22927486.711                    22927495.457
 111981604.651 8  87258499.309 7  21309364.734                    21309372.047
 111604644.831 8  86964723.131 7  21237658.102                    21237666.215
 117744002.722 7  91748722.21145  22405913.688                    22405920.742
 116245468.405 8  90581015.419 7  22120795.000                    22120806.004
 117929197.490 7  91893020.22845  22441195.273                    22441204.273
 128727649.895 6 100307321.28342  24496061.828                    24496071.320
 11  8 26  2 41 30.0000000  0 10G26G15G21G12G05G29G02G25G30G18
 115603730.361 7  90080953.23845  21998656.016                    21998664.195
 119346522.441 7  92997378.228 6  22710883.898                    22710892.426
 129514330.956 6 100920335.46343  24645762.242                    24645771.113
 120574578.860 7  93954341.761 6  22944593.930                    22944603.188
 112049276.454 8  87311230.597 7  21322242.352                    21322249.727
 111539543.842 8  86913995.107 7  21225269.625                    21225277.938
 117789458.843 7  91784142.58045  22414564.414                    22414570.824
 116296072.349 8  90620447.082 7  22130424.750                    22130435.160
 117985473.024 7  91936871.28745  22451904.297                    22451912.758
 128640585.490 6 100239479.06643  24479493.102                    24479503.016
 11  8 26  2 42  0.0000000  0 10G26G15G21G12G05G29G02G25G30G18
 115534982.351 7  90027383.39245  21985573.555                    21985581.863
 119254764.563 7  92925878.630 7  22693422.734                    22693431.535
 129458210.821 7 100876605.59943  24635082.922                    24635091.723
 120664620.343 7  94024503.948 6  22961727.984                    22961736.984
 112117239.165 8  87364188.555 7  21335175.320                    21335182.805
 111474732.678 8  86863492.934 7  21212936.859                    21212944.461
 117835014.295 7  91819640.34645  22423232.922                    22423239.395
 116347088.954 8  90660200.299 7  22140132.469                    22140143.539
 118042130.740 7  91981020.16245  22462685.703                    22462694.738
 128553702.104 6 100171777.93843  24462959.969                    24462970.195
 11  8 26  2 42 30.0000000  0 10G26G15G21G12G05G29G02G25G30G18
 115466668.560 7  89974151.91645  21972573.859                    21972582.016
 119163175.526 7  92854510.609 7  22675993.797                    22676002.699
 129402064.081 6 100832854.96143  24624398.242                    24624407.051
 120754800.289 7  94094774.010 6  22978889.320                    22978898.227
 112185489.849 8  87417370.910 7  21348162.555                    21348169.988
 111410212.203 8  86813217.268 7  21200658.625                    21200666.859
 117880669.232 7  91855215.63345  22431920.977                    22431927.238
 116398515.135 8  90700272.674 7  22149918.547                    22149929.695
 118099167.130 7  92025464.11145  22473539.586                    22473548.426
 128467000.355 6 100104218.31943  24446460.734                    24446470.887
 11  8 26  2 43  0.0000000  0 10G26G15G21G12G05G29G02G25G30G18
 115398792.628 7  89921261.61545  21959657.250                    21959665.816
 119071758.672 7  92783276.749 7  22658597.477                    22658606.098
 129345890.428 6 100789083.33843  24613708.617                    24613717.820
 120845115.829 7  94165149.740 6  22996075.570                    22996084.508
 112254026.421 8  87470776.039 7  21361205.008                    21361212.230
 111345985.624 7  86763170.612 7  21188436.594                    21188444.598
 117926424.273 7  91890868.92345  22440628.078                    22440633.844
 116450348.619 8  90740662.412 7  22159782.266                    22159792.906
 118156579.667 7  92070201.15845  22484464.602                    22484473.875
 128380481.966 6 100036801.58243  24429997.008                    24430006.816
 11  8 26  2 43 30.0000000  0 10G26G15G21G12G05G29G02G25G30G18
 115331357.599 7  89868714.89145  21946824.797                    21946832.875
 118980516.901 7  92712179.320 7  22641234.766                    22641243.316
 129289689.220 7 100745290.28043  24603013.750                    24603022.824
 120935563.523 7  94235628.476 6  23013287.406                    23013295.676
 112322846.212 8  87524401.856 7  21374300.805                    21374308.145
 111282055.183 7  86713354.710 7  21176271.133                    21176279.066
 117972279.961 7  91926600.64345  22449353.719                    22449360.074
 116502586.437 8  90781367.225 7  22169722.836                    22169733.207
 118214365.147 7  92115228.82045  22495460.734                    22495469.777
 128294147.732 6  99969528.37643  24413567.477                    24413577.500
 11  8 26  2 44  0.0000000  0 10G26G15G21G12G05G29G02G25G30G18
 115264367.280 7  89816514.67245  21934076.883                    21934085.445
 118889453.655 7  92641220.992 7  22623906.039                    22623914.996
 129233460.303 7 100701475.62643  24592313.953                    24592322.609
 121026140.765 7  94306208.108 6  23030524.156                    23030532.680
 112391947.281 8  87578246.846 7  21387450.414                    21387458.035
 111218423.659 7  86663771.727 7  21164162.680                    21164170.395
 118018236.811 7  91962411.19545  22458098.945                    22458105.289
 116555226.449 8  90822385.425 7  22179740.070                    22179750.734
 118272521.147 7  92160545.19945  22506527.703                    22506536.418
 128207999.269 6  99902399.87443  24397174.188                    24397183.734
 11  8 26  2 44 30.0000000  0 10G26G15G21G12G05G29G02G25G30G18
 115197825.086 7  89764663.66345  21921414.430                    21921422.902
 118798571.919 7  92570404.111 7  22606611.867                    22606620.543
 129177203.363 7 100657639.12943  24581608.672                    24581617.418
 121116844.383 7  94376886.238 6  23047784.180                    23047792.277
 112461326.734 8  87632308.761 7  21400652.672                    21400660.191
 111155093.359 7  86614423.475 7  21152111.203                    21152119.313
 118064295.085 7  91998300.76645  22466864.000                    22466870.004
 116608265.937 8  90863714.908 7  22189832.789                    22189843.887
 118331044.520 7  92206147.83645  22517664.008                    22517673.398
 128122037.430 6  99835416.84743  24380814.977                    24380826.176
 11  8 26  2 45  0.0000000  0 10G26G15G21G12G05G29G02G25G30G18
 115131734.375 7  89713164.44045  21908837.664                    21908845.695
 118707875.055 7  92499731.290 6  22589352.477                    22589361.055
 129120917.803 7 100613780.34243  24570897.758                    24570906.582
 121207671.333 7  94447660.481 6  23065068.008                    23065076.711
 112530982.555 8  87686586.020 7  21413907.766                    21413915.285
 111092066.684 7  86565311.812 7  21140117.438                    21140125.762
 118110455.186 7  92034269.69545  22475648.055                    22475653.855
 116661702.270 8  90905353.630 7  22200001.305                    22200012.133
 118389932.426 7  92252034.52245  22528869.867                    22528878.875
 128036263.859 6  99768580.48243  24364493.211                    24364503.258
 11  8 26  2 45 30.0000000  0 10G26G15G21G12G05G29G02G25G30G18
 115066098.348 7  89662019.52545  21896347.703                    21896356.219
 118617366.129 7  92429204.909 7  22572129.313                    22572137.984
 129064603.217 6 100569898.94043  24560181.141                    24560189.961
 121298618.323 7  94518528.240 6  23082374.656                    23082383.309
 112600912.029 8  87741076.527 7  21427214.891                    21427222.465
 111029346.095 8  86516438.661 7  21128182.469                    21128189.871
 118156717.637 7  92070318.37745  22484451.070                    22484457.121
 116715532.665 8  90947299.404 7  22210244.719                    22210255.734
 118449181.776 7  92298202.86145  22540145.070                    22540154.098
 127950679.386 6  99701891.47743  24348207.938                    24348217.203
 11  8 26  2 46  0.0000000  0 10G26G15G21G12G05G29G02G25G30G18
 115000919.963 7  89611231.21045  21883944.516                    21883952.848
 118527047.901 7  92358827.106 7  22554942.406                    22554950.574
 129008258.777 6 100525994.28743  24549458.602                    24549467.719
 121389682.255 7  94589487.130 7  23099703.398                    23099712.172
 112671112.198 8  87795777.956 7  21440573.586                    21440581.305
 110966933.573 7  86467805.572 7  21116305.398                    21116313.570
 118203082.637 7  92106446.95845  22493274.430                    22493280.570
 116769754.103 8  90989549.892 7  22220562.758                    22220573.699
 118508789.194 7  92344650.22845  22551487.594                    22551496.770
 127865284.974 6  99635350.56843  24331956.586                    24331966.773
 11  8 26  2 46 30.0000000  0 10G26G15G21G12G05G29G02G25G30G18
 114936202.854 7  89560802.33045  21871629.031                    21871637.578
 118436923.939 7  92288600.691 7  22537792.484                    22537800.633
 128951884.217 6 100482066.14543  24538730.984                    24538740.199
 121480860.567 7  94660535.161 6  23117054.070                    23117062.203
 112741581.353 8  87850688.984 7  21453983.398                    21453991.258
 110904831.767 7  86419414.596 7  21104487.867                    21104495.832
 118249550.948 7  92142656.04545  22502116.688                    22502122.457
 116824364.281 7  91032103.284 7  22230954.938                    22230965.934
 118568752.268 7  92391374.70745  22562898.547                    22562907.625
 127780082.088 6  99568958.83543  24315742.758                    24315752.699
 11  8 26  2 47  0.0000000  0 10G26G15G21G12G05G29G02G25G30G18
 114871950.514 7  89510735.61045  21859402.664                    21859410.547
 118346997.184 7  92218527.939 7  22520680.242                    22520688.715
 128895479.205 6 100438114.31343  24527997.758                    24528006.773
 121572149.886 7  94731669.655 6  23134426.063                    23134434.746
 112812316.895 8  87905807.593 7  21467443.859                    21467451.801
 110843043.177 7  86371267.681 7  21092730.039                    21092737.570
 118296123.018 7  92178945.97445  22510979.188                    22510985.176
 116879360.600 7  91074957.556 7  22241420.641                    22241431.398
 118629067.930 7  92438373.93345  22574376.078                    22574384.848
 127695071.765 6  99502717.17643  24299566.008                    24299575.648
 11  8 26  2 47 30.0000000  0 10G26G15G21G12G05G29G02G25G30G18
 114808165.924 7  89461033.35345  21847264.766                    21847273.191
 118257270.507 7  92148611.092 7  22503605.656                    22503614.250
 128839043.045 6 100394138.16143  24517258.852                    24517267.559
 121663547.365 7  94802888.456 6  23151818.250                    23151826.633
 112883316.045 8  87961131.602 7  21480954.375                    21480961.984
 110781570.044 8  86323366.584 7  21081031.719                    21081039.473
 118342799.061 7  92215316.93745  22519861.328                    22519867.172
 116934740.109 8  91118110.432 7  22251958.836                    22251969.492
 118689733.040 7  92485645.47145  22585920.508                    22585929.000
 127610255.432 6  99436626.70543  24283425.930                    24283435.602
 11  8 26  2 48  0.0000000  0 10G26G15G21G12G05G29G02G25G30G18
 114744852.193 7  89411698.02345  21835216.375                    21835224.621
 118167746.955 7  92078852.531 7  22486569.539                    22486578.402
 128782575.250 6 100350137.40743  24506512.844                    24506521.344
 121755049.327 7  94874188.664 6  23169230.648                    23169238.777
 112954575.966 8  88016658.819 7  21494515.195                    21494522.410
 110720414.253 7  86275712.766 7  21069394.305                    21069401.797
 118389579.398 7  92251769.15245  22528763.383                    22528769.313
 116990499.740 7  91161559.487 7  22262569.656                    22262580.555
 118750744.325 7  92533186.73745  22597530.422                    22597539.020
 127525633.484 6  99370687.65243  24267323.313                    24267332.328
 11  8 26  2 48 30.0000000  0 10G26G15G21G12G05G29G02G25G30G18
 114682013.054 7  89362732.48845  21823258.336                    21823266.520
 118078430.229 7  92009255.135 7  22469572.945                    22469581.316
 128726075.699 6 100306111.89443  24495760.406                    24495769.520
 121846653.197 7  94945568.268 6  23186662.094                    23186670.840
 113026094.952 8  88072387.898 7  21508124.781                    21508132.164
 110659579.122 8  86228308.813 7  21057817.656                    21057825.445
 118436464.983 7  92288303.39045  22537685.422                    22537691.074
 117046637.340 7  91205303.071 7  22273252.305                    22273262.871
 118812099.170 7  92580995.71745  22609205.773                    22609214.984
 127441207.690 6  99304901.46643  24251257.086                    24251266.434
 11  8 26  2 49  0.0000000  0 10G26G15G21G12G05G29G02G25G30G18
 114619651.679 7  89314139.23745  21811391.258                    21811399.691
 117989323.287 7  91939821.210 7  22452617.102                    22452625.305
 128669543.920 6 100262061.29543  24485002.859                    24485012.078
 121938356.487 7  95017025.380 6  23204112.750                    23204121.344
 113097870.518 8  88128316.924 7  21521782.828                    21521790.520
 110599067.018 7  86181156.577 7  21046302.508                    21046310.422
 118483456.223 7  92324919.94545  22546627.445                    22546633.590
 117103150.103 7  91249338.984 7  22284006.117                    22284017.313
 118873794.646 7  92629070.12145  22620946.164                    22620954.934
 127356979.122 6  99239268.99643  24235229.508                    24235238.520
 11  8 26  2 49 30.0000000  0 10G26G15G21G12G05G29G02G25G30G18
 114557771.140 7  89265920.67345  21799616.164                    21799624.063
 117900428.987 7  91870552.961 7  22435700.711                    22435708.906
 128612979.237 6 100217985.02943  24474239.516                    24474247.816
 122030155.513 7  95088557.063 6  23221581.602                    23221590.121
 113169900.120 8  88184443.880 7  21535489.898                    21535497.363
 110538879.826 8  86134257.507 7  21034849.391                    21034857.172
 118530553.401 7  92361619.06045  22555590.016                    22555595.949
 117160035.131 7  91293664.977 7  22294830.828                    22294841.949
 118935827.591 7  92677407.47645  22632750.508                    22632759.621
 127272948.564 6  99173790.80543  24219238.305                    24219247.563
 11  8 26  2 50  0.0000000  0 10G26G15G21G12G05G29G02G25G30G18
 114496374.479 7  89218079.15045  21787932.172                    21787940.574
 117811750.700 7  91801453.041 7  22418825.625                    22418834.172
 128556381.530 6 100173883.02243  24463468.648                    24463477.410
 122122047.122 7  95160160.882 6  23239068.305                    23239077.176
 113242181.157 8  88240766.778 7  21549244.508                    21549251.738
 110479020.193 8  86087613.681 7  21023458.031                    21023465.961
 118577757.111 7  92398401.16945  22564571.711                    22564578.488
 117217289.770 7  91338278.984 7  22305726.102                    22305737.168
 118998194.978 7  92726005.44945  22644618.148                    22644627.395
 127189117.328 6  99108467.92943  24203286.523                    24203295.492
 11  8 26  2 50 30.0000000  0 10G26G15G21G12G05G29G02G25G30G18
 114435465.632 7  89170617.74145  21776341.664                    21776350.195
 117723291.849 7  91732524.103 7  22401992.563                    22402001.070
 128499750.469 6 100129755.05443  24452692.414                    24452700.922
 122214028.897 7  95231834.964 6  23256571.602                    23256580.109
 113314711.657 8  88297284.059 7  21563046.695                    21563053.805
 110419490.809 8  86041227.195 7  21012130.234                    21012137.902
 118625067.653 7  92435266.53145  22573575.508                    22573581.113
 117274911.431 7  91383178.995 7  22316691.211                    22316702.191
 119060894.113 7  92774861.92345  22656549.883                    22656558.344
 127105486.763 6  99043301.43343  24187371.664                    24187380.602
 11  8 26  2 51  0.0000000  0 10G26G15G21G12G05G29G02G25G30G18
 114375046.569 7  89123537.98545  21764844.320                    21764852.934
 117635054.872 7  91663768.067 7  22385201.898                    22385209.945
 128443085.014 6 100085600.23843  24441909.625                    24441917.578
 122306097.103 6  95303576.392 6  23274091.250                    23274100.273
 113387488.141 8  88353993.014 7  21576895.453                    21576903.098
 110360292.823 8  85995098.930 7  21000865.211                    21000873.047
 118672485.304 7  92472215.33445  22582598.695                    22582604.449
 117332896.476 7  91428362.150 7  22327725.547                    22327736.477
 119123920.990 7  92823973.77445  22668543.688                    22668552.535
 127022057.128 6  98978291.49543  24171494.703                    24171504.238
 11  8 26  2 51 30.0000000  0 10G26G15G21G12G05G29G02G25G30G18
 114315120.636 7  89076842.49345  21753440.648                    21753449.434
 117547042.808 7  91595187.281 7  22368453.266                    22368461.754
 128386384.818 6 100041418.37443  24431119.906                    24431128.164
 122398248.855 7  95375382.927 6  23291627.180                    23291636.426
 113460508.548 8  88410892.031 7  21590790.828                    21590798.406
 110301429.248 8  85949231.250 7  20989664.156                    20989671.750
 118720010.882 7  92509248.23945  22591642.094                    22591648.000
 117391242.392 7  91473826.495 7  22338828.164                    22338839.375
 119187272.863 7  92873338.88045  22680598.898                    22680607.750
 126938829.584 6  98913439.03643  24155657.352                    24155667.152
 11  8 26  2 52  0.0000000  0 10G26G15G21G12G05G29G02G25G30G18
 114255691.693 7  89030534.25845  21742131.523                    21742140.281
 117459259.210 7  91526784.526 7  22351748.516                    22351756.746
 128329649.771 6  99997209.34943  24420322.883                    24420331.199
 122490481.274 6  95447252.332 6  23309178.813                    23309187.074
 113533770.658 8  88467979.388 7  21604731.820                    21604739.887
 110242902.699 8  85903626.192 7  20978526.883                    20978534.504
 118767644.751 7  92546365.52245  22600706.766                    22600712.262
 117449946.779 7  91519570.176 7  22349999.625                    22350010.352
 119250947.122 7  92922955.18345  22692715.844                    22692724.742
 126855805.783 6  98848745.33943  24139857.930                    24139867.289
 11  8 26  2 52 30.0000000  0 10G26G15G21G12G05G29G02G25G30G18
 114196762.794 7  88984615.66945  21730918.320                    21730926.449
 117371707.275 7  91458562.276 7  22335088.172                    22335096.102
 128272879.722 6  99952972.99943  24409520.094                    24409528.398
 122582791.625 7  95519182.427 6  23326744.656                    23326753.926
 113607272.401 8  88525253.485 7  21618719.094                    21618726.566
 110184715.561 8  85858285.597 7  20967453.922                    20967461.602
 118815387.542 7  92583567.68245  22609792.039                    22609797.895
 117509006.811 7  91565590.971 7  22361238.305                    22361248.797
 119314940.664 7  92972820.28045  22704893.102                    22704902.445
 126772986.412 6  98784210.95543  24124098.406                    24124107.449
 11  8 26  2 53  0.0000000  0 10G26G15G21G12G05G29G02G25G30G18
 114138337.107 7  88939089.19145  21719799.859                    21719808.070
 117284390.215 7  91390523.046 7  22318472.195                    22318480.539
 128216074.177 6  99908709.01843  24398710.578                    24398719.336
 122675177.069 7  95591171.070 6  23344325.672                    23344333.348
 113681011.336 8  88582712.391 7  21632751.047                    21632758.723
 110126870.528 8  85813211.574 7  20956446.172                    20956454.059
 118863239.611 7  92620854.99245  22618898.016                    22618903.797
 117568419.744 7  91611886.776 7  22372544.508                    22372555.359
 119379250.466 7  93022931.80644  22717130.734                    22717140.383
 126690372.929 6  98719836.96843  24108376.703                    24108386.613
 11  8 26  2 53 30.0000000  0 10G26G15G21G12G05G29G02G25G30G18
 114080417.523 7  88893957.09845  21708778.289                    21708786.555
 117197311.271 7  91322669.374 7  22301901.313                    22301909.496
 128159232.976 6  99864417.25243  24387894.313                    24387902.176
 122767634.462 7  95663215.765 6  23361919.320                    23361927.918
 113754985.012 8  88640354.216 7  21646827.867                    21646835.270
 110069369.992 8  85768405.990 7  20945504.414                    20945512.453
 118911201.450 7  92658227.83744  22628024.594                    22628030.461
 117628182.716 7  91658455.312 7  22383916.742                    22383927.266
 119443873.518 7  93073287.43045  22729428.047                    22729437.090
 126607966.340 6  98655624.20443  24092695.445                    24092704.816
 11  8 26  2 54  0.0000000  0 10G26G15G21G12G05G29G02G25G30G18
 114023006.621 7  88849221.35445  21697853.227                    21697862.039
 117110472.717 7  91255003.019 7  22285376.609                    22285385.191
 128102354.790 6  99820096.70543  24377069.602                    24377078.156
 122860160.058 7  95735313.613 6  23379525.945                    23379534.539
 113829190.132 8  88698176.396 7  21660948.773                    21660956.121
 110012215.257 8  85723869.855 7  20934627.953                    20934635.828
 118959273.466 7  92695686.52145  22637171.906                    22637177.961
 117688292.182 7  91705293.864 7  22395354.898                    22395365.746
 119508805.904 7  93123884.09545  22741784.727                    22741793.684
 126525767.062 6  98591572.97143  24077053.719                    24077062.477
 11  8 26  2 54 30.0000000  0 10G26G15G21G12G05G29G02G25G30G18
 113966107.558 7  88804884.46845  21687025.672                    21687034.199
 117023877.794 7  91187526.501 7  22268897.844                    22268907.141
 128045439.478 7  99775747.17243  24366239.422                    24366247.590
 122952750.913 7  95807462.303 6  23397145.047                    23397154.238
 113903624.583 8  88756177.271 7  21675113.047                    21675120.289
 109955408.875 8  85679605.172 7  20923818.531                    20923825.855
 119007456.238 7  92733231.51444  22646341.617                    22646347.309
 117748745.382 7  91752400.256 7  22406859.125                    22406870.105
 119574044.735 7  93174719.54645  22754198.938                    22754207.859
 126443775.961 7  98527683.92743  24061451.188                    24061459.977
 11  8 26  2 55  0.0000000  0 10G26G15G21G12G05G29G02G25G30G18
 113909723.637 7  88760948.98145  21676295.789                    21676304.375
 116937529.894 7  91120242.475 7  22252466.469                    22252475.078
 127988486.867 6  99731368.56743  24355401.828                    24355409.891
 123045404.681 6  95879660.015 6  23414777.781                    23414786.336
 113978286.216 8  88814355.167 7  21689320.484                    21689328.105
 109898953.619 8  85635614.083 7  20913075.117                    20913082.867
 119055750.138 7  92770863.10445  22655531.828                    22655537.391
 117809539.774 7  91799772.520 7  22418427.789                    22418438.934
 119639587.244 7  93225791.62544  22766671.781                    22766679.953
 126361994.494 6  98463958.26343  24045888.703                    24045897.375
 11  8 26  2 55 30.0000000  0 10G26G15G21G12G05G29G02G25G30G18
 113853858.214 7  88717417.51045  21665665.172                    21665673.336
 116851432.368 7  91053153.532 7  22236082.789                    22236091.105
 127931496.916 6  99686960.88343  24344556.875                    24344565.484
 123138118.447 6  95951904.480 6  23432419.336                    23432428.766
 114053172.837 8  88872708.378 7  21703571.102                    21703578.301
 109842852.044 8  85591898.589 7  20902399.578                    20902407.059
 119104155.706 7  92808581.70844  22664743.047                    22664748.875
 117870672.771 7  91847408.619 7  22430060.813                    22430072.090
 119705430.641 7  93277098.16545  22779201.188                    22779209.629
 126280423.998 6  98400396.96243  24030366.234                    24030375.355
 11  8 26  2 56  0.0000000  0 10G26G15G21G12G05G29G02G25G30G18
 113798514.165 7  88674292.32145  21655133.523                    21655141.840
 116765588.187 7  90986262.017 7  22219746.922                    22219755.301
 127874469.161 6  99642523.73743  24333704.977                    24333713.199
 123230888.969 6  96024193.166 6  23450073.656                    23450081.840
 114128281.841 8  88931234.882 7  21717863.977                    21717871.121
 109787106.420 8  85548460.461 7  20891791.391                    20891798.992
 119152673.579 7  92846387.83045  22673975.117                    22673981.004
 117932141.162 7  91895306.062 7  22441757.992                    22441768.875
 119771571.350 7  93328636.38444  22791787.133                    22791795.871
 126199064.963 6  98337000.44543  24014884.391                    24014892.758
 11  8 26  2 56 30.0000000  0 10G26G15G21G12G05G29G02G25G30G18
 113743694.144 7  88631575.46045  21644701.531                    21644710.313
 116680000.430 7  90919570.297 7  22203459.984                    22203468.410
 127817403.119 6  99598056.77443  24322845.750                    24322853.328
 123323713.397 6  96096523.839 6  23467737.813                    23467746.703
 114203610.860 8  88989932.819 7  21732198.492                    21732205.609
 109731718.893 8  85505301.373 7  20881251.156                    20881258.934
 119201304.155 7  92884281.76345  22683229.641                    22683235.867
 117993942.002 7  91943462.556 7  22453518.305                    22453529.004
 119838006.379 7  93380403.93044  22804429.492                    22804438.125
 126117918.312 6  98273769.42243  23999441.594                    23999450.395
 11  8 26  2 57  0.0000000  0 10G26G15G21G12G05G29G02G25G30G18
 113689401.114 7  88589269.23945  21634370.484                    21634378.488
 116594671.962 7  90853080.633 7  22187222.672                    22187230.977
 127760298.311 6  99553559.59943  24311979.203                    24311986.734
 123416588.349 6  96168893.909 6  23485411.586                    23485419.727
 114279157.447 8  89048800.291 7  21746574.531                    21746582.020
 109676691.657 8  85462423.037 7  20870780.180                    20870787.563
 119250047.828 7  92922263.83245  22692504.867                    22692511.426
 118056072.376 7  91991875.839 7  22465341.523                    22465352.102
 119904732.501 7  93432398.31245  22817126.828                    22817135.996
 126036985.177 6  98210704.75743  23984040.727                    23984049.461
 11  8 26  2 57 30.0000000  0 10G26G15G21G12G05G29G02G25G30G18
 113635638.474 7  88547376.30945  21624139.438                    21624147.848
 116509606.235 7  90786795.699 7  22171035.375                    22171043.676
 127703154.681 6  99509032.18843  24301104.836                    24301112.051
 123509511.179 6  96241301.278 6  23503094.203                    23503102.438
 114354919.331 8  89107835.522 7  21760991.508                    21760998.953
 109622027.380 8  85419827.516 7  20860377.938                    20860386.145
 119298905.267 7  92960334.55045  22701802.461                    22701808.695
 118118529.672 7  92040543.851 7  22477226.500                    22477237.441
 119971746.860 7  93484617.29245  22829879.336                    22829888.484
 125956266.685 6  98147807.36943  23968680.461                    23968689.500
 11  8 26  2 58  0.0000000  0 10G26G15G21G12G05G29G02G25G30G18
 113582408.700 7  88505898.59845  21614010.109                    21614018.281
 116424805.899 7  90720717.567 7  22154897.898                    22154906.504
 127645971.357 6  99464473.82043  24290223.125                    24290231.023
 123602478.788 7  96313743.556 6  23520785.055                    23520793.645
 114430893.805 8  89167036.414 7  21775448.797                    21775456.129
 109567727.904 8  85377516.253 8  20850044.945                    20850052.332
 119347876.772 7  92998494.14645  22711121.445                    22711127.762
 118181310.504 7  92089463.983 7  22489173.492                    22489184.570
 120039045.968 7  93537058.15544  22842685.773                    22842694.668
 125875763.489 6  98085077.74043  23953360.859                    23953369.945
 11  8 26  2 58 30.0000000  0 10G26G15G21G12G05G29G02G25G30G18
 113529715.029 7  88464838.62745  21603982.938                    21603991.262
 116340274.707 7  90654849.161 7  22138812.102                    22138820.387
 127588748.340 6  99419884.58243  24279333.781                    24279341.680
 123695488.595 7  96386218.701 6  23538484.430                    23538492.957
 114507078.845 8  89226401.374 7  21789946.484                    21789953.781
 109513796.171 8  85335491.556 7  20839781.922                    20839789.719
 119396963.210 7  93036743.30845  22720462.289                    22720468.852
 118244412.416 7  92138634.311 7  22501180.961                    22501192.344
 120106627.066 7  93589718.74344  22855546.328                    22855554.992
 125795476.745 6  98022516.77343  23938082.984                    23938091.711
 11  8 26  2 59  0.0000000  0 10G26G15G21G12G05G29G02G25G30G18
 113477560.366 7  88424198.66845  21594057.969                    21594066.258
 116256015.639 7  90589192.784 7  22122778.711                    22122786.488
 127531485.695 6  99375264.42643  24268436.875                    24268444.922
 123788537.525 7  96458724.317 6  23556191.047                    23556199.625
 114583472.040 8  89285928.537 7  21804483.500                    21804490.938
 109460234.607 8  85293755.300 7  20829589.469                    20829597.266
 119446164.929 7  93075082.31245  22729824.969                    22729831.145
 118307832.428 7  92188052.497 7  22513249.711                    22513260.305
 120174487.036 7  93642596.64345  22868459.695                    22868468.266
 125715407.675 6  97960125.40943  23922846.484                    23922854.738
 11  8 26  2 59 30.0000000  0 10G26G15G21G12G05G29G02G25G30G18
 113425947.228 7  88383980.67145  21584236.523                    21584244.879
 116172031.120 7  90523750.355 7  22106796.578                    22106804.602
 127474182.550 6  99330612.72943  24257532.656                    24257540.250
 123881622.281 6  96531257.868 6  23573904.539                    23573912.852
 114660070.806 8  89345615.878 7  21819059.930                    21819067.418
 109407045.004 8  85252308.889 7  20819467.953                    20819475.176
 119495482.322 7  93113511.45244  22739209.781                    22739216.086
 118371567.268 7  92237716.021 7  22525378.148                    22525388.535
 120242622.256 7  93695689.02745  22881425.547                    22881434.355
 125635556.556 6  97897903.87743  23907650.727                    23907659.488
 11  8 26  3  0  0.0000000  0 10G26G15G21G12G05G29G02G25G30G18
 113374878.805 7  88344187.12745  21574518.258                    21574526.387
 116088324.704 7  90458524.617 7  22090868.031                    22090876.000
 127416838.502 6  99285929.18643  24246619.797                    24246627.969
 123974740.199 7  96603817.246 6  23591623.961                    23591633.293
 114736873.012 8  89405461.759 7  21833675.148                    21833682.195
 109354229.626 8  85211154.072 7  20809417.680                    20809425.004
 119544915.890 7  93152031.10544  22748616.453                    22748622.523
 118435614.084 7  92287622.637 7  22537565.906                    22537576.809
 120311029.878 7  93748993.66545  22894442.781                    22894451.309
 125555924.555 6  97835853.12843  23892497.539                    23892506.172
 11  8 26  3  0 30.0000000  0 10G26G15G21G12G05G29G02G25G30G18
 113324357.498 7  88304819.90545  21564904.211                    21564912.664
 116004899.099 7  90393517.689 7  22074992.547                    22075000.219
 127359453.262 6  99241213.54243  24235699.602                    24235707.926
 124067888.077 7  96676399.953 6  23609349.695                    23609358.660
 114813875.955 8  89465464.057 7  21848328.148                    21848335.664
 109301790.783 8  85170292.660 7  20799438.844                    20799446.359
 119594466.152 7  93190641.70745  22758045.578                    22758051.578
 118499969.851 7  92337769.975 7  22549812.219                    22549822.410
 120379706.529 7  93802507.91444  22907511.797                    22907520.730
 125476512.571 6  97773973.75843  23877385.531                    23877394.016
 11  8 26  3  1  0.0000000  0 10G26G15G21G12G05G29G02G25G30G18
 113274386.584 7  88265881.54946  21555395.211                    21555403.352
 115921757.689 7  90328732.224 7  22059171.242                    22059179.289
 127302026.855 6  99196465.78444  24224772.117                    24224780.473
 124161063.518 6  96749004.177 6  23627080.398                    23627089.195
 114891077.461 8  89525621.078 7  21863018.672                    21863026.043
 109249731.149 8  85129726.734 7  20789531.883                    20789539.355
 119644133.771 7  93229343.74344  22767497.172                    22767502.898
 118564631.812 7  92388155.936 7  22562117.242                    22562127.715
 120448649.336 7  93856229.57744  22920631.125                    22920639.668
 125397321.340 6  97712266.43143  23862315.563                    23862324.605
 11  8 26  3  1 30.0000000  0 10G26G15G21G12G05G29G02G25G30G18
 113224968.833 8  88227374.24945  21545991.352                    21545999.484
 115838903.709 7  90264170.726 7  22043404.438                    22043412.508
 127244559.020 6  99151685.78943  24213835.617                    24213844.129
 124254263.309 7  96821627.330 6  23644815.742                    23644824.891
 114968475.186 8  89585930.992 7  21877747.141                    21877754.789
 109198052.807 8  85089457.917 8  20779697.961                    20779705.598
 119693919.103 7  93268137.51045  22776971.133                    22776976.996
 118629597.015 7  92438778.176 7  22574479.250                    22574489.816
 120517855.136 7  93910156.17144  22933800.570                    22933809.477
 125318352.020 6  97650732.04143  23847288.156                    23847297.309
 11  8 26  3  2  0.0000000  0 10G26G15G21G12G05G29G02G25G30G18
 113176106.775 7  88189299.95245  21536693.227                    21536701.258
 115756339.907 7  90199835.336 7  22027693.016                    22027701.109
 127187049.060 6  99106872.96843  24202892.422                    24202899.973
 124347484.408 7  96894267.112 6  23662555.133                    23662563.988
 115046067.103 8  89646392.229 7  21892512.484                    21892519.789
 109146757.939 8  85049487.919 8  20769936.648                    20769944.531
 119743822.604 7  93307023.34045  22786467.656                    22786473.684
 118694862.338 7  92489634.274 7  22586899.094                    22586909.664
 120587320.665 7  93964285.15044  22947019.016                    22947028.305
 125239605.296 6  97589371.06443  23832303.414                    23832311.832
 11  8 26  3  2 30.0000000  0 10G26G15G21G12G05G29G02G25G30G18
 113127802.844 8  88151660.55945  21527501.406                    21527509.355
 115674069.216 7  90135728.347 7  22012037.531                    22012045.082
 127129496.910 7  99062027.23744  24191940.063                    24191948.395
 124440723.661 7  96966921.040 6  23680298.258                    23680306.602
 115123850.221 8  89707002.458 7  21907314.031                    21907321.602
 109095848.642 8  85009818.363 7  20760248.883                    20760256.645
 119793844.765 7  93346001.64645  22795986.047                    22795992.586
 118760424.532 7  92540721.709 7  22599374.945                    22599385.766
 120657042.435 7  94018613.79544  22960286.938                    22960295.957
 125161081.842 6  97528184.06743  23817360.367                    23817369.195
 11  8 26  3  3  0.0000000  0 10G26G15G21G12G05G29G02G25G30G18
 113080060.298 8  88114458.60545  21518416.234                    21518424.438
 115592094.929 7  90071852.315 7  21996438.258                    21996446.168
 127071902.352 6  99017148.49743  24180980.148                    24180988.453
 124533978.522 7  97039587.131 6  23698043.742                    23698052.281
 115201822.693 8  89767760.235 7  21922151.852                    21922158.715
 109045327.514 8  84970451.275 7  20750635.328                    20750642.582
 119843986.230 7  93385072.91244  22805527.969                    22805533.852
 118826280.820 7  92592038.308 7  22611907.102                    22611918.066
 120727017.548 7  94073139.85144  22973602.523                    22973611.574
 125082782.798 6  97467171.96543  23802460.820                    23802469.344
 11  8 26  3  3 30.0000000  0 10G26G15G21G12G05G29G02G25G30G18
 113032881.994 7  88077696.30945  21509438.156                    21509446.438
 115510420.327 7  90008209.825 7  21980895.984                    21980904.082
 127014265.185 6  98972236.53143  24170012.211                    24170020.230
 124627246.413 7  97112263.345 6  23715792.023                    23715800.891
 115279982.205 8  89828663.754 7  21937025.109                    21937032.504
 108995197.070 8  84931388.612 8  20741095.422                    20741103.215
 119894247.463 7  93424237.50844  22815092.594                    22815098.137
 118892428.554 7  92643581.997 7  22624494.805                    22624505.094
 120797243.086 7  94127861.04444  22986966.172                    22986975.141
 125004709.148 6  97406335.44543  23787603.336                    23787612.230
 11  8 26  3  4  0.0000000  0 10G26G15G21G12G05G29G02G25G30G18
 112986270.328 8  88041375.55545  21500568.742                    21500576.371
 115429048.250 7  89944803.036 7  21965411.492                    21965419.480
 126956584.906 6  98927290.97644  24159035.961                    24159043.965
 124720524.017 6  97184947.189 6  23733542.766                    23733551.008
 115358326.143 8  89889710.975 7  21951933.805                    21951940.910
 108945459.356 8  84892631.968 7  20731630.609                    20731638.453
 119944629.213 7  93463496.01244  22824679.750                    22824685.859
 118958864.606 7  92695350.351 7  22637137.016                    22637147.918
 120867715.855 7  94182774.87644  23000376.383                    23000385.281
 124926861.640 7  97345675.17043  23772789.586                    23772798.648
 11  8 26  3  4 30.0000000  0 10G26G15G21G12G05G29G02G25G30G18
 112940227.911 8  88005498.38345  21491806.563                    21491814.801
 115347981.291 7  89881634.019 7  21949984.852                    21949992.703
 126898860.972 7  98882311.40443  24148051.203                    24148058.547
 124813808.525 7  97257636.387 6  23751293.859                    23751302.387
 115436852.573 8  89950900.401 7  21966876.656                    21966884.016
 108896116.340 8  84854182.882 7  20722241.320                    20722248.457
 119995131.685 7  93502848.57244  22834290.125                    22834296.457
 119025585.694 7  92747340.816 7  22649833.586                    22649844.605
 120938432.339 7  94237878.61844  23013833.367                    23013842.668
 124849240.861 6  97285191.54043  23758018.688                    23758027.844
 11  8 26  3  5  0.0000000  0 10G26G15G21G12G05G29G02G25G30G18
 112894757.167 7  87970066.66345  21483153.992                    21483162.266
 115267223.063 7  89818705.563 7  21934617.078                    21934625.320
 126841093.275 6  98837297.73044  24137058.695                    24137066.395
 124907096.938 7  97330328.586 6  23769046.211                    23769055.383
 115515558.790 8  90012229.916 7  21981853.844                    21981861.422
 108847170.032 7  84816042.929 8  20712927.070                    20712934.621
 120045755.413 7  93542295.61344  22843923.281                    22843929.766
 119092588.635 7  92799550.906 7  22662583.727                    22662594.773
 121009389.283 7  94293169.74144  23027336.281                    23027345.246
 124771847.528 6  97224885.13743  23743291.648                    23743300.227
 11  8 26  3  5 30.0000000  0 10G26G15G21G12G05G29G02G25G30G18
 112849860.625 7  87935082.38045  21474610.414                    21474618.512
 115186775.916 7  89756019.513 7  21919308.508                    21919316.586
 126783281.729 7  98792249.87543  24126056.945                    24126064.980
 125000386.173 7  97403021.476 6  23786797.969                    23786806.750
 115594442.625 8  90073697.847 7  21996864.648                    21996872.160
 108798623.018 8  84778214.100 8  20703689.102                    20703696.328
 120096500.888 7  93581837.54844  22853579.867                    22853585.863
 119159870.494 7  92851978.331 7  22675387.250                    22675397.699
 121080583.480 7  94348645.73744  23040884.063                    23040892.660
 124694682.520 6  97164756.67243  23728607.297                    23728615.547
 11  8 26  3  6  0.0000000  0 10G26G15G21G12G05G29G02G25G30G18
 112805541.617 7  87900548.12145  21466176.859                    21466184.816
 115106643.610 7  89693578.796 7  21904059.938                    21904067.957
 126725425.984 7  98747167.58444  24115047.695                    24115055.598
 125093673.931 7  97475713.186 6  23804551.281                    23804559.449
 115673501.781 7  90135302.371 7  22011909.383                    22011916.797
 108750477.711 7  84740698.299 8  20694527.180                    20694534.625
 120147368.914 7  93621474.96544  22863259.859                    22863265.922
 119227428.685 7  92904621.076 7  22688243.047                    22688253.664
 121152012.137 7  94404304.43444  23054476.602                    23054485.230
 124617746.947 6  97104806.98744  23713967.203                    23713976.078
 11  8 26  3  6 30.0000000  0 10G26G15G21G12G05G29G02G25G30G18
 112761802.456 8  87866465.69245  21457853.445                    21457861.363
 115026829.076 7  89631385.704 7  21888871.406                    21888879.875
 126667525.855 7  98702050.70344  24104029.281                    24104036.984
 125186957.385 7  97548401.546 6  23822302.375                    23822310.793
 115752734.104 8  90197041.853 7  22026986.820                    22026994.082
 108702736.509 8  84703497.382 8  20685442.352                    20685449.367
 120198359.908 7  93661208.20044  22872962.945                    22872969.395
 119295260.162 7  92957476.765 7  22701150.766                    22701161.711
 121223672.172 7  94460143.41644  23068112.750                    23068122.059
 124541041.701 6  97045036.72643  23699370.328                    23699378.574
 11  8 26  3  7  0.0000000  0 10G26G15G21G12G05G29G02G25G30G18
 112718645.378 8  87832836.83045  21449641.094                    21449649.113
 114947335.067 7  89569442.363 7  21873744.539                    21873752.129
 126609581.205 7  98656899.12044  24093002.586                    24093010.355
 125280233.203 7  97621083.953 6  23840051.266                    23840060.504
 115832137.110 8  90258914.327 7  22042096.320                    22042104.086
 108655401.278 8  84666612.813 8  20676434.781                    20676442.391
 120249474.213 7  93701037.52544  22882689.750                    22882695.594
 119363361.558 7  93010542.804 7  22714109.969                    22714121.156
 121295560.086 7  94516159.96044  23081792.406                    23081801.504
 124464567.197 6  96985446.29743  23684818.047                    23684826.090
 11  8 26  3  7 30.0000000  0 10G26G15G21G12G05G29G02G25G30G18
 112676073.203 8  87799663.74745  21441539.852                    21441548.102
 114868164.681 7  89507751.181 7  21858678.750                    21858686.930
 126551591.716 7  98611712.57044  24081967.742                    24081975.285
 125373498.930 7  97693758.509 6  23857799.438                    23857808.219
 115911708.496 8  90320918.002 7  22057238.773                    22057246.230
 108608474.202 8  84630046.277 8  20667504.680                    20667512.313
 120300712.551 7  93740963.50444  22892440.023                    22892445.805
 119431729.886 7  93063816.817 7  22727120.367                    22727131.285
 121367672.619 7  94572351.54144  23095514.766                    23095524.164
 124388324.314 6  96926036.33643  23670308.586                    23670317.246
 11  8 26  3  8  0.0000000  0 10G26G15G21G12G05G29G02G25G30G18
 112634087.955 8  87766948.00145  21433550.266                    21433558.191
 114789320.669 7  89446314.339 7  21843675.023                    21843683.328
 126493556.888 7  98566490.71844  24070923.992                    24070932.375
 125466751.290 7  97766422.618 6  23875544.875                    23875554.672
 115991446.176 7  90383051.262 7  22072412.172                    22072419.625
 108561957.281 8  84593799.340 8  20658652.563                    20658660.516
 120352075.138 7  93780986.29444  22902213.750                    22902220.078
 119500362.024 7  93117296.396 7  22740180.852                    22740191.430
 121440006.625 7  94628715.70244  23109280.023                    23109289.039
 124312313.605 6  96866807.31943  23655844.492                    23655853.398
 11  8 26  3  8 30.0000000  0 10G26G15G21G12G05G29G02G25G30G18
 112592692.603 8  87734691.90146  21425672.648                    21425681.160
 114710806.512 7  89385134.515 7  21828734.313                    21828742.109
 126435477.098 7  98521233.81643  24059872.031                    24059879.254
 125559987.773 6  97839074.367 6  23893287.328                    23893296.090
 116071348.117 8  90445312.519 7  22087617.047                    22087624.410
 108515853.042 8  84557873.988 8  20649879.469                    20649887.117
 120403562.601 7  93821106.37844  22912011.734                    22912017.844
 119569255.077 7  93170979.290 7  22753290.531                    22753301.402
 121512558.971 7  94685249.99944  23123086.063                    23123095.160
 124236535.965 6  96807759.88344  23641425.609                    23641433.207
 11  8 26  3  9  0.0000000  0 10G26G15G21G12G05G29G02G25G30G18
 112551889.602 8  87702897.38645  21417908.195                    21417916.410
 114632624.918 7  89324213.828 7  21813856.805                    21813864.711
 126377351.961 7  98475941.60744  24048810.969                    24048818.508
 125653205.560 6  97911711.565 6  23911026.008                    23911035.059
 116151411.734 8  90507699.750 7  22102852.617                    22102860.242
 108470163.951 8  84522272.119 8  20641184.758                    20641192.406
 120455175.768 7  93861324.42444  22921833.352                    22921839.711
 119638406.200 7  93224863.272 7  22766449.305                    22766460.488
 121585326.629 7  94741952.07144  23136932.852                    23136942.391
 124160992.299 7  96748894.78743  23627049.211                    23627057.484
 11  8 26  3  9 30.0000000  0 10G26G15G21G12G05G29G02G25G30G18
 112511681.101 8  87671566.11845  21410256.578                    21410264.977
 114554778.791 8  89263554.546 7  21799043.320                    21799051.113
 126319180.653 7  98430613.37144  24037741.492                    24037749.000
 125746401.525 6  97984331.762 6  23928760.266                    23928769.910
 116231634.866 8  90570211.288 7  22118118.250                    22118125.793
 108424891.589 8  84486994.966 8  20632569.742                    20632577.160
 120506914.861 7  93901640.59744  22931679.094                    22931685.305
 119707811.965 7  93278945.678 7  22779656.930                    22779667.543
 121658306.155 7  94798819.22144  23150821.242                    23150829.563
 124085683.297 7  96690212.54243  23612718.031                    23612726.258
 11  8 26  3 10  0.0000000  0 10G26G15G21G12G05G29G02G25G30G18
 112472069.371 8  87640699.85445  21402718.766                    21402726.957
 114477271.020 7  89203158.918 7  21784293.625                    21784301.797
 126260963.623 7  98385249.54944  24026662.891                    24026670.391
 125839572.877 7  98056932.763 6  23946490.617                    23946500.074
 116312015.116 8  90632845.252 7  22133414.328                    22133422.023
 108380038.383 8  84452044.434 8  20624034.734                    20624042.023
 120558780.526 7  93942055.39544  22941548.938                    22941555.137
 119777469.332 7  93333224.142 7  22792912.289                    22792923.148
 121731494.311 6  94855848.97644  23164748.305                    23164756.715
 124010609.389 7  96631713.49543  23598432.320                    23598440.250
 11  8 26  3 10 30.0000000  0 10G26G15G21G12G05G29G02G25G30G18
 112433057.070 8  87610300.70245  21395295.156                    21395303.383
 114400104.522 7  89143029.221 7  21769609.281                    21769617.773
 126202700.265 7  98339849.58844  24015575.273                    24015582.727
 125932717.169 7  98129512.687 6  23964215.500                    23964224.633
 116392550.198 8  90695599.854 7  22148739.891                    22148747.160
 108335606.025 8  84417421.835 8  20615579.492                    20615586.820
 120610772.977 7  93982568.99044  22951442.680                    22951448.422
 119847375.340 7  93387696.356 7  22806215.180                    22806225.871
 121804887.998 7  94913038.84444  23178714.680                    23178723.266
 123935771.259 6  96573398.13243  23584190.758                    23584199.207
 11  8 26  3 11  0.0000000  0 10G26G15G21G12G05G29G02G25G30G18
 112394646.607 8  87580370.49845  21387985.766                    21387993.762
 114323282.721 7  89083168.116 7  21754990.742                    21754998.672
 126144390.703 7  98294413.63744  24004479.203                    24004487.027
 126025831.631 7  98202069.370 6  23981935.063                    23981943.754
 116473238.333 8  90758473.733 7  22164094.008                    22164101.340
 108291597.346 8  84383129.380 8  20607204.781                    20607212.020
 120662892.958 7  94023181.93644  22961360.867                    22961366.844
 119917527.113 7  93442360.070 7  22819564.359                    22819575.406
 121878484.285 7  94970386.59544  23192719.359                    23192728.070
 123861169.972 7  96515267.37843  23569994.328                    23570002.879
 11  8 26  3 11 30.0000000  0 10G26G15G21G12G05G29G02G25G30G18
 112356839.858 8  87550910.71645  21380791.289                    21380799.836
 114246807.841 7  89023577.334 7  21740438.156                    21740446.473
 126086034.452 7  98248941.32143  23993374.594                    23993382.172
 126118912.936 6  98274600.223 6  23999647.313                    23999656.117
 116554076.863 7  90821464.801 7  22179476.969                    22179484.242
 108248013.844 8  84349168.230 8  20598911.250                    20598919.012
 120715141.019 7  94063894.70944  22971303.164                    22971309.648
 119987921.066 7  93497212.483 7  22832959.961                    22832970.785
 121952279.427 6  95027889.28944  23206762.031                    23206771.168
 123786805.844 7  96457321.38244  23555843.500                    23555851.094
 11  8 26  3 12  0.0000000  0 10G26G15G21G12G05G29G02G25G30G18
 112319639.022 8  87521923.08546  21373712.391                    21373720.324
 114170683.059 8  88964259.356 7  21725952.016                    21725960.160
 126027631.235 7  98203432.40544  23982260.953                    23982267.965
 126211958.485 6  98347103.202 6  24017353.828                    24017362.551
 116635063.424 7  90884571.228 7  22194887.922                    22194895.746
 108204857.639 8  84315540.032 8  20590698.859                    20590706.527
 120767517.680 7  94104707.68744  22981270.688                    22981275.676
 120058554.211 7  93552251.279 7  22846401.156                    22846411.977
 122026270.238 6  95085544.46944  23220842.313                    23220851.164
 123712679.498 7  96399560.68344  23541737.164                    23541745.453
 11  8 26  3 12 30.0000000  0 10G26G15G21G12G05G29G02G25G30G18
 112283046.926 8  87493409.78845  21366748.859                    21366757.336
 114094911.783 8  88905216.848 7  21711533.398                    21711541.262
 125969181.497 7  98157887.22043  23971138.156                    23971145.266
 126304965.836 6  98419576.417 6  24035051.773                    24035061.055
 116716196.121 7  90947791.521 7  22210327.133                    22210335.102
 108162131.341 8  84282246.827 8  20582568.313                    20582575.926
 120820023.407 7  94145621.22944  22991261.336                    22991267.867
 120129423.956 7  93607474.447 7  22859887.078                    22859898.133
 122100453.983 6  95143349.96744  23234958.852                    23234967.473
 123638792.112 7  96341986.18143  23527677.281                    23527685.004
 11  8 26  3 13  0.0000000  0 10G26G15G21G12G05G29G02G25G30G18
 112247065.684 8  87465372.48445  21359902.070                    21359910.156
 114019496.635 7  88846451.843 7  21697181.969                    21697190.066
 125910684.746 7  98112305.43144  23960006.703                    23960014.086
 126397932.003 6  98492017.510 6  24052743.063                    24052752.414
 116797472.691 7  91011123.921 7  22225793.844                    22225801.238
 108119836.973 8  84249290.193 8  20574520.055                    20574527.813
 120872658.785 7  94186635.78844  23001277.914                    23001284.047
 120200527.033 7  93662879.434 7  22873417.148                    22873428.301
 122174827.366 7  95201303.24044  23249112.375                    23249120.688
 123565144.128 6  96284598.25344  23513662.289                    23513670.223
 11  8 26  3 13 30.0000000  0 10G26G15G21G12G05G29G02G25G30G18
 112211697.740 8  87437813.07245  21353171.633                    21353179.637
 113944440.755 8  88787966.783 7  21682899.648                    21682907.508
 125852140.838 7  98066686.86944  23948866.047                    23948873.465
 126490854.435 6  98564424.553 6  24070425.508                    24070434.832
 116878891.376 7  91074567.059 7  22241287.547                    22241294.602
 108077976.780 8  84216671.880 8  20566554.406                    20566561.961
 120925424.350 7  94227751.80044  23011318.383                    23011324.500
 120271860.395 7  93718463.853 7  22886991.695                    22887002.063
 122249387.179 7  95259401.79444  23263300.609                    23263308.496
 123491736.243 7  96227397.40143  23499692.797                    23499701.273
 11  8 26  3 14  0.0000000  0 10G26G15G21G12G05G29G02G25G30G18
 112176944.641 8  87410732.76146  21346558.391                    21346566.629
 113869746.487 8  88729763.492 7  21668685.648                    21668693.863
 125793549.790 7  98021031.58944  23937716.422                    23937723.750
 126583730.091 6  98636795.121 6  24088099.602                    24088108.168
 116960449.387 7  91138118.762 7  22256807.586                    22256814.633
 108036552.313 8  84184393.094 8  20558671.109                    20558678.992
 120978320.341 7  94268969.45444  23021384.977                    23021390.930
 120343420.639 7  93774225.073 7  22900609.336                    22900619.973
 122324129.918 7  95317642.89144  23277522.703                    23277531.668
 123418568.746 7  96170383.85843  23485769.953                    23485777.469
 11  8 26  3 14 30.0000000  0 10G26G15G21G12G05G29G02G25G30G18
 112142808.687 8  87384133.33845  21340062.766                    21340070.672
 113795416.690 8  88671844.204 7  21654541.391                    21654548.434
 125734911.194 7  97975339.23444  23926557.461                    23926565.051
 126676555.915 6  98709126.870 6  24105763.461                    24105772.602
 117042144.541 7  91201777.325 7  22272353.539                    22272360.660
 107995565.583 8  84152455.394 8  20550871.875                    20550879.418
 121031347.403 7  94310289.20744  23031475.617                    23031481.840
 120415204.728 7  93830160.715 7  22914269.141                    22914279.676
 122399052.498 6  95376024.12144  23291779.914                    23291788.941
 123345642.211 6  96113558.09044  23471892.586                    23471900.777
